<?xml version="1.0" encoding="UTF-8" standalone="no" ?>
<gpx xmlns="http://www.topografix.com/GPX/1/1" xmlns:xsi="http://www.w3.org/2001/XMLSchema-instance" xsi:schemaLocation="http://www.topografix.com/GPX/1/1 http://www.topografix.com/GPX/1/1/gpx.xsd" version="1.1" creator="VisuGPX - https://www.visugpx.com">
  <metadata>
    <name>VTT, 29.86 km le 21_08_2021 Bgs trouy Le subdray</name>
  </metadata>
  <trk>
    <name><![CDATA[VTT, 29.86 km le 21_08_2021 on AllTrails]]></name>
    <trkseg>
      <trkpt lat="47.06735" lon="2.40697">
        <ele>149</ele>
        <time>2021-08-21T12:45:30Z</time>
      </trkpt>
      <trkpt lat="47.06734" lon="2.40696">
        <ele>149</ele>
        <time>2021-08-21T12:45:30Z</time>
      </trkpt>
      <trkpt lat="47.06733" lon="2.40694">
        <ele>149</ele>
        <time>2021-08-21T12:45:30Z</time>
      </trkpt>
      <trkpt lat="47.06732" lon="2.40693">
        <ele>149</ele>
        <time>2021-08-21T12:45:30Z</time>
      </trkpt>
      <trkpt lat="47.06731" lon="2.40691">
        <ele>149</ele>
        <time>2021-08-21T12:45:30Z</time>
      </trkpt>
      <trkpt lat="47.06731" lon="2.4069">
        <ele>149</ele>
        <time>2021-08-21T12:45:30Z</time>
      </trkpt>
      <trkpt lat="47.06731" lon="2.4069">
        <ele>149</ele>
        <time>2021-08-21T12:45:30Z</time>
      </trkpt>
      <trkpt lat="47.06731" lon="2.4069">
        <ele>149</ele>
        <time>2021-08-21T12:45:30Z</time>
      </trkpt>
      <trkpt lat="47.06731" lon="2.40691">
        <ele>149</ele>
        <time>2021-08-21T12:45:30Z</time>
      </trkpt>
      <trkpt lat="47.06731" lon="2.4069">
        <ele>149</ele>
        <time>2021-08-21T12:45:30Z</time>
      </trkpt>
      <trkpt lat="47.06731" lon="2.40689">
        <ele>149</ele>
        <time>2021-08-21T12:45:30Z</time>
      </trkpt>
      <trkpt lat="47.06731" lon="2.40688">
        <ele>149</ele>
        <time>2021-08-21T12:45:30Z</time>
      </trkpt>
      <trkpt lat="47.06731" lon="2.40687">
        <ele>149</ele>
        <time>2021-08-21T12:45:30Z</time>
      </trkpt>
      <trkpt lat="47.06731" lon="2.40684">
        <ele>149</ele>
        <time>2021-08-21T12:45:30Z</time>
      </trkpt>
      <trkpt lat="47.06732" lon="2.40681">
        <ele>149</ele>
        <time>2021-08-21T12:45:30Z</time>
      </trkpt>
      <trkpt lat="47.06735" lon="2.40679">
        <ele>149</ele>
        <time>2021-08-21T12:45:30Z</time>
      </trkpt>
      <trkpt lat="47.06738" lon="2.40678">
        <ele>149</ele>
        <time>2021-08-21T12:45:30Z</time>
      </trkpt>
      <trkpt lat="47.0676" lon="2.40669">
        <ele>149</ele>
        <time>2021-08-21T12:45:30Z</time>
      </trkpt>
      <trkpt lat="47.06783" lon="2.40656">
        <ele>149</ele>
        <time>2021-08-21T12:45:30Z</time>
      </trkpt>
      <trkpt lat="47.0681" lon="2.40641">
        <ele>148</ele>
        <time>2021-08-21T12:45:30Z</time>
      </trkpt>
      <trkpt lat="47.06841" lon="2.40626">
        <ele>146</ele>
        <time>2021-08-21T12:45:30Z</time>
      </trkpt>
      <trkpt lat="47.06863" lon="2.40614">
        <ele>146</ele>
        <time>2021-08-21T12:45:30Z</time>
      </trkpt>
      <trkpt lat="47.06868" lon="2.406">
        <ele>146</ele>
        <time>2021-08-21T12:45:30Z</time>
      </trkpt>
      <trkpt lat="47.06868" lon="2.40595">
        <ele>146</ele>
        <time>2021-08-21T12:45:30Z</time>
      </trkpt>
      <trkpt lat="47.06867" lon="2.40568">
        <ele>146</ele>
        <time>2021-08-21T12:45:30Z</time>
      </trkpt>
      <trkpt lat="47.06865" lon="2.4056">
        <ele>146</ele>
        <time>2021-08-21T12:45:30Z</time>
      </trkpt>
      <trkpt lat="47.06864" lon="2.40551">
        <ele>145</ele>
        <time>2021-08-21T12:45:30Z</time>
      </trkpt>
      <trkpt lat="47.06863" lon="2.40543">
        <ele>145</ele>
        <time>2021-08-21T12:45:30Z</time>
      </trkpt>
      <trkpt lat="47.06863" lon="2.40535">
        <ele>144</ele>
        <time>2021-08-21T12:45:30Z</time>
      </trkpt>
      <trkpt lat="47.06862" lon="2.40527">
        <ele>143</ele>
        <time>2021-08-21T12:45:30Z</time>
      </trkpt>
      <trkpt lat="47.06861" lon="2.40519">
        <ele>143</ele>
        <time>2021-08-21T12:45:30Z</time>
      </trkpt>
      <trkpt lat="47.06859" lon="2.40511">
        <ele>143</ele>
        <time>2021-08-21T12:45:30Z</time>
      </trkpt>
      <trkpt lat="47.06857" lon="2.40502">
        <ele>143</ele>
        <time>2021-08-21T12:45:30Z</time>
      </trkpt>
      <trkpt lat="47.06856" lon="2.40493">
        <ele>142</ele>
        <time>2021-08-21T12:45:30Z</time>
      </trkpt>
      <trkpt lat="47.06855" lon="2.40484">
        <ele>142</ele>
        <time>2021-08-21T12:45:30Z</time>
      </trkpt>
      <trkpt lat="47.06854" lon="2.40475">
        <ele>142</ele>
        <time>2021-08-21T12:45:30Z</time>
      </trkpt>
      <trkpt lat="47.06852" lon="2.40466">
        <ele>142</ele>
        <time>2021-08-21T12:45:30Z</time>
      </trkpt>
      <trkpt lat="47.0685" lon="2.40457">
        <ele>141</ele>
        <time>2021-08-21T12:45:30Z</time>
      </trkpt>
      <trkpt lat="47.06849" lon="2.40449">
        <ele>141</ele>
        <time>2021-08-21T12:45:30Z</time>
      </trkpt>
      <trkpt lat="47.06842" lon="2.40404">
        <ele>140</ele>
        <time>2021-08-21T12:45:30Z</time>
      </trkpt>
      <trkpt lat="47.06835" lon="2.40359">
        <ele>141</ele>
        <time>2021-08-21T12:45:30Z</time>
      </trkpt>
      <trkpt lat="47.06827" lon="2.40312">
        <ele>140</ele>
        <time>2021-08-21T12:45:30Z</time>
      </trkpt>
      <trkpt lat="47.06824" lon="2.40263">
        <ele>137</ele>
        <time>2021-08-21T12:45:30Z</time>
      </trkpt>
      <trkpt lat="47.06854" lon="2.40234">
        <ele>136</ele>
        <time>2021-08-21T12:45:30Z</time>
      </trkpt>
      <trkpt lat="47.0688" lon="2.40218">
        <ele>137</ele>
        <time>2021-08-21T12:45:30Z</time>
      </trkpt>
      <trkpt lat="47.06887" lon="2.40214">
        <ele>137</ele>
        <time>2021-08-21T12:45:30Z</time>
      </trkpt>
      <trkpt lat="47.06913" lon="2.40195">
        <ele>139</ele>
        <time>2021-08-21T12:45:30Z</time>
      </trkpt>
      <trkpt lat="47.06937" lon="2.40179">
        <ele>142</ele>
        <time>2021-08-21T12:45:30Z</time>
      </trkpt>
      <trkpt lat="47.0696" lon="2.40164">
        <ele>143</ele>
        <time>2021-08-21T12:45:30Z</time>
      </trkpt>
      <trkpt lat="47.06984" lon="2.4015">
        <ele>144</ele>
        <time>2021-08-21T12:45:30Z</time>
      </trkpt>
      <trkpt lat="47.07009" lon="2.40137">
        <ele>145</ele>
        <time>2021-08-21T12:45:30Z</time>
      </trkpt>
      <trkpt lat="47.07025" lon="2.40125">
        <ele>144</ele>
        <time>2021-08-21T12:45:30Z</time>
      </trkpt>
      <trkpt lat="47.07029" lon="2.40121">
        <ele>144</ele>
        <time>2021-08-21T12:45:30Z</time>
      </trkpt>
      <trkpt lat="47.07049" lon="2.40112">
        <ele>144</ele>
        <time>2021-08-21T12:45:30Z</time>
      </trkpt>
      <trkpt lat="47.07056" lon="2.40102">
        <ele>143</ele>
        <time>2021-08-21T12:45:30Z</time>
      </trkpt>
      <trkpt lat="47.07048" lon="2.40072">
        <ele>141</ele>
        <time>2021-08-21T12:45:30Z</time>
      </trkpt>
      <trkpt lat="47.07041" lon="2.40027">
        <ele>138</ele>
        <time>2021-08-21T12:45:30Z</time>
      </trkpt>
      <trkpt lat="47.07047" lon="2.39976">
        <ele>135</ele>
        <time>2021-08-21T12:45:30Z</time>
      </trkpt>
      <trkpt lat="47.07057" lon="2.39939">
        <ele>135</ele>
        <time>2021-08-21T12:45:30Z</time>
      </trkpt>
      <trkpt lat="47.0706" lon="2.3993">
        <ele>135</ele>
        <time>2021-08-21T12:45:30Z</time>
      </trkpt>
      <trkpt lat="47.07063" lon="2.39902">
        <ele>135</ele>
        <time>2021-08-21T12:45:30Z</time>
      </trkpt>
      <trkpt lat="47.07042" lon="2.39893">
        <ele>135</ele>
        <time>2021-08-21T12:45:30Z</time>
      </trkpt>
      <trkpt lat="47.07015" lon="2.39889">
        <ele>135</ele>
        <time>2021-08-21T12:45:30Z</time>
      </trkpt>
      <trkpt lat="47.06985" lon="2.39885">
        <ele>135</ele>
        <time>2021-08-21T12:45:30Z</time>
      </trkpt>
      <trkpt lat="47.06946" lon="2.39884">
        <ele>133</ele>
        <time>2021-08-21T12:45:30Z</time>
      </trkpt>
      <trkpt lat="47.06915" lon="2.39884">
        <ele>133</ele>
        <time>2021-08-21T12:45:30Z</time>
      </trkpt>
      <trkpt lat="47.06908" lon="2.39884">
        <ele>133</ele>
        <time>2021-08-21T12:45:30Z</time>
      </trkpt>
      <trkpt lat="47.06895" lon="2.39884">
        <ele>133</ele>
        <time>2021-08-21T12:45:30Z</time>
      </trkpt>
      <trkpt lat="47.06888" lon="2.39884">
        <ele>132</ele>
        <time>2021-08-21T12:45:30Z</time>
      </trkpt>
      <trkpt lat="47.06882" lon="2.39885">
        <ele>132</ele>
        <time>2021-08-21T12:45:30Z</time>
      </trkpt>
      <trkpt lat="47.06875" lon="2.39887">
        <ele>132</ele>
        <time>2021-08-21T12:45:30Z</time>
      </trkpt>
      <trkpt lat="47.06869" lon="2.39888">
        <ele>132</ele>
        <time>2021-08-21T12:45:30Z</time>
      </trkpt>
      <trkpt lat="47.06862" lon="2.39888">
        <ele>131</ele>
        <time>2021-08-21T12:45:30Z</time>
      </trkpt>
      <trkpt lat="47.06855" lon="2.39889">
        <ele>131</ele>
        <time>2021-08-21T12:45:30Z</time>
      </trkpt>
      <trkpt lat="47.06848" lon="2.3989">
        <ele>131</ele>
        <time>2021-08-21T12:45:30Z</time>
      </trkpt>
      <trkpt lat="47.06842" lon="2.39891">
        <ele>130</ele>
        <time>2021-08-21T12:45:30Z</time>
      </trkpt>
      <trkpt lat="47.06835" lon="2.39892">
        <ele>130</ele>
        <time>2021-08-21T12:45:30Z</time>
      </trkpt>
      <trkpt lat="47.06829" lon="2.39893">
        <ele>130</ele>
        <time>2021-08-21T12:45:30Z</time>
      </trkpt>
      <trkpt lat="47.06822" lon="2.39893">
        <ele>130</ele>
        <time>2021-08-21T12:45:30Z</time>
      </trkpt>
      <trkpt lat="47.06815" lon="2.39895">
        <ele>130</ele>
        <time>2021-08-21T12:45:30Z</time>
      </trkpt>
      <trkpt lat="47.06807" lon="2.39896">
        <ele>130</ele>
        <time>2021-08-21T12:45:30Z</time>
      </trkpt>
      <trkpt lat="47.068" lon="2.39897">
        <ele>130</ele>
        <time>2021-08-21T12:45:30Z</time>
      </trkpt>
      <trkpt lat="47.06793" lon="2.39898">
        <ele>130</ele>
        <time>2021-08-21T12:45:30Z</time>
      </trkpt>
      <trkpt lat="47.06786" lon="2.39898">
        <ele>130</ele>
        <time>2021-08-21T12:45:30Z</time>
      </trkpt>
      <trkpt lat="47.06779" lon="2.39898">
        <ele>130</ele>
        <time>2021-08-21T12:45:30Z</time>
      </trkpt>
      <trkpt lat="47.06773" lon="2.39897">
        <ele>130</ele>
        <time>2021-08-21T12:45:30Z</time>
      </trkpt>
      <trkpt lat="47.06766" lon="2.39897">
        <ele>130</ele>
        <time>2021-08-21T12:45:30Z</time>
      </trkpt>
      <trkpt lat="47.0676" lon="2.39897">
        <ele>129</ele>
        <time>2021-08-21T12:45:30Z</time>
      </trkpt>
      <trkpt lat="47.06754" lon="2.39896">
        <ele>129</ele>
        <time>2021-08-21T12:45:30Z</time>
      </trkpt>
      <trkpt lat="47.06747" lon="2.39895">
        <ele>129</ele>
        <time>2021-08-21T12:45:30Z</time>
      </trkpt>
      <trkpt lat="47.06741" lon="2.39894">
        <ele>129</ele>
        <time>2021-08-21T12:45:30Z</time>
      </trkpt>
      <trkpt lat="47.06736" lon="2.39893">
        <ele>129</ele>
        <time>2021-08-21T12:45:30Z</time>
      </trkpt>
      <trkpt lat="47.0673" lon="2.39893">
        <ele>129</ele>
        <time>2021-08-21T12:45:30Z</time>
      </trkpt>
      <trkpt lat="47.06724" lon="2.39893">
        <ele>129</ele>
        <time>2021-08-21T12:45:30Z</time>
      </trkpt>
      <trkpt lat="47.06718" lon="2.39893">
        <ele>129</ele>
        <time>2021-08-21T12:45:30Z</time>
      </trkpt>
      <trkpt lat="47.06713" lon="2.39893">
        <ele>130</ele>
        <time>2021-08-21T12:45:30Z</time>
      </trkpt>
      <trkpt lat="47.06707" lon="2.39894">
        <ele>130</ele>
        <time>2021-08-21T12:45:30Z</time>
      </trkpt>
      <trkpt lat="47.06701" lon="2.39895">
        <ele>131</ele>
        <time>2021-08-21T12:45:30Z</time>
      </trkpt>
      <trkpt lat="47.06695" lon="2.39897">
        <ele>131</ele>
        <time>2021-08-21T12:45:30Z</time>
      </trkpt>
      <trkpt lat="47.0669" lon="2.39898">
        <ele>131</ele>
        <time>2021-08-21T12:45:30Z</time>
      </trkpt>
      <trkpt lat="47.06684" lon="2.399">
        <ele>131</ele>
        <time>2021-08-21T12:45:30Z</time>
      </trkpt>
      <trkpt lat="47.06679" lon="2.39902">
        <ele>131</ele>
        <time>2021-08-21T12:45:30Z</time>
      </trkpt>
      <trkpt lat="47.06673" lon="2.39905">
        <ele>130</ele>
        <time>2021-08-21T12:45:30Z</time>
      </trkpt>
      <trkpt lat="47.06668" lon="2.39907">
        <ele>130</ele>
        <time>2021-08-21T12:45:30Z</time>
      </trkpt>
      <trkpt lat="47.06662" lon="2.3991">
        <ele>130</ele>
        <time>2021-08-21T12:45:30Z</time>
      </trkpt>
      <trkpt lat="47.06656" lon="2.39911">
        <ele>130</ele>
        <time>2021-08-21T12:45:30Z</time>
      </trkpt>
      <trkpt lat="47.06649" lon="2.39913">
        <ele>130</ele>
        <time>2021-08-21T12:45:30Z</time>
      </trkpt>
      <trkpt lat="47.06643" lon="2.39916">
        <ele>130</ele>
        <time>2021-08-21T12:45:30Z</time>
      </trkpt>
      <trkpt lat="47.06637" lon="2.39918">
        <ele>130</ele>
        <time>2021-08-21T12:45:30Z</time>
      </trkpt>
      <trkpt lat="47.06631" lon="2.39921">
        <ele>130</ele>
        <time>2021-08-21T12:45:30Z</time>
      </trkpt>
      <trkpt lat="47.06625" lon="2.39924">
        <ele>130</ele>
        <time>2021-08-21T12:45:30Z</time>
      </trkpt>
      <trkpt lat="47.0662" lon="2.39927">
        <ele>131</ele>
        <time>2021-08-21T12:45:30Z</time>
      </trkpt>
      <trkpt lat="47.06614" lon="2.39929">
        <ele>131</ele>
        <time>2021-08-21T12:45:30Z</time>
      </trkpt>
      <trkpt lat="47.06608" lon="2.39932">
        <ele>131</ele>
        <time>2021-08-21T12:45:30Z</time>
      </trkpt>
      <trkpt lat="47.06602" lon="2.39932">
        <ele>132</ele>
        <time>2021-08-21T12:45:30Z</time>
      </trkpt>
      <trkpt lat="47.06596" lon="2.39932">
        <ele>132</ele>
        <time>2021-08-21T12:45:30Z</time>
      </trkpt>
      <trkpt lat="47.0659" lon="2.39934">
        <ele>132</ele>
        <time>2021-08-21T12:45:30Z</time>
      </trkpt>
      <trkpt lat="47.06584" lon="2.39934">
        <ele>132</ele>
        <time>2021-08-21T12:45:30Z</time>
      </trkpt>
      <trkpt lat="47.06577" lon="2.39934">
        <ele>133</ele>
        <time>2021-08-21T12:45:30Z</time>
      </trkpt>
      <trkpt lat="47.06571" lon="2.39935">
        <ele>133</ele>
        <time>2021-08-21T12:45:30Z</time>
      </trkpt>
      <trkpt lat="47.06565" lon="2.39936">
        <ele>133</ele>
        <time>2021-08-21T12:45:30Z</time>
      </trkpt>
      <trkpt lat="47.06559" lon="2.39937">
        <ele>133</ele>
        <time>2021-08-21T12:45:30Z</time>
      </trkpt>
      <trkpt lat="47.06553" lon="2.39938">
        <ele>133</ele>
        <time>2021-08-21T12:45:30Z</time>
      </trkpt>
      <trkpt lat="47.06547" lon="2.3994">
        <ele>133</ele>
        <time>2021-08-21T12:45:30Z</time>
      </trkpt>
      <trkpt lat="47.0654" lon="2.39941">
        <ele>133</ele>
        <time>2021-08-21T12:45:30Z</time>
      </trkpt>
      <trkpt lat="47.06534" lon="2.39942">
        <ele>133</ele>
        <time>2021-08-21T12:45:30Z</time>
      </trkpt>
      <trkpt lat="47.06528" lon="2.39942">
        <ele>133</ele>
        <time>2021-08-21T12:45:30Z</time>
      </trkpt>
      <trkpt lat="47.06521" lon="2.39942">
        <ele>134</ele>
        <time>2021-08-21T12:45:30Z</time>
      </trkpt>
      <trkpt lat="47.0649" lon="2.39947">
        <ele>134</ele>
        <time>2021-08-21T12:45:30Z</time>
      </trkpt>
      <trkpt lat="47.06458" lon="2.39955">
        <ele>133</ele>
        <time>2021-08-21T12:45:30Z</time>
      </trkpt>
      <trkpt lat="47.06424" lon="2.39968">
        <ele>131</ele>
        <time>2021-08-21T12:45:30Z</time>
      </trkpt>
      <trkpt lat="47.06388" lon="2.39981">
        <ele>130</ele>
        <time>2021-08-21T12:45:30Z</time>
      </trkpt>
      <trkpt lat="47.06355" lon="2.39998">
        <ele>130</ele>
        <time>2021-08-21T12:45:30Z</time>
      </trkpt>
      <trkpt lat="47.06328" lon="2.40009">
        <ele>131</ele>
        <time>2021-08-21T12:45:30Z</time>
      </trkpt>
      <trkpt lat="47.06323" lon="2.40012">
        <ele>131</ele>
        <time>2021-08-21T12:45:30Z</time>
      </trkpt>
      <trkpt lat="47.06293" lon="2.40028">
        <ele>131</ele>
        <time>2021-08-21T12:45:30Z</time>
      </trkpt>
      <trkpt lat="47.06265" lon="2.40041">
        <ele>132</ele>
        <time>2021-08-21T12:45:30Z</time>
      </trkpt>
      <trkpt lat="47.06238" lon="2.40052">
        <ele>136</ele>
        <time>2021-08-21T12:45:30Z</time>
      </trkpt>
      <trkpt lat="47.06214" lon="2.40063">
        <ele>139</ele>
        <time>2021-08-21T12:45:30Z</time>
      </trkpt>
      <trkpt lat="47.06189" lon="2.40074">
        <ele>137</ele>
        <time>2021-08-21T12:45:30Z</time>
      </trkpt>
      <trkpt lat="47.06168" lon="2.4008">
        <ele>135</ele>
        <time>2021-08-21T12:45:30Z</time>
      </trkpt>
      <trkpt lat="47.06162" lon="2.40081">
        <ele>134</ele>
        <time>2021-08-21T12:45:30Z</time>
      </trkpt>
      <trkpt lat="47.06133" lon="2.40082">
        <ele>131</ele>
        <time>2021-08-21T12:45:30Z</time>
      </trkpt>
      <trkpt lat="47.06105" lon="2.4009">
        <ele>133</ele>
        <time>2021-08-21T12:45:30Z</time>
      </trkpt>
      <trkpt lat="47.06088" lon="2.40106">
        <ele>135</ele>
        <time>2021-08-21T12:45:30Z</time>
      </trkpt>
      <trkpt lat="47.06084" lon="2.40109">
        <ele>135</ele>
        <time>2021-08-21T12:45:30Z</time>
      </trkpt>
      <trkpt lat="47.06068" lon="2.40118">
        <ele>135</ele>
        <time>2021-08-21T12:45:30Z</time>
      </trkpt>
      <trkpt lat="47.06049" lon="2.40133">
        <ele>134</ele>
        <time>2021-08-21T12:45:30Z</time>
      </trkpt>
      <trkpt lat="47.06044" lon="2.40136">
        <ele>134</ele>
        <time>2021-08-21T12:45:30Z</time>
      </trkpt>
      <trkpt lat="47.06034" lon="2.40143">
        <ele>133</ele>
        <time>2021-08-21T12:45:30Z</time>
      </trkpt>
      <trkpt lat="47.06029" lon="2.40146">
        <ele>133</ele>
        <time>2021-08-21T12:45:30Z</time>
      </trkpt>
      <trkpt lat="47.06024" lon="2.4015">
        <ele>133</ele>
        <time>2021-08-21T12:45:30Z</time>
      </trkpt>
      <trkpt lat="47.0602" lon="2.40154">
        <ele>133</ele>
        <time>2021-08-21T12:45:30Z</time>
      </trkpt>
      <trkpt lat="47.06014" lon="2.40158">
        <ele>132</ele>
        <time>2021-08-21T12:45:30Z</time>
      </trkpt>
      <trkpt lat="47.0601" lon="2.40162">
        <ele>132</ele>
        <time>2021-08-21T12:45:30Z</time>
      </trkpt>
      <trkpt lat="47.06004" lon="2.40166">
        <ele>132</ele>
        <time>2021-08-21T12:45:30Z</time>
      </trkpt>
      <trkpt lat="47.05999" lon="2.40171">
        <ele>131</ele>
        <time>2021-08-21T12:45:30Z</time>
      </trkpt>
      <trkpt lat="47.05994" lon="2.40175">
        <ele>131</ele>
        <time>2021-08-21T12:45:30Z</time>
      </trkpt>
      <trkpt lat="47.05989" lon="2.40178">
        <ele>130</ele>
        <time>2021-08-21T12:45:30Z</time>
      </trkpt>
      <trkpt lat="47.05984" lon="2.40183">
        <ele>130</ele>
        <time>2021-08-21T12:45:30Z</time>
      </trkpt>
      <trkpt lat="47.05979" lon="2.40187">
        <ele>129</ele>
        <time>2021-08-21T12:45:30Z</time>
      </trkpt>
      <trkpt lat="47.05974" lon="2.40192">
        <ele>129</ele>
        <time>2021-08-21T12:45:30Z</time>
      </trkpt>
      <trkpt lat="47.05969" lon="2.40197">
        <ele>129</ele>
        <time>2021-08-21T12:45:30Z</time>
      </trkpt>
      <trkpt lat="47.05964" lon="2.40203">
        <ele>129</ele>
        <time>2021-08-21T12:45:30Z</time>
      </trkpt>
      <trkpt lat="47.0596" lon="2.40208">
        <ele>129</ele>
        <time>2021-08-21T12:45:30Z</time>
      </trkpt>
      <trkpt lat="47.05956" lon="2.40214">
        <ele>130</ele>
        <time>2021-08-21T12:45:30Z</time>
      </trkpt>
      <trkpt lat="47.05951" lon="2.4022">
        <ele>130</ele>
        <time>2021-08-21T12:45:30Z</time>
      </trkpt>
      <trkpt lat="47.05947" lon="2.40226">
        <ele>130</ele>
        <time>2021-08-21T12:45:30Z</time>
      </trkpt>
      <trkpt lat="47.05942" lon="2.40233">
        <ele>131</ele>
        <time>2021-08-21T12:45:30Z</time>
      </trkpt>
      <trkpt lat="47.05936" lon="2.40239">
        <ele>132</ele>
        <time>2021-08-21T12:45:30Z</time>
      </trkpt>
      <trkpt lat="47.05932" lon="2.40244">
        <ele>132</ele>
        <time>2021-08-21T12:45:30Z</time>
      </trkpt>
      <trkpt lat="47.05927" lon="2.4025">
        <ele>133</ele>
        <time>2021-08-21T12:45:30Z</time>
      </trkpt>
      <trkpt lat="47.05922" lon="2.40255">
        <ele>133</ele>
        <time>2021-08-21T12:45:30Z</time>
      </trkpt>
      <trkpt lat="47.05917" lon="2.40261">
        <ele>133</ele>
        <time>2021-08-21T12:45:30Z</time>
      </trkpt>
      <trkpt lat="47.05911" lon="2.40266">
        <ele>133</ele>
        <time>2021-08-21T12:45:30Z</time>
      </trkpt>
      <trkpt lat="47.05905" lon="2.40272">
        <ele>133</ele>
        <time>2021-08-21T12:45:30Z</time>
      </trkpt>
      <trkpt lat="47.05899" lon="2.40276">
        <ele>133</ele>
        <time>2021-08-21T12:45:30Z</time>
      </trkpt>
      <trkpt lat="47.05893" lon="2.40282">
        <ele>133</ele>
        <time>2021-08-21T12:45:30Z</time>
      </trkpt>
      <trkpt lat="47.05887" lon="2.40288">
        <ele>133</ele>
        <time>2021-08-21T12:45:30Z</time>
      </trkpt>
      <trkpt lat="47.05881" lon="2.40294">
        <ele>132</ele>
        <time>2021-08-21T12:45:30Z</time>
      </trkpt>
      <trkpt lat="47.05874" lon="2.40299">
        <ele>132</ele>
        <time>2021-08-21T12:45:30Z</time>
      </trkpt>
      <trkpt lat="47.05868" lon="2.40305">
        <ele>131</ele>
        <time>2021-08-21T12:45:30Z</time>
      </trkpt>
      <trkpt lat="47.05862" lon="2.4031">
        <ele>131</ele>
        <time>2021-08-21T12:45:30Z</time>
      </trkpt>
      <trkpt lat="47.05855" lon="2.40313">
        <ele>130</ele>
        <time>2021-08-21T12:45:30Z</time>
      </trkpt>
      <trkpt lat="47.05849" lon="2.40318">
        <ele>130</ele>
        <time>2021-08-21T12:45:30Z</time>
      </trkpt>
      <trkpt lat="47.05843" lon="2.40323">
        <ele>130</ele>
        <time>2021-08-21T12:45:30Z</time>
      </trkpt>
      <trkpt lat="47.05836" lon="2.40326">
        <ele>130</ele>
        <time>2021-08-21T12:45:30Z</time>
      </trkpt>
      <trkpt lat="47.0583" lon="2.40331">
        <ele>130</ele>
        <time>2021-08-21T12:45:30Z</time>
      </trkpt>
      <trkpt lat="47.05823" lon="2.40335">
        <ele>129</ele>
        <time>2021-08-21T12:45:30Z</time>
      </trkpt>
      <trkpt lat="47.05816" lon="2.4034">
        <ele>129</ele>
        <time>2021-08-21T12:45:30Z</time>
      </trkpt>
      <trkpt lat="47.05809" lon="2.40343">
        <ele>129</ele>
        <time>2021-08-21T12:45:30Z</time>
      </trkpt>
      <trkpt lat="47.05803" lon="2.40346">
        <ele>129</ele>
        <time>2021-08-21T12:45:30Z</time>
      </trkpt>
      <trkpt lat="47.05796" lon="2.4035">
        <ele>129</ele>
        <time>2021-08-21T12:45:30Z</time>
      </trkpt>
      <trkpt lat="47.05788" lon="2.40353">
        <ele>129</ele>
        <time>2021-08-21T12:45:30Z</time>
      </trkpt>
      <trkpt lat="47.05782" lon="2.40355">
        <ele>129</ele>
        <time>2021-08-21T12:45:30Z</time>
      </trkpt>
      <trkpt lat="47.05775" lon="2.40358">
        <ele>129</ele>
        <time>2021-08-21T12:45:30Z</time>
      </trkpt>
      <trkpt lat="47.05767" lon="2.40361">
        <ele>129</ele>
        <time>2021-08-21T12:45:30Z</time>
      </trkpt>
      <trkpt lat="47.0576" lon="2.40363">
        <ele>128</ele>
        <time>2021-08-21T12:45:30Z</time>
      </trkpt>
      <trkpt lat="47.05753" lon="2.40366">
        <ele>128</ele>
        <time>2021-08-21T12:45:30Z</time>
      </trkpt>
      <trkpt lat="47.05747" lon="2.40369">
        <ele>129</ele>
        <time>2021-08-21T12:45:30Z</time>
      </trkpt>
      <trkpt lat="47.05741" lon="2.40372">
        <ele>129</ele>
        <time>2021-08-21T12:45:30Z</time>
      </trkpt>
      <trkpt lat="47.05734" lon="2.40375">
        <ele>129</ele>
        <time>2021-08-21T12:45:30Z</time>
      </trkpt>
      <trkpt lat="47.05729" lon="2.40377">
        <ele>130</ele>
        <time>2021-08-21T12:45:30Z</time>
      </trkpt>
      <trkpt lat="47.05723" lon="2.40379">
        <ele>130</ele>
        <time>2021-08-21T12:45:30Z</time>
      </trkpt>
      <trkpt lat="47.05718" lon="2.40381">
        <ele>130</ele>
        <time>2021-08-21T12:45:30Z</time>
      </trkpt>
      <trkpt lat="47.05712" lon="2.40384">
        <ele>129</ele>
        <time>2021-08-21T12:45:30Z</time>
      </trkpt>
      <trkpt lat="47.05706" lon="2.40387">
        <ele>129</ele>
        <time>2021-08-21T12:45:30Z</time>
      </trkpt>
      <trkpt lat="47.057" lon="2.40391">
        <ele>129</ele>
        <time>2021-08-21T12:45:30Z</time>
      </trkpt>
      <trkpt lat="47.05694" lon="2.40394">
        <ele>128</ele>
        <time>2021-08-21T12:45:30Z</time>
      </trkpt>
      <trkpt lat="47.05688" lon="2.40397">
        <ele>128</ele>
        <time>2021-08-21T12:45:30Z</time>
      </trkpt>
      <trkpt lat="47.05659" lon="2.40414">
        <ele>126</ele>
        <time>2021-08-21T12:45:30Z</time>
      </trkpt>
      <trkpt lat="47.0563" lon="2.40432">
        <ele>129</ele>
        <time>2021-08-21T12:45:30Z</time>
      </trkpt>
      <trkpt lat="47.05605" lon="2.40446">
        <ele>129</ele>
        <time>2021-08-21T12:45:30Z</time>
      </trkpt>
      <trkpt lat="47.0558" lon="2.40461">
        <ele>130</ele>
        <time>2021-08-21T12:45:30Z</time>
      </trkpt>
      <trkpt lat="47.0555" lon="2.40477">
        <ele>131</ele>
        <time>2021-08-21T12:45:30Z</time>
      </trkpt>
      <trkpt lat="47.05527" lon="2.4049">
        <ele>129</ele>
        <time>2021-08-21T12:45:30Z</time>
      </trkpt>
      <trkpt lat="47.05521" lon="2.40494">
        <ele>128</ele>
        <time>2021-08-21T12:45:30Z</time>
      </trkpt>
      <trkpt lat="47.05492" lon="2.40508">
        <ele>126</ele>
        <time>2021-08-21T12:45:30Z</time>
      </trkpt>
      <trkpt lat="47.05463" lon="2.40525">
        <ele>126</ele>
        <time>2021-08-21T12:45:30Z</time>
      </trkpt>
      <trkpt lat="47.05432" lon="2.40541">
        <ele>126</ele>
        <time>2021-08-21T12:45:30Z</time>
      </trkpt>
      <trkpt lat="47.05403" lon="2.40549">
        <ele>126</ele>
        <time>2021-08-21T12:45:30Z</time>
      </trkpt>
      <trkpt lat="47.05374" lon="2.40547">
        <ele>127</ele>
        <time>2021-08-21T12:45:30Z</time>
      </trkpt>
      <trkpt lat="47.05357" lon="2.40574">
        <ele>128</ele>
        <time>2021-08-21T12:45:30Z</time>
      </trkpt>
      <trkpt lat="47.05351" lon="2.40577">
        <ele>128</ele>
        <time>2021-08-21T12:45:30Z</time>
      </trkpt>
      <trkpt lat="47.05321" lon="2.40591">
        <ele>129</ele>
        <time>2021-08-21T12:45:30Z</time>
      </trkpt>
      <trkpt lat="47.05291" lon="2.40602">
        <ele>128</ele>
        <time>2021-08-21T12:45:30Z</time>
      </trkpt>
      <trkpt lat="47.0527" lon="2.40611">
        <ele>128</ele>
        <time>2021-08-21T12:45:30Z</time>
      </trkpt>
      <trkpt lat="47.05248" lon="2.40619">
        <ele>130</ele>
        <time>2021-08-21T12:45:30Z</time>
      </trkpt>
      <trkpt lat="47.05243" lon="2.40621">
        <ele>130</ele>
        <time>2021-08-21T12:45:30Z</time>
      </trkpt>
      <trkpt lat="47.05237" lon="2.40623">
        <ele>130</ele>
        <time>2021-08-21T12:45:30Z</time>
      </trkpt>
      <trkpt lat="47.05232" lon="2.40626">
        <ele>130</ele>
        <time>2021-08-21T12:45:30Z</time>
      </trkpt>
      <trkpt lat="47.05227" lon="2.40628">
        <ele>130</ele>
        <time>2021-08-21T12:45:30Z</time>
      </trkpt>
      <trkpt lat="47.05221" lon="2.40631">
        <ele>130</ele>
        <time>2021-08-21T12:45:30Z</time>
      </trkpt>
      <trkpt lat="47.05216" lon="2.40633">
        <ele>130</ele>
        <time>2021-08-21T12:45:30Z</time>
      </trkpt>
      <trkpt lat="47.0521" lon="2.40635">
        <ele>130</ele>
        <time>2021-08-21T12:45:30Z</time>
      </trkpt>
      <trkpt lat="47.05181" lon="2.40647">
        <ele>129</ele>
        <time>2021-08-21T12:45:30Z</time>
      </trkpt>
      <trkpt lat="47.05151" lon="2.40659">
        <ele>129</ele>
        <time>2021-08-21T12:45:30Z</time>
      </trkpt>
      <trkpt lat="47.05121" lon="2.40672">
        <ele>130</ele>
        <time>2021-08-21T12:45:30Z</time>
      </trkpt>
      <trkpt lat="47.05091" lon="2.40686">
        <ele>130</ele>
        <time>2021-08-21T12:45:30Z</time>
      </trkpt>
      <trkpt lat="47.05062" lon="2.40706">
        <ele>131</ele>
        <time>2021-08-21T12:45:30Z</time>
      </trkpt>
      <trkpt lat="47.0504" lon="2.40727">
        <ele>131</ele>
        <time>2021-08-21T12:45:30Z</time>
      </trkpt>
      <trkpt lat="47.05035" lon="2.40732">
        <ele>131</ele>
        <time>2021-08-21T12:45:30Z</time>
      </trkpt>
      <trkpt lat="47.05011" lon="2.40763">
        <ele>129</ele>
        <time>2021-08-21T12:45:30Z</time>
      </trkpt>
      <trkpt lat="47.04988" lon="2.40796">
        <ele>128</ele>
        <time>2021-08-21T12:45:30Z</time>
      </trkpt>
      <trkpt lat="47.04964" lon="2.40827">
        <ele>127</ele>
        <time>2021-08-21T12:45:30Z</time>
      </trkpt>
      <trkpt lat="47.04938" lon="2.40855">
        <ele>127</ele>
        <time>2021-08-21T12:45:30Z</time>
      </trkpt>
      <trkpt lat="47.0491" lon="2.4088">
        <ele>127</ele>
        <time>2021-08-21T12:45:30Z</time>
      </trkpt>
      <trkpt lat="47.04887" lon="2.40896">
        <ele>129</ele>
        <time>2021-08-21T12:45:30Z</time>
      </trkpt>
      <trkpt lat="47.04882" lon="2.40899">
        <ele>129</ele>
        <time>2021-08-21T12:45:30Z</time>
      </trkpt>
      <trkpt lat="47.04852" lon="2.40922">
        <ele>131</ele>
        <time>2021-08-21T12:45:30Z</time>
      </trkpt>
      <trkpt lat="47.04821" lon="2.40941">
        <ele>131</ele>
        <time>2021-08-21T12:45:30Z</time>
      </trkpt>
      <trkpt lat="47.04789" lon="2.40959">
        <ele>131</ele>
        <time>2021-08-21T12:45:30Z</time>
      </trkpt>
      <trkpt lat="47.04758" lon="2.40976">
        <ele>131</ele>
        <time>2021-08-21T12:45:30Z</time>
      </trkpt>
      <trkpt lat="47.04728" lon="2.40989">
        <ele>131</ele>
        <time>2021-08-21T12:45:30Z</time>
      </trkpt>
      <trkpt lat="47.04703" lon="2.40998">
        <ele>130</ele>
        <time>2021-08-21T12:45:30Z</time>
      </trkpt>
      <trkpt lat="47.04697" lon="2.41">
        <ele>130</ele>
        <time>2021-08-21T12:45:30Z</time>
      </trkpt>
      <trkpt lat="47.04667" lon="2.41014">
        <ele>129</ele>
        <time>2021-08-21T12:45:30Z</time>
      </trkpt>
      <trkpt lat="47.04635" lon="2.41026">
        <ele>130</ele>
        <time>2021-08-21T12:45:30Z</time>
      </trkpt>
      <trkpt lat="47.04604" lon="2.41038">
        <ele>130</ele>
        <time>2021-08-21T12:45:30Z</time>
      </trkpt>
      <trkpt lat="47.04572" lon="2.41048">
        <ele>130</ele>
        <time>2021-08-21T12:45:30Z</time>
      </trkpt>
      <trkpt lat="47.04539" lon="2.4105">
        <ele>131</ele>
        <time>2021-08-21T12:45:30Z</time>
      </trkpt>
      <trkpt lat="47.04514" lon="2.41041">
        <ele>131</ele>
        <time>2021-08-21T12:45:30Z</time>
      </trkpt>
      <trkpt lat="47.04507" lon="2.41038">
        <ele>131</ele>
        <time>2021-08-21T12:45:30Z</time>
      </trkpt>
      <trkpt lat="47.04477" lon="2.41027">
        <ele>132</ele>
        <time>2021-08-21T12:45:30Z</time>
      </trkpt>
      <trkpt lat="47.0445" lon="2.41008">
        <ele>132</ele>
        <time>2021-08-21T12:45:30Z</time>
      </trkpt>
      <trkpt lat="47.04429" lon="2.40974">
        <ele>132</ele>
        <time>2021-08-21T12:45:30Z</time>
      </trkpt>
      <trkpt lat="47.04414" lon="2.40934">
        <ele>132</ele>
        <time>2021-08-21T12:45:30Z</time>
      </trkpt>
      <trkpt lat="47.04401" lon="2.40892">
        <ele>132</ele>
        <time>2021-08-21T12:45:30Z</time>
      </trkpt>
      <trkpt lat="47.04386" lon="2.40863">
        <ele>132</ele>
        <time>2021-08-21T12:45:30Z</time>
      </trkpt>
      <trkpt lat="47.04383" lon="2.40857">
        <ele>132</ele>
        <time>2021-08-21T12:45:30Z</time>
      </trkpt>
      <trkpt lat="47.04379" lon="2.4085">
        <ele>132</ele>
        <time>2021-08-21T12:45:30Z</time>
      </trkpt>
      <trkpt lat="47.04378" lon="2.40847">
        <ele>132</ele>
        <time>2021-08-21T12:45:30Z</time>
      </trkpt>
      <trkpt lat="47.04378" lon="2.40845">
        <ele>132</ele>
        <time>2021-08-21T12:45:30Z</time>
      </trkpt>
      <trkpt lat="47.04376" lon="2.40843">
        <ele>132</ele>
        <time>2021-08-21T12:45:30Z</time>
      </trkpt>
      <trkpt lat="47.04376" lon="2.40843">
        <ele>132</ele>
        <time>2021-08-21T12:45:30Z</time>
      </trkpt>
      <trkpt lat="47.04375" lon="2.40843">
        <ele>132</ele>
        <time>2021-08-21T12:45:30Z</time>
      </trkpt>
      <trkpt lat="47.04376" lon="2.40843">
        <ele>132</ele>
        <time>2021-08-21T12:45:30Z</time>
      </trkpt>
      <trkpt lat="47.04376" lon="2.40842">
        <ele>132</ele>
        <time>2021-08-21T12:45:30Z</time>
      </trkpt>
      <trkpt lat="47.04376" lon="2.40843">
        <ele>132</ele>
        <time>2021-08-21T12:45:30Z</time>
      </trkpt>
      <trkpt lat="47.04375" lon="2.40843">
        <ele>132</ele>
        <time>2021-08-21T12:45:30Z</time>
      </trkpt>
      <trkpt lat="47.04375" lon="2.40842">
        <ele>132</ele>
        <time>2021-08-21T12:45:30Z</time>
      </trkpt>
      <trkpt lat="47.04375" lon="2.40843">
        <ele>132</ele>
        <time>2021-08-21T12:45:30Z</time>
      </trkpt>
      <trkpt lat="47.04375" lon="2.40843">
        <ele>132</ele>
        <time>2021-08-21T12:45:30Z</time>
      </trkpt>
      <trkpt lat="47.04375" lon="2.40843">
        <ele>132</ele>
        <time>2021-08-21T12:45:30Z</time>
      </trkpt>
      <trkpt lat="47.04375" lon="2.40843">
        <ele>132</ele>
        <time>2021-08-21T12:45:30Z</time>
      </trkpt>
      <trkpt lat="47.04375" lon="2.40842">
        <ele>132</ele>
        <time>2021-08-21T12:45:30Z</time>
      </trkpt>
      <trkpt lat="47.04375" lon="2.40842">
        <ele>132</ele>
        <time>2021-08-21T12:45:30Z</time>
      </trkpt>
      <trkpt lat="47.04376" lon="2.40842">
        <ele>132</ele>
        <time>2021-08-21T12:45:30Z</time>
      </trkpt>
      <trkpt lat="47.04376" lon="2.40842">
        <ele>132</ele>
        <time>2021-08-21T12:45:30Z</time>
      </trkpt>
      <trkpt lat="47.04376" lon="2.40842">
        <ele>132</ele>
        <time>2021-08-21T12:45:30Z</time>
      </trkpt>
      <trkpt lat="47.04375" lon="2.40842">
        <ele>132</ele>
        <time>2021-08-21T12:45:30Z</time>
      </trkpt>
      <trkpt lat="47.04374" lon="2.40841">
        <ele>132</ele>
        <time>2021-08-21T12:45:30Z</time>
      </trkpt>
      <trkpt lat="47.04374" lon="2.40842">
        <ele>132</ele>
        <time>2021-08-21T12:45:30Z</time>
      </trkpt>
      <trkpt lat="47.04373" lon="2.40842">
        <ele>132</ele>
        <time>2021-08-21T12:45:30Z</time>
      </trkpt>
      <trkpt lat="47.04371" lon="2.4084">
        <ele>132</ele>
        <time>2021-08-21T12:45:30Z</time>
      </trkpt>
      <trkpt lat="47.04357" lon="2.40821">
        <ele>132</ele>
        <time>2021-08-21T12:45:30Z</time>
      </trkpt>
      <trkpt lat="47.04333" lon="2.408">
        <ele>132</ele>
        <time>2021-08-21T12:45:30Z</time>
      </trkpt>
      <trkpt lat="47.0431" lon="2.40781">
        <ele>132</ele>
        <time>2021-08-21T12:45:30Z</time>
      </trkpt>
      <trkpt lat="47.04304" lon="2.40777">
        <ele>131</ele>
        <time>2021-08-21T12:45:30Z</time>
      </trkpt>
      <trkpt lat="47.04274" lon="2.40755">
        <ele>127</ele>
        <time>2021-08-21T12:45:30Z</time>
      </trkpt>
      <trkpt lat="47.04243" lon="2.40732">
        <ele>127</ele>
        <time>2021-08-21T12:45:30Z</time>
      </trkpt>
      <trkpt lat="47.04213" lon="2.40708">
        <ele>128</ele>
        <time>2021-08-21T12:45:30Z</time>
      </trkpt>
      <trkpt lat="47.04184" lon="2.40688">
        <ele>128</ele>
        <time>2021-08-21T12:45:30Z</time>
      </trkpt>
      <trkpt lat="47.04156" lon="2.40666">
        <ele>130</ele>
        <time>2021-08-21T12:45:30Z</time>
      </trkpt>
      <trkpt lat="47.04136" lon="2.4065">
        <ele>131</ele>
        <time>2021-08-21T12:45:30Z</time>
      </trkpt>
      <trkpt lat="47.04131" lon="2.40646">
        <ele>131</ele>
        <time>2021-08-21T12:45:30Z</time>
      </trkpt>
      <trkpt lat="47.04107" lon="2.40626">
        <ele>131</ele>
        <time>2021-08-21T12:45:30Z</time>
      </trkpt>
      <trkpt lat="47.04081" lon="2.40606">
        <ele>131</ele>
        <time>2021-08-21T12:45:30Z</time>
      </trkpt>
      <trkpt lat="47.04055" lon="2.40586">
        <ele>133</ele>
        <time>2021-08-21T12:45:30Z</time>
      </trkpt>
      <trkpt lat="47.04029" lon="2.40567">
        <ele>134</ele>
        <time>2021-08-21T12:45:30Z</time>
      </trkpt>
      <trkpt lat="47.04003" lon="2.40548">
        <ele>136</ele>
        <time>2021-08-21T12:45:30Z</time>
      </trkpt>
      <trkpt lat="47.03984" lon="2.40533">
        <ele>138</ele>
        <time>2021-08-21T12:45:30Z</time>
      </trkpt>
      <trkpt lat="47.03979" lon="2.40529">
        <ele>138</ele>
        <time>2021-08-21T12:45:30Z</time>
      </trkpt>
      <trkpt lat="47.03954" lon="2.40509">
        <ele>139</ele>
        <time>2021-08-21T12:45:30Z</time>
      </trkpt>
      <trkpt lat="47.03928" lon="2.4049">
        <ele>140</ele>
        <time>2021-08-21T12:45:30Z</time>
      </trkpt>
      <trkpt lat="47.03901" lon="2.40471">
        <ele>142</ele>
        <time>2021-08-21T12:45:30Z</time>
      </trkpt>
      <trkpt lat="47.03874" lon="2.4045">
        <ele>143</ele>
        <time>2021-08-21T12:45:30Z</time>
      </trkpt>
      <trkpt lat="47.03848" lon="2.40431">
        <ele>144</ele>
        <time>2021-08-21T12:45:30Z</time>
      </trkpt>
      <trkpt lat="47.03827" lon="2.40414">
        <ele>143</ele>
        <time>2021-08-21T12:45:30Z</time>
      </trkpt>
      <trkpt lat="47.03822" lon="2.4041">
        <ele>143</ele>
        <time>2021-08-21T12:45:30Z</time>
      </trkpt>
      <trkpt lat="47.03794" lon="2.40389">
        <ele>143</ele>
        <time>2021-08-21T12:45:30Z</time>
      </trkpt>
      <trkpt lat="47.03765" lon="2.40366">
        <ele>143</ele>
        <time>2021-08-21T12:45:30Z</time>
      </trkpt>
      <trkpt lat="47.03734" lon="2.40343">
        <ele>142</ele>
        <time>2021-08-21T12:45:30Z</time>
      </trkpt>
      <trkpt lat="47.03701" lon="2.40318">
        <ele>139</ele>
        <time>2021-08-21T12:45:30Z</time>
      </trkpt>
      <trkpt lat="47.03666" lon="2.40292">
        <ele>136</ele>
        <time>2021-08-21T12:45:30Z</time>
      </trkpt>
      <trkpt lat="47.03636" lon="2.40269">
        <ele>135</ele>
        <time>2021-08-21T12:45:30Z</time>
      </trkpt>
      <trkpt lat="47.03629" lon="2.40264">
        <ele>135</ele>
        <time>2021-08-21T12:45:30Z</time>
      </trkpt>
      <trkpt lat="47.03621" lon="2.40258">
        <ele>135</ele>
        <time>2021-08-21T12:45:30Z</time>
      </trkpt>
      <trkpt lat="47.03614" lon="2.40252">
        <ele>135</ele>
        <time>2021-08-21T12:45:30Z</time>
      </trkpt>
      <trkpt lat="47.03606" lon="2.40246">
        <ele>134</ele>
        <time>2021-08-21T12:45:30Z</time>
      </trkpt>
      <trkpt lat="47.03599" lon="2.40241">
        <ele>134</ele>
        <time>2021-08-21T12:45:30Z</time>
      </trkpt>
      <trkpt lat="47.03592" lon="2.40236">
        <ele>134</ele>
        <time>2021-08-21T12:45:30Z</time>
      </trkpt>
      <trkpt lat="47.03585" lon="2.4023">
        <ele>134</ele>
        <time>2021-08-21T12:45:30Z</time>
      </trkpt>
      <trkpt lat="47.03578" lon="2.40224">
        <ele>133</ele>
        <time>2021-08-21T12:45:30Z</time>
      </trkpt>
      <trkpt lat="47.03571" lon="2.40217">
        <ele>133</ele>
        <time>2021-08-21T12:45:30Z</time>
      </trkpt>
      <trkpt lat="47.03566" lon="2.40209">
        <ele>133</ele>
        <time>2021-08-21T12:45:30Z</time>
      </trkpt>
      <trkpt lat="47.03562" lon="2.40198">
        <ele>133</ele>
        <time>2021-08-21T12:45:30Z</time>
      </trkpt>
      <trkpt lat="47.03561" lon="2.40188">
        <ele>133</ele>
        <time>2021-08-21T12:45:30Z</time>
      </trkpt>
      <trkpt lat="47.03562" lon="2.40177">
        <ele>133</ele>
        <time>2021-08-21T12:45:30Z</time>
      </trkpt>
      <trkpt lat="47.03563" lon="2.40167">
        <ele>133</ele>
        <time>2021-08-21T12:45:30Z</time>
      </trkpt>
      <trkpt lat="47.03565" lon="2.40156">
        <ele>132</ele>
        <time>2021-08-21T12:45:30Z</time>
      </trkpt>
      <trkpt lat="47.03567" lon="2.40145">
        <ele>132</ele>
        <time>2021-08-21T12:45:30Z</time>
      </trkpt>
      <trkpt lat="47.03569" lon="2.40134">
        <ele>132</ele>
        <time>2021-08-21T12:45:30Z</time>
      </trkpt>
      <trkpt lat="47.03571" lon="2.40124">
        <ele>133</ele>
        <time>2021-08-21T12:45:30Z</time>
      </trkpt>
      <trkpt lat="47.03573" lon="2.40114">
        <ele>133</ele>
        <time>2021-08-21T12:45:30Z</time>
      </trkpt>
      <trkpt lat="47.03575" lon="2.40104">
        <ele>133</ele>
        <time>2021-08-21T12:45:30Z</time>
      </trkpt>
      <trkpt lat="47.03577" lon="2.40093">
        <ele>134</ele>
        <time>2021-08-21T12:45:30Z</time>
      </trkpt>
      <trkpt lat="47.03579" lon="2.40083">
        <ele>134</ele>
        <time>2021-08-21T12:45:30Z</time>
      </trkpt>
      <trkpt lat="47.0358" lon="2.40073">
        <ele>134</ele>
        <time>2021-08-21T12:45:30Z</time>
      </trkpt>
      <trkpt lat="47.03583" lon="2.40062">
        <ele>134</ele>
        <time>2021-08-21T12:45:30Z</time>
      </trkpt>
      <trkpt lat="47.03584" lon="2.4005">
        <ele>133</ele>
        <time>2021-08-21T12:45:30Z</time>
      </trkpt>
      <trkpt lat="47.03586" lon="2.4004">
        <ele>133</ele>
        <time>2021-08-21T12:45:30Z</time>
      </trkpt>
      <trkpt lat="47.03588" lon="2.4003">
        <ele>133</ele>
        <time>2021-08-21T12:45:30Z</time>
      </trkpt>
      <trkpt lat="47.0359" lon="2.40019">
        <ele>133</ele>
        <time>2021-08-21T12:45:30Z</time>
      </trkpt>
      <trkpt lat="47.03592" lon="2.40009">
        <ele>133</ele>
        <time>2021-08-21T12:45:30Z</time>
      </trkpt>
      <trkpt lat="47.03595" lon="2.39998">
        <ele>133</ele>
        <time>2021-08-21T12:45:30Z</time>
      </trkpt>
      <trkpt lat="47.03597" lon="2.39987">
        <ele>133</ele>
        <time>2021-08-21T12:45:30Z</time>
      </trkpt>
      <trkpt lat="47.03599" lon="2.39977">
        <ele>133</ele>
        <time>2021-08-21T12:45:30Z</time>
      </trkpt>
      <trkpt lat="47.03601" lon="2.39967">
        <ele>133</ele>
        <time>2021-08-21T12:45:30Z</time>
      </trkpt>
      <trkpt lat="47.03602" lon="2.39956">
        <ele>133</ele>
        <time>2021-08-21T12:45:30Z</time>
      </trkpt>
      <trkpt lat="47.03604" lon="2.39946">
        <ele>133</ele>
        <time>2021-08-21T12:45:30Z</time>
      </trkpt>
      <trkpt lat="47.03606" lon="2.39935">
        <ele>133</ele>
        <time>2021-08-21T12:45:30Z</time>
      </trkpt>
      <trkpt lat="47.03608" lon="2.39925">
        <ele>133</ele>
        <time>2021-08-21T12:45:30Z</time>
      </trkpt>
      <trkpt lat="47.03609" lon="2.39914">
        <ele>132</ele>
        <time>2021-08-21T12:45:30Z</time>
      </trkpt>
      <trkpt lat="47.0361" lon="2.39904">
        <ele>132</ele>
        <time>2021-08-21T12:45:30Z</time>
      </trkpt>
      <trkpt lat="47.0361" lon="2.39894">
        <ele>132</ele>
        <time>2021-08-21T12:45:30Z</time>
      </trkpt>
      <trkpt lat="47.03609" lon="2.39884">
        <ele>133</ele>
        <time>2021-08-21T12:45:30Z</time>
      </trkpt>
      <trkpt lat="47.03608" lon="2.39874">
        <ele>133</ele>
        <time>2021-08-21T12:45:30Z</time>
      </trkpt>
      <trkpt lat="47.03607" lon="2.39864">
        <ele>133</ele>
        <time>2021-08-21T12:45:30Z</time>
      </trkpt>
      <trkpt lat="47.03605" lon="2.39855">
        <ele>133</ele>
        <time>2021-08-21T12:45:30Z</time>
      </trkpt>
      <trkpt lat="47.03604" lon="2.39846">
        <ele>133</ele>
        <time>2021-08-21T12:45:30Z</time>
      </trkpt>
      <trkpt lat="47.03602" lon="2.39838">
        <ele>133</ele>
        <time>2021-08-21T12:45:30Z</time>
      </trkpt>
      <trkpt lat="47.036" lon="2.39829">
        <ele>133</ele>
        <time>2021-08-21T12:45:30Z</time>
      </trkpt>
      <trkpt lat="47.03598" lon="2.3982">
        <ele>134</ele>
        <time>2021-08-21T12:45:30Z</time>
      </trkpt>
      <trkpt lat="47.03597" lon="2.39812">
        <ele>134</ele>
        <time>2021-08-21T12:45:30Z</time>
      </trkpt>
      <trkpt lat="47.03595" lon="2.39802">
        <ele>135</ele>
        <time>2021-08-21T12:45:30Z</time>
      </trkpt>
      <trkpt lat="47.03593" lon="2.39793">
        <ele>135</ele>
        <time>2021-08-21T12:45:30Z</time>
      </trkpt>
      <trkpt lat="47.03592" lon="2.39784">
        <ele>135</ele>
        <time>2021-08-21T12:45:30Z</time>
      </trkpt>
      <trkpt lat="47.0359" lon="2.39774">
        <ele>135</ele>
        <time>2021-08-21T12:45:30Z</time>
      </trkpt>
      <trkpt lat="47.03589" lon="2.39765">
        <ele>136</ele>
        <time>2021-08-21T12:45:30Z</time>
      </trkpt>
      <trkpt lat="47.03587" lon="2.39756">
        <ele>136</ele>
        <time>2021-08-21T12:45:30Z</time>
      </trkpt>
      <trkpt lat="47.03585" lon="2.39746">
        <ele>137</ele>
        <time>2021-08-21T12:45:30Z</time>
      </trkpt>
      <trkpt lat="47.03583" lon="2.39738">
        <ele>137</ele>
        <time>2021-08-21T12:45:30Z</time>
      </trkpt>
      <trkpt lat="47.03581" lon="2.39728">
        <ele>137</ele>
        <time>2021-08-21T12:45:30Z</time>
      </trkpt>
      <trkpt lat="47.0358" lon="2.39719">
        <ele>138</ele>
        <time>2021-08-21T12:45:30Z</time>
      </trkpt>
      <trkpt lat="47.03578" lon="2.3971">
        <ele>138</ele>
        <time>2021-08-21T12:45:30Z</time>
      </trkpt>
      <trkpt lat="47.03576" lon="2.39701">
        <ele>138</ele>
        <time>2021-08-21T12:45:30Z</time>
      </trkpt>
      <trkpt lat="47.03575" lon="2.39692">
        <ele>139</ele>
        <time>2021-08-21T12:45:30Z</time>
      </trkpt>
      <trkpt lat="47.03566" lon="2.39649">
        <ele>138</ele>
        <time>2021-08-21T12:45:30Z</time>
      </trkpt>
      <trkpt lat="47.03558" lon="2.39604">
        <ele>138</ele>
        <time>2021-08-21T12:45:30Z</time>
      </trkpt>
      <trkpt lat="47.0355" lon="2.39561">
        <ele>138</ele>
        <time>2021-08-21T12:45:30Z</time>
      </trkpt>
      <trkpt lat="47.03541" lon="2.39515">
        <ele>138</ele>
        <time>2021-08-21T12:45:30Z</time>
      </trkpt>
      <trkpt lat="47.03533" lon="2.39469">
        <ele>138</ele>
        <time>2021-08-21T12:45:30Z</time>
      </trkpt>
      <trkpt lat="47.03527" lon="2.39435">
        <ele>138</ele>
        <time>2021-08-21T12:45:30Z</time>
      </trkpt>
      <trkpt lat="47.03525" lon="2.39426">
        <ele>138</ele>
        <time>2021-08-21T12:45:30Z</time>
      </trkpt>
      <trkpt lat="47.03516" lon="2.39382">
        <ele>138</ele>
        <time>2021-08-21T12:45:30Z</time>
      </trkpt>
      <trkpt lat="47.03507" lon="2.39337">
        <ele>140</ele>
        <time>2021-08-21T12:45:30Z</time>
      </trkpt>
      <trkpt lat="47.03498" lon="2.39293">
        <ele>141</ele>
        <time>2021-08-21T12:45:30Z</time>
      </trkpt>
      <trkpt lat="47.0349" lon="2.3925">
        <ele>142</ele>
        <time>2021-08-21T12:45:30Z</time>
      </trkpt>
      <trkpt lat="47.03482" lon="2.39205">
        <ele>144</ele>
        <time>2021-08-21T12:45:30Z</time>
      </trkpt>
      <trkpt lat="47.03475" lon="2.3917">
        <ele>145</ele>
        <time>2021-08-21T12:45:30Z</time>
      </trkpt>
      <trkpt lat="47.03474" lon="2.39161">
        <ele>145</ele>
        <time>2021-08-21T12:45:30Z</time>
      </trkpt>
      <trkpt lat="47.03466" lon="2.39117">
        <ele>145</ele>
        <time>2021-08-21T12:45:30Z</time>
      </trkpt>
      <trkpt lat="47.03458" lon="2.39073">
        <ele>145</ele>
        <time>2021-08-21T12:45:30Z</time>
      </trkpt>
      <trkpt lat="47.03453" lon="2.39028">
        <ele>146</ele>
        <time>2021-08-21T12:45:30Z</time>
      </trkpt>
      <trkpt lat="47.03448" lon="2.38989">
        <ele>146</ele>
        <time>2021-08-21T12:45:30Z</time>
      </trkpt>
      <trkpt lat="47.03445" lon="2.3895">
        <ele>146</ele>
        <time>2021-08-21T12:45:30Z</time>
      </trkpt>
      <trkpt lat="47.03431" lon="2.38929">
        <ele>148</ele>
        <time>2021-08-21T12:45:30Z</time>
      </trkpt>
      <trkpt lat="47.03425" lon="2.38927">
        <ele>148</ele>
        <time>2021-08-21T12:45:30Z</time>
      </trkpt>
      <trkpt lat="47.03412" lon="2.38928">
        <ele>149</ele>
        <time>2021-08-21T12:45:30Z</time>
      </trkpt>
      <trkpt lat="47.03406" lon="2.38929">
        <ele>149</ele>
        <time>2021-08-21T12:45:30Z</time>
      </trkpt>
      <trkpt lat="47.034" lon="2.3893">
        <ele>150</ele>
        <time>2021-08-21T12:45:30Z</time>
      </trkpt>
      <trkpt lat="47.03393" lon="2.38932">
        <ele>150</ele>
        <time>2021-08-21T12:45:30Z</time>
      </trkpt>
      <trkpt lat="47.03387" lon="2.38934">
        <ele>150</ele>
        <time>2021-08-21T12:45:30Z</time>
      </trkpt>
      <trkpt lat="47.03381" lon="2.38935">
        <ele>150</ele>
        <time>2021-08-21T12:45:30Z</time>
      </trkpt>
      <trkpt lat="47.03374" lon="2.38936">
        <ele>149</ele>
        <time>2021-08-21T12:45:30Z</time>
      </trkpt>
      <trkpt lat="47.03368" lon="2.38937">
        <ele>149</ele>
        <time>2021-08-21T12:45:30Z</time>
      </trkpt>
      <trkpt lat="47.03362" lon="2.38938">
        <ele>149</ele>
        <time>2021-08-21T12:45:30Z</time>
      </trkpt>
      <trkpt lat="47.03355" lon="2.38939">
        <ele>148</ele>
        <time>2021-08-21T12:45:30Z</time>
      </trkpt>
      <trkpt lat="47.03349" lon="2.3894">
        <ele>148</ele>
        <time>2021-08-21T12:45:30Z</time>
      </trkpt>
      <trkpt lat="47.03342" lon="2.38941">
        <ele>148</ele>
        <time>2021-08-21T12:45:30Z</time>
      </trkpt>
      <trkpt lat="47.03336" lon="2.38941">
        <ele>148</ele>
        <time>2021-08-21T12:45:30Z</time>
      </trkpt>
      <trkpt lat="47.0333" lon="2.38943">
        <ele>148</ele>
        <time>2021-08-21T12:45:30Z</time>
      </trkpt>
      <trkpt lat="47.03323" lon="2.38944">
        <ele>148</ele>
        <time>2021-08-21T12:45:30Z</time>
      </trkpt>
      <trkpt lat="47.03317" lon="2.38945">
        <ele>148</ele>
        <time>2021-08-21T12:45:30Z</time>
      </trkpt>
      <trkpt lat="47.0331" lon="2.38946">
        <ele>148</ele>
        <time>2021-08-21T12:45:30Z</time>
      </trkpt>
      <trkpt lat="47.03304" lon="2.38947">
        <ele>148</ele>
        <time>2021-08-21T12:45:30Z</time>
      </trkpt>
      <trkpt lat="47.03297" lon="2.38948">
        <ele>148</ele>
        <time>2021-08-21T12:45:30Z</time>
      </trkpt>
      <trkpt lat="47.0329" lon="2.38949">
        <ele>148</ele>
        <time>2021-08-21T12:45:30Z</time>
      </trkpt>
      <trkpt lat="47.03283" lon="2.38949">
        <ele>148</ele>
        <time>2021-08-21T12:45:30Z</time>
      </trkpt>
      <trkpt lat="47.03276" lon="2.38951">
        <ele>148</ele>
        <time>2021-08-21T12:45:30Z</time>
      </trkpt>
      <trkpt lat="47.03269" lon="2.38951">
        <ele>148</ele>
        <time>2021-08-21T12:45:30Z</time>
      </trkpt>
      <trkpt lat="47.03262" lon="2.38952">
        <ele>148</ele>
        <time>2021-08-21T12:45:30Z</time>
      </trkpt>
      <trkpt lat="47.03255" lon="2.38953">
        <ele>147</ele>
        <time>2021-08-21T12:45:30Z</time>
      </trkpt>
      <trkpt lat="47.03248" lon="2.38954">
        <ele>147</ele>
        <time>2021-08-21T12:45:30Z</time>
      </trkpt>
      <trkpt lat="47.03241" lon="2.38955">
        <ele>147</ele>
        <time>2021-08-21T12:45:30Z</time>
      </trkpt>
      <trkpt lat="47.03233" lon="2.38956">
        <ele>147</ele>
        <time>2021-08-21T12:45:30Z</time>
      </trkpt>
      <trkpt lat="47.03226" lon="2.38957">
        <ele>147</ele>
        <time>2021-08-21T12:45:30Z</time>
      </trkpt>
      <trkpt lat="47.03219" lon="2.38957">
        <ele>147</ele>
        <time>2021-08-21T12:45:30Z</time>
      </trkpt>
      <trkpt lat="47.03212" lon="2.38958">
        <ele>147</ele>
        <time>2021-08-21T12:45:30Z</time>
      </trkpt>
      <trkpt lat="47.03204" lon="2.38959">
        <ele>147</ele>
        <time>2021-08-21T12:45:30Z</time>
      </trkpt>
      <trkpt lat="47.03197" lon="2.3896">
        <ele>147</ele>
        <time>2021-08-21T12:45:30Z</time>
      </trkpt>
      <trkpt lat="47.0319" lon="2.38962">
        <ele>147</ele>
        <time>2021-08-21T12:45:30Z</time>
      </trkpt>
      <trkpt lat="47.03183" lon="2.38962">
        <ele>147</ele>
        <time>2021-08-21T12:45:30Z</time>
      </trkpt>
      <trkpt lat="47.03176" lon="2.38963">
        <ele>147</ele>
        <time>2021-08-21T12:45:30Z</time>
      </trkpt>
      <trkpt lat="47.03169" lon="2.38964">
        <ele>147</ele>
        <time>2021-08-21T12:45:30Z</time>
      </trkpt>
      <trkpt lat="47.03163" lon="2.38964">
        <ele>148</ele>
        <time>2021-08-21T12:45:30Z</time>
      </trkpt>
      <trkpt lat="47.03156" lon="2.38965">
        <ele>148</ele>
        <time>2021-08-21T12:45:30Z</time>
      </trkpt>
      <trkpt lat="47.03149" lon="2.38966">
        <ele>148</ele>
        <time>2021-08-21T12:45:30Z</time>
      </trkpt>
      <trkpt lat="47.03143" lon="2.38966">
        <ele>148</ele>
        <time>2021-08-21T12:45:30Z</time>
      </trkpt>
      <trkpt lat="47.03137" lon="2.38967">
        <ele>149</ele>
        <time>2021-08-21T12:45:30Z</time>
      </trkpt>
      <trkpt lat="47.03131" lon="2.38968">
        <ele>149</ele>
        <time>2021-08-21T12:45:30Z</time>
      </trkpt>
      <trkpt lat="47.03125" lon="2.38968">
        <ele>150</ele>
        <time>2021-08-21T12:45:30Z</time>
      </trkpt>
      <trkpt lat="47.03119" lon="2.38969">
        <ele>150</ele>
        <time>2021-08-21T12:45:30Z</time>
      </trkpt>
      <trkpt lat="47.03113" lon="2.3897">
        <ele>150</ele>
        <time>2021-08-21T12:45:30Z</time>
      </trkpt>
      <trkpt lat="47.03107" lon="2.38971">
        <ele>151</ele>
        <time>2021-08-21T12:45:30Z</time>
      </trkpt>
      <trkpt lat="47.03101" lon="2.38972">
        <ele>151</ele>
        <time>2021-08-21T12:45:30Z</time>
      </trkpt>
      <trkpt lat="47.03095" lon="2.38973">
        <ele>152</ele>
        <time>2021-08-21T12:45:30Z</time>
      </trkpt>
      <trkpt lat="47.03089" lon="2.38973">
        <ele>152</ele>
        <time>2021-08-21T12:45:30Z</time>
      </trkpt>
      <trkpt lat="47.03083" lon="2.38974">
        <ele>152</ele>
        <time>2021-08-21T12:45:30Z</time>
      </trkpt>
      <trkpt lat="47.03077" lon="2.38974">
        <ele>153</ele>
        <time>2021-08-21T12:45:30Z</time>
      </trkpt>
      <trkpt lat="47.03071" lon="2.38974">
        <ele>153</ele>
        <time>2021-08-21T12:45:30Z</time>
      </trkpt>
      <trkpt lat="47.03065" lon="2.38975">
        <ele>153</ele>
        <time>2021-08-21T12:45:30Z</time>
      </trkpt>
      <trkpt lat="47.03059" lon="2.38976">
        <ele>153</ele>
        <time>2021-08-21T12:45:30Z</time>
      </trkpt>
      <trkpt lat="47.03053" lon="2.38977">
        <ele>154</ele>
        <time>2021-08-21T12:45:30Z</time>
      </trkpt>
      <trkpt lat="47.03046" lon="2.38977">
        <ele>154</ele>
        <time>2021-08-21T12:45:30Z</time>
      </trkpt>
      <trkpt lat="47.0304" lon="2.38978">
        <ele>154</ele>
        <time>2021-08-21T12:45:30Z</time>
      </trkpt>
      <trkpt lat="47.03034" lon="2.38979">
        <ele>154</ele>
        <time>2021-08-21T12:45:30Z</time>
      </trkpt>
      <trkpt lat="47.03028" lon="2.38981">
        <ele>154</ele>
        <time>2021-08-21T12:45:30Z</time>
      </trkpt>
      <trkpt lat="47.03021" lon="2.38982">
        <ele>154</ele>
        <time>2021-08-21T12:45:30Z</time>
      </trkpt>
      <trkpt lat="47.0299" lon="2.38985">
        <ele>153</ele>
        <time>2021-08-21T12:45:30Z</time>
      </trkpt>
      <trkpt lat="47.02959" lon="2.38989">
        <ele>153</ele>
        <time>2021-08-21T12:45:30Z</time>
      </trkpt>
      <trkpt lat="47.02925" lon="2.38993">
        <ele>154</ele>
        <time>2021-08-21T12:45:30Z</time>
      </trkpt>
      <trkpt lat="47.02894" lon="2.38998">
        <ele>155</ele>
        <time>2021-08-21T12:45:30Z</time>
      </trkpt>
      <trkpt lat="47.02864" lon="2.39002">
        <ele>155</ele>
        <time>2021-08-21T12:45:30Z</time>
      </trkpt>
      <trkpt lat="47.02838" lon="2.39004">
        <ele>155</ele>
        <time>2021-08-21T12:45:30Z</time>
      </trkpt>
      <trkpt lat="47.02832" lon="2.39005">
        <ele>155</ele>
        <time>2021-08-21T12:45:30Z</time>
      </trkpt>
      <trkpt lat="47.02799" lon="2.39009">
        <ele>154</ele>
        <time>2021-08-21T12:45:30Z</time>
      </trkpt>
      <trkpt lat="47.02766" lon="2.39014">
        <ele>153</ele>
        <time>2021-08-21T12:45:30Z</time>
      </trkpt>
      <trkpt lat="47.02732" lon="2.39016">
        <ele>153</ele>
        <time>2021-08-21T12:45:30Z</time>
      </trkpt>
      <trkpt lat="47.02698" lon="2.39013">
        <ele>153</ele>
        <time>2021-08-21T12:45:30Z</time>
      </trkpt>
      <trkpt lat="47.02669" lon="2.38989">
        <ele>153</ele>
        <time>2021-08-21T12:45:30Z</time>
      </trkpt>
      <trkpt lat="47.02644" lon="2.3898">
        <ele>153</ele>
        <time>2021-08-21T12:45:30Z</time>
      </trkpt>
      <trkpt lat="47.02637" lon="2.38981">
        <ele>152</ele>
        <time>2021-08-21T12:45:30Z</time>
      </trkpt>
      <trkpt lat="47.02631" lon="2.38985">
        <ele>152</ele>
        <time>2021-08-21T12:45:30Z</time>
      </trkpt>
      <trkpt lat="47.02625" lon="2.3899">
        <ele>152</ele>
        <time>2021-08-21T12:45:30Z</time>
      </trkpt>
      <trkpt lat="47.0262" lon="2.38997">
        <ele>152</ele>
        <time>2021-08-21T12:45:30Z</time>
      </trkpt>
      <trkpt lat="47.02615" lon="2.39005">
        <ele>153</ele>
        <time>2021-08-21T12:45:30Z</time>
      </trkpt>
      <trkpt lat="47.02611" lon="2.39013">
        <ele>153</ele>
        <time>2021-08-21T12:45:30Z</time>
      </trkpt>
      <trkpt lat="47.02606" lon="2.39021">
        <ele>152</ele>
        <time>2021-08-21T12:45:30Z</time>
      </trkpt>
      <trkpt lat="47.026" lon="2.39026">
        <ele>152</ele>
        <time>2021-08-21T12:45:30Z</time>
      </trkpt>
      <trkpt lat="47.02593" lon="2.3903">
        <ele>152</ele>
        <time>2021-08-21T12:45:30Z</time>
      </trkpt>
      <trkpt lat="47.02586" lon="2.39033">
        <ele>152</ele>
        <time>2021-08-21T12:45:30Z</time>
      </trkpt>
      <trkpt lat="47.02578" lon="2.39035">
        <ele>151</ele>
        <time>2021-08-21T12:45:30Z</time>
      </trkpt>
      <trkpt lat="47.02571" lon="2.39036">
        <ele>151</ele>
        <time>2021-08-21T12:45:30Z</time>
      </trkpt>
      <trkpt lat="47.02563" lon="2.39039">
        <ele>151</ele>
        <time>2021-08-21T12:45:30Z</time>
      </trkpt>
      <trkpt lat="47.02555" lon="2.3904">
        <ele>151</ele>
        <time>2021-08-21T12:45:30Z</time>
      </trkpt>
      <trkpt lat="47.02548" lon="2.39042">
        <ele>151</ele>
        <time>2021-08-21T12:45:30Z</time>
      </trkpt>
      <trkpt lat="47.0254" lon="2.39044">
        <ele>150</ele>
        <time>2021-08-21T12:45:30Z</time>
      </trkpt>
      <trkpt lat="47.02532" lon="2.39045">
        <ele>150</ele>
        <time>2021-08-21T12:45:30Z</time>
      </trkpt>
      <trkpt lat="47.02524" lon="2.39047">
        <ele>150</ele>
        <time>2021-08-21T12:45:30Z</time>
      </trkpt>
      <trkpt lat="47.02516" lon="2.39048">
        <ele>149</ele>
        <time>2021-08-21T12:45:30Z</time>
      </trkpt>
      <trkpt lat="47.02508" lon="2.39049">
        <ele>149</ele>
        <time>2021-08-21T12:45:30Z</time>
      </trkpt>
      <trkpt lat="47.025" lon="2.3905">
        <ele>149</ele>
        <time>2021-08-21T12:45:30Z</time>
      </trkpt>
      <trkpt lat="47.02491" lon="2.39051">
        <ele>148</ele>
        <time>2021-08-21T12:45:30Z</time>
      </trkpt>
      <trkpt lat="47.02483" lon="2.39052">
        <ele>148</ele>
        <time>2021-08-21T12:45:30Z</time>
      </trkpt>
      <trkpt lat="47.02475" lon="2.39054">
        <ele>148</ele>
        <time>2021-08-21T12:45:30Z</time>
      </trkpt>
      <trkpt lat="47.02466" lon="2.39055">
        <ele>147</ele>
        <time>2021-08-21T12:45:30Z</time>
      </trkpt>
      <trkpt lat="47.02458" lon="2.39056">
        <ele>147</ele>
        <time>2021-08-21T12:45:30Z</time>
      </trkpt>
      <trkpt lat="47.02449" lon="2.39057">
        <ele>147</ele>
        <time>2021-08-21T12:45:30Z</time>
      </trkpt>
      <trkpt lat="47.0244" lon="2.39058">
        <ele>147</ele>
        <time>2021-08-21T12:45:30Z</time>
      </trkpt>
      <trkpt lat="47.02431" lon="2.3906">
        <ele>147</ele>
        <time>2021-08-21T12:45:30Z</time>
      </trkpt>
      <trkpt lat="47.02422" lon="2.39061">
        <ele>147</ele>
        <time>2021-08-21T12:45:30Z</time>
      </trkpt>
      <trkpt lat="47.02413" lon="2.39062">
        <ele>146</ele>
        <time>2021-08-21T12:45:30Z</time>
      </trkpt>
      <trkpt lat="47.02404" lon="2.39064">
        <ele>146</ele>
        <time>2021-08-21T12:45:30Z</time>
      </trkpt>
      <trkpt lat="47.02394" lon="2.39065">
        <ele>145</ele>
        <time>2021-08-21T12:45:30Z</time>
      </trkpt>
      <trkpt lat="47.02385" lon="2.39066">
        <ele>144</ele>
        <time>2021-08-21T12:45:30Z</time>
      </trkpt>
      <trkpt lat="47.02376" lon="2.39067">
        <ele>144</ele>
        <time>2021-08-21T12:45:30Z</time>
      </trkpt>
      <trkpt lat="47.02366" lon="2.39069">
        <ele>143</ele>
        <time>2021-08-21T12:45:30Z</time>
      </trkpt>
      <trkpt lat="47.02356" lon="2.3907">
        <ele>143</ele>
        <time>2021-08-21T12:45:30Z</time>
      </trkpt>
      <trkpt lat="47.02347" lon="2.39071">
        <ele>143</ele>
        <time>2021-08-21T12:45:30Z</time>
      </trkpt>
      <trkpt lat="47.02337" lon="2.39072">
        <ele>143</ele>
        <time>2021-08-21T12:45:30Z</time>
      </trkpt>
      <trkpt lat="47.02328" lon="2.39073">
        <ele>142</ele>
        <time>2021-08-21T12:45:30Z</time>
      </trkpt>
      <trkpt lat="47.02318" lon="2.39074">
        <ele>142</ele>
        <time>2021-08-21T12:45:30Z</time>
      </trkpt>
      <trkpt lat="47.02308" lon="2.39075">
        <ele>142</ele>
        <time>2021-08-21T12:45:30Z</time>
      </trkpt>
      <trkpt lat="47.02299" lon="2.39076">
        <ele>142</ele>
        <time>2021-08-21T12:45:30Z</time>
      </trkpt>
      <trkpt lat="47.0229" lon="2.39078">
        <ele>142</ele>
        <time>2021-08-21T12:45:30Z</time>
      </trkpt>
      <trkpt lat="47.0228" lon="2.39079">
        <ele>142</ele>
        <time>2021-08-21T12:45:30Z</time>
      </trkpt>
      <trkpt lat="47.02272" lon="2.3908">
        <ele>141</ele>
        <time>2021-08-21T12:45:30Z</time>
      </trkpt>
      <trkpt lat="47.02263" lon="2.39082">
        <ele>140</ele>
        <time>2021-08-21T12:45:30Z</time>
      </trkpt>
      <trkpt lat="47.02254" lon="2.39083">
        <ele>139</ele>
        <time>2021-08-21T12:45:30Z</time>
      </trkpt>
      <trkpt lat="47.02245" lon="2.39083">
        <ele>138</ele>
        <time>2021-08-21T12:45:30Z</time>
      </trkpt>
      <trkpt lat="47.02237" lon="2.39084">
        <ele>139</ele>
        <time>2021-08-21T12:45:30Z</time>
      </trkpt>
      <trkpt lat="47.02228" lon="2.39084">
        <ele>139</ele>
        <time>2021-08-21T12:45:30Z</time>
      </trkpt>
      <trkpt lat="47.0222" lon="2.39086">
        <ele>139</ele>
        <time>2021-08-21T12:45:30Z</time>
      </trkpt>
      <trkpt lat="47.02213" lon="2.39086">
        <ele>139</ele>
        <time>2021-08-21T12:45:30Z</time>
      </trkpt>
      <trkpt lat="47.02204" lon="2.39087">
        <ele>140</ele>
        <time>2021-08-21T12:45:30Z</time>
      </trkpt>
      <trkpt lat="47.02197" lon="2.39088">
        <ele>141</ele>
        <time>2021-08-21T12:45:30Z</time>
      </trkpt>
      <trkpt lat="47.02189" lon="2.39089">
        <ele>141</ele>
        <time>2021-08-21T12:45:30Z</time>
      </trkpt>
      <trkpt lat="47.02182" lon="2.3909">
        <ele>141</ele>
        <time>2021-08-21T12:45:30Z</time>
      </trkpt>
      <trkpt lat="47.02174" lon="2.39091">
        <ele>141</ele>
        <time>2021-08-21T12:45:30Z</time>
      </trkpt>
      <trkpt lat="47.02167" lon="2.39092">
        <ele>141</ele>
        <time>2021-08-21T12:45:30Z</time>
      </trkpt>
      <trkpt lat="47.0216" lon="2.39094">
        <ele>142</ele>
        <time>2021-08-21T12:45:30Z</time>
      </trkpt>
      <trkpt lat="47.02153" lon="2.39095">
        <ele>142</ele>
        <time>2021-08-21T12:45:30Z</time>
      </trkpt>
      <trkpt lat="47.02146" lon="2.39094">
        <ele>142</ele>
        <time>2021-08-21T12:45:30Z</time>
      </trkpt>
      <trkpt lat="47.02119" lon="2.39064">
        <ele>142</ele>
        <time>2021-08-21T12:45:30Z</time>
      </trkpt>
      <trkpt lat="47.02102" lon="2.39021">
        <ele>141</ele>
        <time>2021-08-21T12:45:30Z</time>
      </trkpt>
      <trkpt lat="47.02083" lon="2.38977">
        <ele>142</ele>
        <time>2021-08-21T12:45:30Z</time>
      </trkpt>
      <trkpt lat="47.02064" lon="2.3893">
        <ele>143</ele>
        <time>2021-08-21T12:45:30Z</time>
      </trkpt>
      <trkpt lat="47.02046" lon="2.38885">
        <ele>143</ele>
        <time>2021-08-21T12:45:30Z</time>
      </trkpt>
      <trkpt lat="47.02032" lon="2.3885">
        <ele>143</ele>
        <time>2021-08-21T12:45:30Z</time>
      </trkpt>
      <trkpt lat="47.02029" lon="2.38842">
        <ele>143</ele>
        <time>2021-08-21T12:45:30Z</time>
      </trkpt>
      <trkpt lat="47.02012" lon="2.38802">
        <ele>143</ele>
        <time>2021-08-21T12:45:30Z</time>
      </trkpt>
      <trkpt lat="47.01997" lon="2.38765">
        <ele>143</ele>
        <time>2021-08-21T12:45:30Z</time>
      </trkpt>
      <trkpt lat="47.01981" lon="2.38727">
        <ele>145</ele>
        <time>2021-08-21T12:45:30Z</time>
      </trkpt>
      <trkpt lat="47.01965" lon="2.38688">
        <ele>145</ele>
        <time>2021-08-21T12:45:30Z</time>
      </trkpt>
      <trkpt lat="47.0195" lon="2.38649">
        <ele>146</ele>
        <time>2021-08-21T12:45:30Z</time>
      </trkpt>
      <trkpt lat="47.01937" lon="2.38618">
        <ele>148</ele>
        <time>2021-08-21T12:45:30Z</time>
      </trkpt>
      <trkpt lat="47.01934" lon="2.3861">
        <ele>149</ele>
        <time>2021-08-21T12:45:30Z</time>
      </trkpt>
      <trkpt lat="47.01927" lon="2.38594">
        <ele>149</ele>
        <time>2021-08-21T12:45:30Z</time>
      </trkpt>
      <trkpt lat="47.01923" lon="2.38587">
        <ele>149</ele>
        <time>2021-08-21T12:45:30Z</time>
      </trkpt>
      <trkpt lat="47.0192" lon="2.38579">
        <ele>149</ele>
        <time>2021-08-21T12:45:30Z</time>
      </trkpt>
      <trkpt lat="47.01917" lon="2.38571">
        <ele>149</ele>
        <time>2021-08-21T12:45:30Z</time>
      </trkpt>
      <trkpt lat="47.01914" lon="2.38563">
        <ele>149</ele>
        <time>2021-08-21T12:45:30Z</time>
      </trkpt>
      <trkpt lat="47.01911" lon="2.38556">
        <ele>149</ele>
        <time>2021-08-21T12:45:30Z</time>
      </trkpt>
      <trkpt lat="47.01908" lon="2.38548">
        <ele>149</ele>
        <time>2021-08-21T12:45:30Z</time>
      </trkpt>
      <trkpt lat="47.01905" lon="2.3854">
        <ele>149</ele>
        <time>2021-08-21T12:45:30Z</time>
      </trkpt>
      <trkpt lat="47.01901" lon="2.38533">
        <ele>149</ele>
        <time>2021-08-21T12:45:30Z</time>
      </trkpt>
      <trkpt lat="47.01898" lon="2.38524">
        <ele>149</ele>
        <time>2021-08-21T12:45:30Z</time>
      </trkpt>
      <trkpt lat="47.01895" lon="2.38517">
        <ele>149</ele>
        <time>2021-08-21T12:45:30Z</time>
      </trkpt>
      <trkpt lat="47.01892" lon="2.38509">
        <ele>149</ele>
        <time>2021-08-21T12:45:30Z</time>
      </trkpt>
      <trkpt lat="47.01889" lon="2.38501">
        <ele>149</ele>
        <time>2021-08-21T12:45:30Z</time>
      </trkpt>
      <trkpt lat="47.01885" lon="2.38494">
        <ele>149</ele>
        <time>2021-08-21T12:45:30Z</time>
      </trkpt>
      <trkpt lat="47.01882" lon="2.38486">
        <ele>149</ele>
        <time>2021-08-21T12:45:30Z</time>
      </trkpt>
      <trkpt lat="47.01879" lon="2.38478">
        <ele>149</ele>
        <time>2021-08-21T12:45:30Z</time>
      </trkpt>
      <trkpt lat="47.01876" lon="2.3847">
        <ele>149</ele>
        <time>2021-08-21T12:45:30Z</time>
      </trkpt>
      <trkpt lat="47.01872" lon="2.38462">
        <ele>149</ele>
        <time>2021-08-21T12:45:30Z</time>
      </trkpt>
      <trkpt lat="47.01869" lon="2.38453">
        <ele>149</ele>
        <time>2021-08-21T12:45:30Z</time>
      </trkpt>
      <trkpt lat="47.01866" lon="2.38446">
        <ele>149</ele>
        <time>2021-08-21T12:45:30Z</time>
      </trkpt>
      <trkpt lat="47.01862" lon="2.38438">
        <ele>149</ele>
        <time>2021-08-21T12:45:30Z</time>
      </trkpt>
      <trkpt lat="47.01859" lon="2.38431">
        <ele>149</ele>
        <time>2021-08-21T12:45:30Z</time>
      </trkpt>
      <trkpt lat="47.01857" lon="2.38423">
        <ele>149</ele>
        <time>2021-08-21T12:45:30Z</time>
      </trkpt>
      <trkpt lat="47.01854" lon="2.38415">
        <ele>149</ele>
        <time>2021-08-21T12:45:30Z</time>
      </trkpt>
      <trkpt lat="47.01851" lon="2.38407">
        <ele>149</ele>
        <time>2021-08-21T12:45:30Z</time>
      </trkpt>
      <trkpt lat="47.01848" lon="2.38398">
        <ele>150</ele>
        <time>2021-08-21T12:45:30Z</time>
      </trkpt>
      <trkpt lat="47.01846" lon="2.38391">
        <ele>150</ele>
        <time>2021-08-21T12:45:30Z</time>
      </trkpt>
      <trkpt lat="47.01844" lon="2.38382">
        <ele>150</ele>
        <time>2021-08-21T12:45:30Z</time>
      </trkpt>
      <trkpt lat="47.01841" lon="2.38373">
        <ele>150</ele>
        <time>2021-08-21T12:45:30Z</time>
      </trkpt>
      <trkpt lat="47.01839" lon="2.38364">
        <ele>150</ele>
        <time>2021-08-21T12:45:30Z</time>
      </trkpt>
      <trkpt lat="47.01837" lon="2.38356">
        <ele>150</ele>
        <time>2021-08-21T12:45:30Z</time>
      </trkpt>
      <trkpt lat="47.01835" lon="2.38347">
        <ele>150</ele>
        <time>2021-08-21T12:45:30Z</time>
      </trkpt>
      <trkpt lat="47.01833" lon="2.38339">
        <ele>150</ele>
        <time>2021-08-21T12:45:30Z</time>
      </trkpt>
      <trkpt lat="47.01831" lon="2.3833">
        <ele>150</ele>
        <time>2021-08-21T12:45:30Z</time>
      </trkpt>
      <trkpt lat="47.01829" lon="2.38322">
        <ele>151</ele>
        <time>2021-08-21T12:45:30Z</time>
      </trkpt>
      <trkpt lat="47.01827" lon="2.38313">
        <ele>151</ele>
        <time>2021-08-21T12:45:30Z</time>
      </trkpt>
      <trkpt lat="47.01825" lon="2.38305">
        <ele>151</ele>
        <time>2021-08-21T12:45:30Z</time>
      </trkpt>
      <trkpt lat="47.01823" lon="2.38296">
        <ele>151</ele>
        <time>2021-08-21T12:45:30Z</time>
      </trkpt>
      <trkpt lat="47.0182" lon="2.38287">
        <ele>150</ele>
        <time>2021-08-21T12:45:30Z</time>
      </trkpt>
      <trkpt lat="47.01817" lon="2.38278">
        <ele>150</ele>
        <time>2021-08-21T12:45:30Z</time>
      </trkpt>
      <trkpt lat="47.01815" lon="2.38269">
        <ele>150</ele>
        <time>2021-08-21T12:45:30Z</time>
      </trkpt>
      <trkpt lat="47.01813" lon="2.3826">
        <ele>150</ele>
        <time>2021-08-21T12:45:30Z</time>
      </trkpt>
      <trkpt lat="47.01811" lon="2.38251">
        <ele>150</ele>
        <time>2021-08-21T12:45:30Z</time>
      </trkpt>
      <trkpt lat="47.01809" lon="2.38242">
        <ele>149</ele>
        <time>2021-08-21T12:45:30Z</time>
      </trkpt>
      <trkpt lat="47.01805" lon="2.38222">
        <ele>148</ele>
        <time>2021-08-21T12:45:30Z</time>
      </trkpt>
      <trkpt lat="47.01803" lon="2.38212">
        <ele>149</ele>
        <time>2021-08-21T12:45:30Z</time>
      </trkpt>
      <trkpt lat="47.01802" lon="2.38202">
        <ele>149</ele>
        <time>2021-08-21T12:45:30Z</time>
      </trkpt>
      <trkpt lat="47.01799" lon="2.38182">
        <ele>149</ele>
        <time>2021-08-21T12:45:30Z</time>
      </trkpt>
      <trkpt lat="47.01798" lon="2.38172">
        <ele>149</ele>
        <time>2021-08-21T12:45:30Z</time>
      </trkpt>
      <trkpt lat="47.01796" lon="2.38162">
        <ele>149</ele>
        <time>2021-08-21T12:45:30Z</time>
      </trkpt>
      <trkpt lat="47.01795" lon="2.3815">
        <ele>149</ele>
        <time>2021-08-21T12:45:30Z</time>
      </trkpt>
      <trkpt lat="47.01793" lon="2.38139">
        <ele>149</ele>
        <time>2021-08-21T12:45:30Z</time>
      </trkpt>
      <trkpt lat="47.01792" lon="2.38119">
        <ele>149</ele>
        <time>2021-08-21T12:45:30Z</time>
      </trkpt>
      <trkpt lat="47.0179" lon="2.381">
        <ele>149</ele>
        <time>2021-08-21T12:45:30Z</time>
      </trkpt>
      <trkpt lat="47.01789" lon="2.3809">
        <ele>149</ele>
        <time>2021-08-21T12:45:30Z</time>
      </trkpt>
      <trkpt lat="47.01786" lon="2.38071">
        <ele>148</ele>
        <time>2021-08-21T12:45:30Z</time>
      </trkpt>
      <trkpt lat="47.01786" lon="2.38062">
        <ele>148</ele>
        <time>2021-08-21T12:45:30Z</time>
      </trkpt>
      <trkpt lat="47.01779" lon="2.38017">
        <ele>148</ele>
        <time>2021-08-21T12:45:30Z</time>
      </trkpt>
      <trkpt lat="47.01772" lon="2.37971">
        <ele>150</ele>
        <time>2021-08-21T12:45:30Z</time>
      </trkpt>
      <trkpt lat="47.01764" lon="2.37916">
        <ele>151</ele>
        <time>2021-08-21T12:45:30Z</time>
      </trkpt>
      <trkpt lat="47.01757" lon="2.3787">
        <ele>151</ele>
        <time>2021-08-21T12:45:30Z</time>
      </trkpt>
      <trkpt lat="47.01749" lon="2.37825">
        <ele>151</ele>
        <time>2021-08-21T12:45:30Z</time>
      </trkpt>
      <trkpt lat="47.01741" lon="2.3779">
        <ele>151</ele>
        <time>2021-08-21T12:45:30Z</time>
      </trkpt>
      <trkpt lat="47.01739" lon="2.37781">
        <ele>151</ele>
        <time>2021-08-21T12:45:30Z</time>
      </trkpt>
      <trkpt lat="47.01728" lon="2.3774">
        <ele>152</ele>
        <time>2021-08-21T12:45:30Z</time>
      </trkpt>
      <trkpt lat="47.01712" lon="2.37702">
        <ele>152</ele>
        <time>2021-08-21T12:45:30Z</time>
      </trkpt>
      <trkpt lat="47.01694" lon="2.37664">
        <ele>152</ele>
        <time>2021-08-21T12:45:30Z</time>
      </trkpt>
      <trkpt lat="47.01676" lon="2.37623">
        <ele>151</ele>
        <time>2021-08-21T12:45:30Z</time>
      </trkpt>
      <trkpt lat="47.01657" lon="2.37584">
        <ele>149</ele>
        <time>2021-08-21T12:45:30Z</time>
      </trkpt>
      <trkpt lat="47.01642" lon="2.37554">
        <ele>150</ele>
        <time>2021-08-21T12:45:30Z</time>
      </trkpt>
      <trkpt lat="47.01638" lon="2.37546">
        <ele>150</ele>
        <time>2021-08-21T12:45:30Z</time>
      </trkpt>
      <trkpt lat="47.01619" lon="2.37507">
        <ele>151</ele>
        <time>2021-08-21T12:45:30Z</time>
      </trkpt>
      <trkpt lat="47.01601" lon="2.37468">
        <ele>152</ele>
        <time>2021-08-21T12:45:30Z</time>
      </trkpt>
      <trkpt lat="47.01581" lon="2.37428">
        <ele>152</ele>
        <time>2021-08-21T12:45:30Z</time>
      </trkpt>
      <trkpt lat="47.01563" lon="2.37389">
        <ele>151</ele>
        <time>2021-08-21T12:45:30Z</time>
      </trkpt>
      <trkpt lat="47.01547" lon="2.37349">
        <ele>151</ele>
        <time>2021-08-21T12:45:30Z</time>
      </trkpt>
      <trkpt lat="47.01535" lon="2.37317">
        <ele>152</ele>
        <time>2021-08-21T12:45:30Z</time>
      </trkpt>
      <trkpt lat="47.01533" lon="2.37308">
        <ele>152</ele>
        <time>2021-08-21T12:45:30Z</time>
      </trkpt>
      <trkpt lat="47.01531" lon="2.373">
        <ele>152</ele>
        <time>2021-08-21T12:45:30Z</time>
      </trkpt>
      <trkpt lat="47.0153" lon="2.37291">
        <ele>152</ele>
        <time>2021-08-21T12:45:30Z</time>
      </trkpt>
      <trkpt lat="47.01529" lon="2.37283">
        <ele>152</ele>
        <time>2021-08-21T12:45:30Z</time>
      </trkpt>
      <trkpt lat="47.01528" lon="2.37274">
        <ele>152</ele>
        <time>2021-08-21T12:45:30Z</time>
      </trkpt>
      <trkpt lat="47.01528" lon="2.37266">
        <ele>152</ele>
        <time>2021-08-21T12:45:30Z</time>
      </trkpt>
      <trkpt lat="47.01527" lon="2.37257">
        <ele>152</ele>
        <time>2021-08-21T12:45:30Z</time>
      </trkpt>
      <trkpt lat="47.01526" lon="2.37249">
        <ele>152</ele>
        <time>2021-08-21T12:45:30Z</time>
      </trkpt>
      <trkpt lat="47.01526" lon="2.37241">
        <ele>152</ele>
        <time>2021-08-21T12:45:30Z</time>
      </trkpt>
      <trkpt lat="47.01525" lon="2.37233">
        <ele>152</ele>
        <time>2021-08-21T12:45:30Z</time>
      </trkpt>
      <trkpt lat="47.01525" lon="2.37225">
        <ele>152</ele>
        <time>2021-08-21T12:45:30Z</time>
      </trkpt>
      <trkpt lat="47.01524" lon="2.37216">
        <ele>153</ele>
        <time>2021-08-21T12:45:30Z</time>
      </trkpt>
      <trkpt lat="47.01524" lon="2.37208">
        <ele>153</ele>
        <time>2021-08-21T12:45:30Z</time>
      </trkpt>
      <trkpt lat="47.01523" lon="2.37198">
        <ele>153</ele>
        <time>2021-08-21T12:45:30Z</time>
      </trkpt>
      <trkpt lat="47.01523" lon="2.37189">
        <ele>154</ele>
        <time>2021-08-21T12:45:30Z</time>
      </trkpt>
      <trkpt lat="47.01522" lon="2.3718">
        <ele>154</ele>
        <time>2021-08-21T12:45:30Z</time>
      </trkpt>
      <trkpt lat="47.01521" lon="2.37171">
        <ele>154</ele>
        <time>2021-08-21T12:45:30Z</time>
      </trkpt>
      <trkpt lat="47.0152" lon="2.37162">
        <ele>154</ele>
        <time>2021-08-21T12:45:30Z</time>
      </trkpt>
      <trkpt lat="47.0152" lon="2.37153">
        <ele>154</ele>
        <time>2021-08-21T12:45:30Z</time>
      </trkpt>
      <trkpt lat="47.01519" lon="2.37144">
        <ele>154</ele>
        <time>2021-08-21T12:45:30Z</time>
      </trkpt>
      <trkpt lat="47.01518" lon="2.37136">
        <ele>154</ele>
        <time>2021-08-21T12:45:30Z</time>
      </trkpt>
      <trkpt lat="47.01517" lon="2.37127">
        <ele>155</ele>
        <time>2021-08-21T12:45:30Z</time>
      </trkpt>
      <trkpt lat="47.01516" lon="2.37117">
        <ele>155</ele>
        <time>2021-08-21T12:45:30Z</time>
      </trkpt>
      <trkpt lat="47.01515" lon="2.37109">
        <ele>155</ele>
        <time>2021-08-21T12:45:30Z</time>
      </trkpt>
      <trkpt lat="47.01514" lon="2.371">
        <ele>155</ele>
        <time>2021-08-21T12:45:30Z</time>
      </trkpt>
      <trkpt lat="47.01514" lon="2.37091">
        <ele>156</ele>
        <time>2021-08-21T12:45:30Z</time>
      </trkpt>
      <trkpt lat="47.01513" lon="2.37081">
        <ele>156</ele>
        <time>2021-08-21T12:45:30Z</time>
      </trkpt>
      <trkpt lat="47.01512" lon="2.37072">
        <ele>156</ele>
        <time>2021-08-21T12:45:30Z</time>
      </trkpt>
      <trkpt lat="47.01512" lon="2.37063">
        <ele>156</ele>
        <time>2021-08-21T12:45:30Z</time>
      </trkpt>
      <trkpt lat="47.01512" lon="2.37054">
        <ele>156</ele>
        <time>2021-08-21T12:45:30Z</time>
      </trkpt>
      <trkpt lat="47.01511" lon="2.37044">
        <ele>156</ele>
        <time>2021-08-21T12:45:30Z</time>
      </trkpt>
      <trkpt lat="47.0151" lon="2.37035">
        <ele>156</ele>
        <time>2021-08-21T12:45:30Z</time>
      </trkpt>
      <trkpt lat="47.0151" lon="2.37026">
        <ele>156</ele>
        <time>2021-08-21T12:45:30Z</time>
      </trkpt>
      <trkpt lat="47.01509" lon="2.37017">
        <ele>156</ele>
        <time>2021-08-21T12:45:30Z</time>
      </trkpt>
      <trkpt lat="47.01509" lon="2.37008">
        <ele>156</ele>
        <time>2021-08-21T12:45:30Z</time>
      </trkpt>
      <trkpt lat="47.01509" lon="2.36999">
        <ele>156</ele>
        <time>2021-08-21T12:45:30Z</time>
      </trkpt>
      <trkpt lat="47.01508" lon="2.3699">
        <ele>156</ele>
        <time>2021-08-21T12:45:30Z</time>
      </trkpt>
      <trkpt lat="47.01508" lon="2.36981">
        <ele>156</ele>
        <time>2021-08-21T12:45:30Z</time>
      </trkpt>
      <trkpt lat="47.01508" lon="2.36972">
        <ele>156</ele>
        <time>2021-08-21T12:45:30Z</time>
      </trkpt>
      <trkpt lat="47.01508" lon="2.36962">
        <ele>156</ele>
        <time>2021-08-21T12:45:30Z</time>
      </trkpt>
      <trkpt lat="47.01509" lon="2.36953">
        <ele>156</ele>
        <time>2021-08-21T12:45:30Z</time>
      </trkpt>
      <trkpt lat="47.01509" lon="2.36944">
        <ele>156</ele>
        <time>2021-08-21T12:45:30Z</time>
      </trkpt>
      <trkpt lat="47.01509" lon="2.36935">
        <ele>156</ele>
        <time>2021-08-21T12:45:30Z</time>
      </trkpt>
      <trkpt lat="47.01509" lon="2.36925">
        <ele>156</ele>
        <time>2021-08-21T12:45:30Z</time>
      </trkpt>
      <trkpt lat="47.01509" lon="2.36916">
        <ele>156</ele>
        <time>2021-08-21T12:45:30Z</time>
      </trkpt>
      <trkpt lat="47.01509" lon="2.36907">
        <ele>156</ele>
        <time>2021-08-21T12:45:30Z</time>
      </trkpt>
      <trkpt lat="47.01509" lon="2.36897">
        <ele>156</ele>
        <time>2021-08-21T12:45:30Z</time>
      </trkpt>
      <trkpt lat="47.0151" lon="2.36888">
        <ele>156</ele>
        <time>2021-08-21T12:45:30Z</time>
      </trkpt>
      <trkpt lat="47.0151" lon="2.3688">
        <ele>156</ele>
        <time>2021-08-21T12:45:30Z</time>
      </trkpt>
      <trkpt lat="47.01511" lon="2.3687">
        <ele>156</ele>
        <time>2021-08-21T12:45:30Z</time>
      </trkpt>
      <trkpt lat="47.01511" lon="2.36862">
        <ele>156</ele>
        <time>2021-08-21T12:45:30Z</time>
      </trkpt>
      <trkpt lat="47.01511" lon="2.36852">
        <ele>156</ele>
        <time>2021-08-21T12:45:30Z</time>
      </trkpt>
      <trkpt lat="47.01512" lon="2.36843">
        <ele>156</ele>
        <time>2021-08-21T12:45:30Z</time>
      </trkpt>
      <trkpt lat="47.01512" lon="2.36834">
        <ele>156</ele>
        <time>2021-08-21T12:45:30Z</time>
      </trkpt>
      <trkpt lat="47.01513" lon="2.36825">
        <ele>155</ele>
        <time>2021-08-21T12:45:30Z</time>
      </trkpt>
      <trkpt lat="47.01513" lon="2.36815">
        <ele>155</ele>
        <time>2021-08-21T12:45:30Z</time>
      </trkpt>
      <trkpt lat="47.01514" lon="2.36806">
        <ele>155</ele>
        <time>2021-08-21T12:45:30Z</time>
      </trkpt>
      <trkpt lat="47.01515" lon="2.36797">
        <ele>155</ele>
        <time>2021-08-21T12:45:30Z</time>
      </trkpt>
      <trkpt lat="47.01515" lon="2.36789">
        <ele>155</ele>
        <time>2021-08-21T12:45:30Z</time>
      </trkpt>
      <trkpt lat="47.01516" lon="2.36779">
        <ele>155</ele>
        <time>2021-08-21T12:45:30Z</time>
      </trkpt>
      <trkpt lat="47.01516" lon="2.3677">
        <ele>155</ele>
        <time>2021-08-21T12:45:30Z</time>
      </trkpt>
      <trkpt lat="47.01517" lon="2.3676">
        <ele>155</ele>
        <time>2021-08-21T12:45:30Z</time>
      </trkpt>
      <trkpt lat="47.01521" lon="2.36714">
        <ele>157</ele>
        <time>2021-08-21T12:45:30Z</time>
      </trkpt>
      <trkpt lat="47.01525" lon="2.3667">
        <ele>159</ele>
        <time>2021-08-21T12:45:30Z</time>
      </trkpt>
      <trkpt lat="47.01526" lon="2.36631">
        <ele>161</ele>
        <time>2021-08-21T12:45:30Z</time>
      </trkpt>
      <trkpt lat="47.01527" lon="2.36588">
        <ele>161</ele>
        <time>2021-08-21T12:45:30Z</time>
      </trkpt>
      <trkpt lat="47.01527" lon="2.3655">
        <ele>161</ele>
        <time>2021-08-21T12:45:30Z</time>
      </trkpt>
      <trkpt lat="47.01527" lon="2.36522">
        <ele>161</ele>
        <time>2021-08-21T12:45:30Z</time>
      </trkpt>
      <trkpt lat="47.01527" lon="2.36517">
        <ele>161</ele>
        <time>2021-08-21T12:45:30Z</time>
      </trkpt>
      <trkpt lat="47.01527" lon="2.36506">
        <ele>161</ele>
        <time>2021-08-21T12:45:30Z</time>
      </trkpt>
      <trkpt lat="47.01508" lon="2.36494">
        <ele>160</ele>
        <time>2021-08-21T12:45:30Z</time>
      </trkpt>
      <trkpt lat="47.01478" lon="2.36481">
        <ele>159</ele>
        <time>2021-08-21T12:45:30Z</time>
      </trkpt>
      <trkpt lat="47.01447" lon="2.36466">
        <ele>160</ele>
        <time>2021-08-21T12:45:30Z</time>
      </trkpt>
      <trkpt lat="47.01417" lon="2.36451">
        <ele>159</ele>
        <time>2021-08-21T12:45:30Z</time>
      </trkpt>
      <trkpt lat="47.01395" lon="2.36438">
        <ele>159</ele>
        <time>2021-08-21T12:45:30Z</time>
      </trkpt>
      <trkpt lat="47.0139" lon="2.36435">
        <ele>159</ele>
        <time>2021-08-21T12:45:30Z</time>
      </trkpt>
      <trkpt lat="47.01365" lon="2.36421">
        <ele>161</ele>
        <time>2021-08-21T12:45:30Z</time>
      </trkpt>
      <trkpt lat="47.01339" lon="2.36405">
        <ele>162</ele>
        <time>2021-08-21T12:45:30Z</time>
      </trkpt>
      <trkpt lat="47.01314" lon="2.36392">
        <ele>162</ele>
        <time>2021-08-21T12:45:30Z</time>
      </trkpt>
      <trkpt lat="47.01289" lon="2.36379">
        <ele>163</ele>
        <time>2021-08-21T12:45:30Z</time>
      </trkpt>
      <trkpt lat="47.01265" lon="2.36367">
        <ele>164</ele>
        <time>2021-08-21T12:45:30Z</time>
      </trkpt>
      <trkpt lat="47.01245" lon="2.36357">
        <ele>164</ele>
        <time>2021-08-21T12:45:30Z</time>
      </trkpt>
      <trkpt lat="47.01239" lon="2.36354">
        <ele>164</ele>
        <time>2021-08-21T12:45:30Z</time>
      </trkpt>
      <trkpt lat="47.01234" lon="2.36352">
        <ele>164</ele>
        <time>2021-08-21T12:45:30Z</time>
      </trkpt>
      <trkpt lat="47.01229" lon="2.36349">
        <ele>163</ele>
        <time>2021-08-21T12:45:30Z</time>
      </trkpt>
      <trkpt lat="47.01223" lon="2.36347">
        <ele>163</ele>
        <time>2021-08-21T12:45:30Z</time>
      </trkpt>
      <trkpt lat="47.01217" lon="2.36344">
        <ele>163</ele>
        <time>2021-08-21T12:45:30Z</time>
      </trkpt>
      <trkpt lat="47.01211" lon="2.36341">
        <ele>163</ele>
        <time>2021-08-21T12:45:30Z</time>
      </trkpt>
      <trkpt lat="47.01206" lon="2.36338">
        <ele>163</ele>
        <time>2021-08-21T12:45:30Z</time>
      </trkpt>
      <trkpt lat="47.012" lon="2.36336">
        <ele>163</ele>
        <time>2021-08-21T12:45:30Z</time>
      </trkpt>
      <trkpt lat="47.01194" lon="2.36333">
        <ele>163</ele>
        <time>2021-08-21T12:45:30Z</time>
      </trkpt>
      <trkpt lat="47.01188" lon="2.36331">
        <ele>163</ele>
        <time>2021-08-21T12:45:30Z</time>
      </trkpt>
      <trkpt lat="47.01182" lon="2.36328">
        <ele>163</ele>
        <time>2021-08-21T12:45:30Z</time>
      </trkpt>
      <trkpt lat="47.01176" lon="2.36325">
        <ele>163</ele>
        <time>2021-08-21T12:45:30Z</time>
      </trkpt>
      <trkpt lat="47.01171" lon="2.36322">
        <ele>163</ele>
        <time>2021-08-21T12:45:30Z</time>
      </trkpt>
      <trkpt lat="47.01165" lon="2.36319">
        <ele>163</ele>
        <time>2021-08-21T12:45:30Z</time>
      </trkpt>
      <trkpt lat="47.01159" lon="2.36317">
        <ele>163</ele>
        <time>2021-08-21T12:45:30Z</time>
      </trkpt>
      <trkpt lat="47.01153" lon="2.36314">
        <ele>163</ele>
        <time>2021-08-21T12:45:30Z</time>
      </trkpt>
      <trkpt lat="47.01147" lon="2.36312">
        <ele>163</ele>
        <time>2021-08-21T12:45:30Z</time>
      </trkpt>
      <trkpt lat="47.01142" lon="2.36309">
        <ele>163</ele>
        <time>2021-08-21T12:45:30Z</time>
      </trkpt>
      <trkpt lat="47.01136" lon="2.36306">
        <ele>164</ele>
        <time>2021-08-21T12:45:30Z</time>
      </trkpt>
      <trkpt lat="47.01131" lon="2.36303">
        <ele>164</ele>
        <time>2021-08-21T12:45:30Z</time>
      </trkpt>
      <trkpt lat="47.01126" lon="2.363">
        <ele>164</ele>
        <time>2021-08-21T12:45:30Z</time>
      </trkpt>
      <trkpt lat="47.0112" lon="2.36297">
        <ele>164</ele>
        <time>2021-08-21T12:45:30Z</time>
      </trkpt>
      <trkpt lat="47.01114" lon="2.36295">
        <ele>164</ele>
        <time>2021-08-21T12:45:30Z</time>
      </trkpt>
      <trkpt lat="47.01109" lon="2.36294">
        <ele>164</ele>
        <time>2021-08-21T12:45:30Z</time>
      </trkpt>
      <trkpt lat="47.01103" lon="2.36293">
        <ele>164</ele>
        <time>2021-08-21T12:45:30Z</time>
      </trkpt>
      <trkpt lat="47.01097" lon="2.36291">
        <ele>164</ele>
        <time>2021-08-21T12:45:30Z</time>
      </trkpt>
      <trkpt lat="47.01091" lon="2.36289">
        <ele>164</ele>
        <time>2021-08-21T12:45:30Z</time>
      </trkpt>
      <trkpt lat="47.01086" lon="2.36288">
        <ele>164</ele>
        <time>2021-08-21T12:45:30Z</time>
      </trkpt>
      <trkpt lat="47.0108" lon="2.36285">
        <ele>163</ele>
        <time>2021-08-21T12:45:30Z</time>
      </trkpt>
      <trkpt lat="47.01074" lon="2.3628">
        <ele>163</ele>
        <time>2021-08-21T12:45:30Z</time>
      </trkpt>
      <trkpt lat="47.01069" lon="2.36276">
        <ele>163</ele>
        <time>2021-08-21T12:45:30Z</time>
      </trkpt>
      <trkpt lat="47.01063" lon="2.36273">
        <ele>163</ele>
        <time>2021-08-21T12:45:30Z</time>
      </trkpt>
      <trkpt lat="47.01057" lon="2.3627">
        <ele>163</ele>
        <time>2021-08-21T12:45:30Z</time>
      </trkpt>
      <trkpt lat="47.01052" lon="2.36267">
        <ele>163</ele>
        <time>2021-08-21T12:45:30Z</time>
      </trkpt>
      <trkpt lat="47.01046" lon="2.36264">
        <ele>163</ele>
        <time>2021-08-21T12:45:30Z</time>
      </trkpt>
      <trkpt lat="47.01041" lon="2.36262">
        <ele>163</ele>
        <time>2021-08-21T12:45:30Z</time>
      </trkpt>
      <trkpt lat="47.01035" lon="2.36259">
        <ele>163</ele>
        <time>2021-08-21T12:45:30Z</time>
      </trkpt>
      <trkpt lat="47.01029" lon="2.36257">
        <ele>163</ele>
        <time>2021-08-21T12:45:30Z</time>
      </trkpt>
      <trkpt lat="47.01023" lon="2.36254">
        <ele>163</ele>
        <time>2021-08-21T12:45:30Z</time>
      </trkpt>
      <trkpt lat="47.01018" lon="2.36252">
        <ele>163</ele>
        <time>2021-08-21T12:45:30Z</time>
      </trkpt>
      <trkpt lat="47.01012" lon="2.36249">
        <ele>163</ele>
        <time>2021-08-21T12:45:30Z</time>
      </trkpt>
      <trkpt lat="47.01007" lon="2.36244">
        <ele>163</ele>
        <time>2021-08-21T12:45:30Z</time>
      </trkpt>
      <trkpt lat="47.01004" lon="2.36238">
        <ele>163</ele>
        <time>2021-08-21T12:45:30Z</time>
      </trkpt>
      <trkpt lat="47.01001" lon="2.36231">
        <ele>163</ele>
        <time>2021-08-21T12:45:30Z</time>
      </trkpt>
      <trkpt lat="47.00999" lon="2.36224">
        <ele>163</ele>
        <time>2021-08-21T12:45:30Z</time>
      </trkpt>
      <trkpt lat="47.00997" lon="2.36217">
        <ele>163</ele>
        <time>2021-08-21T12:45:30Z</time>
      </trkpt>
      <trkpt lat="47.00994" lon="2.3621">
        <ele>163</ele>
        <time>2021-08-21T12:45:30Z</time>
      </trkpt>
      <trkpt lat="47.00992" lon="2.36202">
        <ele>163</ele>
        <time>2021-08-21T12:45:30Z</time>
      </trkpt>
      <trkpt lat="47.0099" lon="2.36196">
        <ele>163</ele>
        <time>2021-08-21T12:45:30Z</time>
      </trkpt>
      <trkpt lat="47.00988" lon="2.36188">
        <ele>163</ele>
        <time>2021-08-21T12:45:30Z</time>
      </trkpt>
      <trkpt lat="47.00985" lon="2.36181">
        <ele>163</ele>
        <time>2021-08-21T12:45:30Z</time>
      </trkpt>
      <trkpt lat="47.00983" lon="2.36174">
        <ele>163</ele>
        <time>2021-08-21T12:45:30Z</time>
      </trkpt>
      <trkpt lat="47.0098" lon="2.36166">
        <ele>163</ele>
        <time>2021-08-21T12:45:30Z</time>
      </trkpt>
      <trkpt lat="47.00978" lon="2.36158">
        <ele>163</ele>
        <time>2021-08-21T12:45:30Z</time>
      </trkpt>
      <trkpt lat="47.00975" lon="2.3615">
        <ele>163</ele>
        <time>2021-08-21T12:45:30Z</time>
      </trkpt>
      <trkpt lat="47.00972" lon="2.36143">
        <ele>163</ele>
        <time>2021-08-21T12:45:30Z</time>
      </trkpt>
      <trkpt lat="47.0097" lon="2.36135">
        <ele>164</ele>
        <time>2021-08-21T12:45:30Z</time>
      </trkpt>
      <trkpt lat="47.00968" lon="2.36128">
        <ele>164</ele>
        <time>2021-08-21T12:45:30Z</time>
      </trkpt>
      <trkpt lat="47.00965" lon="2.36121">
        <ele>164</ele>
        <time>2021-08-21T12:45:30Z</time>
      </trkpt>
      <trkpt lat="47.00962" lon="2.36115">
        <ele>164</ele>
        <time>2021-08-21T12:45:30Z</time>
      </trkpt>
      <trkpt lat="47.00959" lon="2.36107">
        <ele>165</ele>
        <time>2021-08-21T12:45:30Z</time>
      </trkpt>
      <trkpt lat="47.00956" lon="2.36102">
        <ele>165</ele>
        <time>2021-08-21T12:45:30Z</time>
      </trkpt>
      <trkpt lat="47.00936" lon="2.36073">
        <ele>166</ele>
        <time>2021-08-21T12:45:30Z</time>
      </trkpt>
      <trkpt lat="47.00914" lon="2.36046">
        <ele>166</ele>
        <time>2021-08-21T12:45:30Z</time>
      </trkpt>
      <trkpt lat="47.00892" lon="2.36016">
        <ele>167</ele>
        <time>2021-08-21T12:45:30Z</time>
      </trkpt>
      <trkpt lat="47.00876" lon="2.35979">
        <ele>167</ele>
        <time>2021-08-21T12:45:30Z</time>
      </trkpt>
      <trkpt lat="47.00865" lon="2.35937">
        <ele>168</ele>
        <time>2021-08-21T12:45:30Z</time>
      </trkpt>
      <trkpt lat="47.00856" lon="2.35902">
        <ele>167</ele>
        <time>2021-08-21T12:45:30Z</time>
      </trkpt>
      <trkpt lat="47.00853" lon="2.35894">
        <ele>166</ele>
        <time>2021-08-21T12:45:30Z</time>
      </trkpt>
      <trkpt lat="47.0084" lon="2.35853">
        <ele>167</ele>
        <time>2021-08-21T12:45:30Z</time>
      </trkpt>
      <trkpt lat="47.00827" lon="2.35813">
        <ele>167</ele>
        <time>2021-08-21T12:45:30Z</time>
      </trkpt>
      <trkpt lat="47.00814" lon="2.35771">
        <ele>168</ele>
        <time>2021-08-21T12:45:30Z</time>
      </trkpt>
      <trkpt lat="47.00805" lon="2.35728">
        <ele>168</ele>
        <time>2021-08-21T12:45:30Z</time>
      </trkpt>
      <trkpt lat="47.00817" lon="2.35689">
        <ele>167</ele>
        <time>2021-08-21T12:45:30Z</time>
      </trkpt>
      <trkpt lat="47.00834" lon="2.35663">
        <ele>167</ele>
        <time>2021-08-21T12:45:30Z</time>
      </trkpt>
      <trkpt lat="47.00837" lon="2.35655">
        <ele>167</ele>
        <time>2021-08-21T12:45:30Z</time>
      </trkpt>
      <trkpt lat="47.00853" lon="2.35615">
        <ele>168</ele>
        <time>2021-08-21T12:45:30Z</time>
      </trkpt>
      <trkpt lat="47.00862" lon="2.35571">
        <ele>168</ele>
        <time>2021-08-21T12:45:30Z</time>
      </trkpt>
      <trkpt lat="47.00871" lon="2.35526">
        <ele>168</ele>
        <time>2021-08-21T12:45:30Z</time>
      </trkpt>
      <trkpt lat="47.00874" lon="2.3548">
        <ele>168</ele>
        <time>2021-08-21T12:45:30Z</time>
      </trkpt>
      <trkpt lat="47.00874" lon="2.35431">
        <ele>169</ele>
        <time>2021-08-21T12:45:30Z</time>
      </trkpt>
      <trkpt lat="47.00875" lon="2.35394">
        <ele>168</ele>
        <time>2021-08-21T12:45:30Z</time>
      </trkpt>
      <trkpt lat="47.00874" lon="2.35384">
        <ele>168</ele>
        <time>2021-08-21T12:45:30Z</time>
      </trkpt>
      <trkpt lat="47.00874" lon="2.35365">
        <ele>168</ele>
        <time>2021-08-21T12:45:30Z</time>
      </trkpt>
      <trkpt lat="47.00874" lon="2.35355">
        <ele>168</ele>
        <time>2021-08-21T12:45:30Z</time>
      </trkpt>
      <trkpt lat="47.00874" lon="2.35346">
        <ele>168</ele>
        <time>2021-08-21T12:45:30Z</time>
      </trkpt>
      <trkpt lat="47.00874" lon="2.35336">
        <ele>168</ele>
        <time>2021-08-21T12:45:30Z</time>
      </trkpt>
      <trkpt lat="47.00874" lon="2.35327">
        <ele>168</ele>
        <time>2021-08-21T12:45:30Z</time>
      </trkpt>
      <trkpt lat="47.00875" lon="2.35317">
        <ele>168</ele>
        <time>2021-08-21T12:45:30Z</time>
      </trkpt>
      <trkpt lat="47.00874" lon="2.35308">
        <ele>168</ele>
        <time>2021-08-21T12:45:30Z</time>
      </trkpt>
      <trkpt lat="47.00874" lon="2.35298">
        <ele>168</ele>
        <time>2021-08-21T12:45:30Z</time>
      </trkpt>
      <trkpt lat="47.00874" lon="2.35289">
        <ele>168</ele>
        <time>2021-08-21T12:45:30Z</time>
      </trkpt>
      <trkpt lat="47.00875" lon="2.35279">
        <ele>168</ele>
        <time>2021-08-21T12:45:30Z</time>
      </trkpt>
      <trkpt lat="47.00875" lon="2.35269">
        <ele>168</ele>
        <time>2021-08-21T12:45:30Z</time>
      </trkpt>
      <trkpt lat="47.00875" lon="2.3526">
        <ele>168</ele>
        <time>2021-08-21T12:45:30Z</time>
      </trkpt>
      <trkpt lat="47.00875" lon="2.35251">
        <ele>168</ele>
        <time>2021-08-21T12:45:30Z</time>
      </trkpt>
      <trkpt lat="47.00875" lon="2.35242">
        <ele>169</ele>
        <time>2021-08-21T12:45:30Z</time>
      </trkpt>
      <trkpt lat="47.00875" lon="2.35234">
        <ele>169</ele>
        <time>2021-08-21T12:45:30Z</time>
      </trkpt>
      <trkpt lat="47.00876" lon="2.35225">
        <ele>169</ele>
        <time>2021-08-21T12:45:30Z</time>
      </trkpt>
      <trkpt lat="47.00876" lon="2.35216">
        <ele>169</ele>
        <time>2021-08-21T12:45:30Z</time>
      </trkpt>
      <trkpt lat="47.00876" lon="2.35207">
        <ele>169</ele>
        <time>2021-08-21T12:45:30Z</time>
      </trkpt>
      <trkpt lat="47.00877" lon="2.35198">
        <ele>169</ele>
        <time>2021-08-21T12:45:30Z</time>
      </trkpt>
      <trkpt lat="47.00878" lon="2.35188">
        <ele>169</ele>
        <time>2021-08-21T12:45:30Z</time>
      </trkpt>
      <trkpt lat="47.00879" lon="2.35179">
        <ele>169</ele>
        <time>2021-08-21T12:45:30Z</time>
      </trkpt>
      <trkpt lat="47.0088" lon="2.3517">
        <ele>169</ele>
        <time>2021-08-21T12:45:30Z</time>
      </trkpt>
      <trkpt lat="47.00881" lon="2.35161">
        <ele>169</ele>
        <time>2021-08-21T12:45:30Z</time>
      </trkpt>
      <trkpt lat="47.00882" lon="2.35151">
        <ele>169</ele>
        <time>2021-08-21T12:45:30Z</time>
      </trkpt>
      <trkpt lat="47.00884" lon="2.35143">
        <ele>169</ele>
        <time>2021-08-21T12:45:30Z</time>
      </trkpt>
      <trkpt lat="47.00885" lon="2.35134">
        <ele>169</ele>
        <time>2021-08-21T12:45:30Z</time>
      </trkpt>
      <trkpt lat="47.00887" lon="2.35125">
        <ele>169</ele>
        <time>2021-08-21T12:45:30Z</time>
      </trkpt>
      <trkpt lat="47.00888" lon="2.35115">
        <ele>169</ele>
        <time>2021-08-21T12:45:30Z</time>
      </trkpt>
      <trkpt lat="47.0089" lon="2.35107">
        <ele>168</ele>
        <time>2021-08-21T12:45:30Z</time>
      </trkpt>
      <trkpt lat="47.00892" lon="2.35098">
        <ele>168</ele>
        <time>2021-08-21T12:45:30Z</time>
      </trkpt>
      <trkpt lat="47.00894" lon="2.35089">
        <ele>168</ele>
        <time>2021-08-21T12:45:30Z</time>
      </trkpt>
      <trkpt lat="47.00896" lon="2.35081">
        <ele>168</ele>
        <time>2021-08-21T12:45:30Z</time>
      </trkpt>
      <trkpt lat="47.00897" lon="2.35073">
        <ele>168</ele>
        <time>2021-08-21T12:45:30Z</time>
      </trkpt>
      <trkpt lat="47.00899" lon="2.35064">
        <ele>168</ele>
        <time>2021-08-21T12:45:30Z</time>
      </trkpt>
      <trkpt lat="47.00901" lon="2.35056">
        <ele>168</ele>
        <time>2021-08-21T12:45:30Z</time>
      </trkpt>
      <trkpt lat="47.00903" lon="2.35048">
        <ele>169</ele>
        <time>2021-08-21T12:45:30Z</time>
      </trkpt>
      <trkpt lat="47.00905" lon="2.3504">
        <ele>169</ele>
        <time>2021-08-21T12:45:30Z</time>
      </trkpt>
      <trkpt lat="47.00907" lon="2.35031">
        <ele>169</ele>
        <time>2021-08-21T12:45:30Z</time>
      </trkpt>
      <trkpt lat="47.00909" lon="2.35022">
        <ele>170</ele>
        <time>2021-08-21T12:45:30Z</time>
      </trkpt>
      <trkpt lat="47.00911" lon="2.35013">
        <ele>170</ele>
        <time>2021-08-21T12:45:30Z</time>
      </trkpt>
      <trkpt lat="47.00912" lon="2.35004">
        <ele>170</ele>
        <time>2021-08-21T12:45:30Z</time>
      </trkpt>
      <trkpt lat="47.00914" lon="2.34995">
        <ele>170</ele>
        <time>2021-08-21T12:45:30Z</time>
      </trkpt>
      <trkpt lat="47.00916" lon="2.34986">
        <ele>170</ele>
        <time>2021-08-21T12:45:30Z</time>
      </trkpt>
      <trkpt lat="47.00918" lon="2.34978">
        <ele>169</ele>
        <time>2021-08-21T12:45:30Z</time>
      </trkpt>
      <trkpt lat="47.0092" lon="2.34969">
        <ele>169</ele>
        <time>2021-08-21T12:45:30Z</time>
      </trkpt>
      <trkpt lat="47.00922" lon="2.3496">
        <ele>169</ele>
        <time>2021-08-21T12:45:30Z</time>
      </trkpt>
      <trkpt lat="47.00924" lon="2.34951">
        <ele>169</ele>
        <time>2021-08-21T12:45:30Z</time>
      </trkpt>
      <trkpt lat="47.00926" lon="2.34941">
        <ele>169</ele>
        <time>2021-08-21T12:45:30Z</time>
      </trkpt>
      <trkpt lat="47.00927" lon="2.34932">
        <ele>169</ele>
        <time>2021-08-21T12:45:30Z</time>
      </trkpt>
      <trkpt lat="47.00929" lon="2.34924">
        <ele>169</ele>
        <time>2021-08-21T12:45:30Z</time>
      </trkpt>
      <trkpt lat="47.00932" lon="2.34915">
        <ele>169</ele>
        <time>2021-08-21T12:45:30Z</time>
      </trkpt>
      <trkpt lat="47.00933" lon="2.34906">
        <ele>169</ele>
        <time>2021-08-21T12:45:30Z</time>
      </trkpt>
      <trkpt lat="47.00934" lon="2.34897">
        <ele>169</ele>
        <time>2021-08-21T12:45:30Z</time>
      </trkpt>
      <trkpt lat="47.00935" lon="2.34888">
        <ele>169</ele>
        <time>2021-08-21T12:45:30Z</time>
      </trkpt>
      <trkpt lat="47.00938" lon="2.34879">
        <ele>169</ele>
        <time>2021-08-21T12:45:30Z</time>
      </trkpt>
      <trkpt lat="47.0094" lon="2.34869">
        <ele>169</ele>
        <time>2021-08-21T12:45:30Z</time>
      </trkpt>
      <trkpt lat="47.00941" lon="2.34859">
        <ele>169</ele>
        <time>2021-08-21T12:45:30Z</time>
      </trkpt>
      <trkpt lat="47.00942" lon="2.34849">
        <ele>169</ele>
        <time>2021-08-21T12:45:30Z</time>
      </trkpt>
      <trkpt lat="47.00942" lon="2.34838">
        <ele>169</ele>
        <time>2021-08-21T12:45:30Z</time>
      </trkpt>
      <trkpt lat="47.00943" lon="2.34828">
        <ele>168</ele>
        <time>2021-08-21T12:45:30Z</time>
      </trkpt>
      <trkpt lat="47.00943" lon="2.34817">
        <ele>168</ele>
        <time>2021-08-21T12:45:30Z</time>
      </trkpt>
      <trkpt lat="47.00945" lon="2.34767">
        <ele>168</ele>
        <time>2021-08-21T12:45:30Z</time>
      </trkpt>
      <trkpt lat="47.00945" lon="2.34717">
        <ele>167</ele>
        <time>2021-08-21T12:45:30Z</time>
      </trkpt>
      <trkpt lat="47.00949" lon="2.34667">
        <ele>167</ele>
        <time>2021-08-21T12:45:30Z</time>
      </trkpt>
      <trkpt lat="47.00952" lon="2.34614">
        <ele>167</ele>
        <time>2021-08-21T12:45:30Z</time>
      </trkpt>
      <trkpt lat="47.00953" lon="2.34563">
        <ele>167</ele>
        <time>2021-08-21T12:45:30Z</time>
      </trkpt>
      <trkpt lat="47.00955" lon="2.34522">
        <ele>169</ele>
        <time>2021-08-21T12:45:30Z</time>
      </trkpt>
      <trkpt lat="47.00956" lon="2.34512">
        <ele>169</ele>
        <time>2021-08-21T12:45:30Z</time>
      </trkpt>
      <trkpt lat="47.00958" lon="2.34462">
        <ele>168</ele>
        <time>2021-08-21T12:45:30Z</time>
      </trkpt>
      <trkpt lat="47.0096" lon="2.34411">
        <ele>168</ele>
        <time>2021-08-21T12:45:30Z</time>
      </trkpt>
      <trkpt lat="47.00965" lon="2.34362">
        <ele>168</ele>
        <time>2021-08-21T12:45:30Z</time>
      </trkpt>
      <trkpt lat="47.00974" lon="2.3431">
        <ele>167</ele>
        <time>2021-08-21T12:45:30Z</time>
      </trkpt>
      <trkpt lat="47.00983" lon="2.34259">
        <ele>166</ele>
        <time>2021-08-21T12:45:30Z</time>
      </trkpt>
      <trkpt lat="47.0099" lon="2.34219">
        <ele>167</ele>
        <time>2021-08-21T12:45:30Z</time>
      </trkpt>
      <trkpt lat="47.00991" lon="2.34208">
        <ele>167</ele>
        <time>2021-08-21T12:45:30Z</time>
      </trkpt>
      <trkpt lat="47.00997" lon="2.34177">
        <ele>167</ele>
        <time>2021-08-21T12:45:30Z</time>
      </trkpt>
      <trkpt lat="47.00999" lon="2.34168">
        <ele>167</ele>
        <time>2021-08-21T12:45:30Z</time>
      </trkpt>
      <trkpt lat="47.01001" lon="2.34157">
        <ele>166</ele>
        <time>2021-08-21T12:45:30Z</time>
      </trkpt>
      <trkpt lat="47.01003" lon="2.34147">
        <ele>166</ele>
        <time>2021-08-21T12:45:30Z</time>
      </trkpt>
      <trkpt lat="47.01005" lon="2.34136">
        <ele>166</ele>
        <time>2021-08-21T12:45:30Z</time>
      </trkpt>
      <trkpt lat="47.01006" lon="2.34126">
        <ele>166</ele>
        <time>2021-08-21T12:45:30Z</time>
      </trkpt>
      <trkpt lat="47.01009" lon="2.34115">
        <ele>165</ele>
        <time>2021-08-21T12:45:30Z</time>
      </trkpt>
      <trkpt lat="47.0101" lon="2.34105">
        <ele>165</ele>
        <time>2021-08-21T12:45:30Z</time>
      </trkpt>
      <trkpt lat="47.01012" lon="2.34095">
        <ele>164</ele>
        <time>2021-08-21T12:45:30Z</time>
      </trkpt>
      <trkpt lat="47.01014" lon="2.34084">
        <ele>164</ele>
        <time>2021-08-21T12:45:30Z</time>
      </trkpt>
      <trkpt lat="47.01016" lon="2.34073">
        <ele>164</ele>
        <time>2021-08-21T12:45:30Z</time>
      </trkpt>
      <trkpt lat="47.01018" lon="2.34062">
        <ele>163</ele>
        <time>2021-08-21T12:45:30Z</time>
      </trkpt>
      <trkpt lat="47.0102" lon="2.34052">
        <ele>163</ele>
        <time>2021-08-21T12:45:30Z</time>
      </trkpt>
      <trkpt lat="47.01021" lon="2.34042">
        <ele>163</ele>
        <time>2021-08-21T12:45:30Z</time>
      </trkpt>
      <trkpt lat="47.01023" lon="2.34031">
        <ele>163</ele>
        <time>2021-08-21T12:45:30Z</time>
      </trkpt>
      <trkpt lat="47.01025" lon="2.34021">
        <ele>163</ele>
        <time>2021-08-21T12:45:30Z</time>
      </trkpt>
      <trkpt lat="47.01026" lon="2.3401">
        <ele>163</ele>
        <time>2021-08-21T12:45:30Z</time>
      </trkpt>
      <trkpt lat="47.01029" lon="2.33999">
        <ele>163</ele>
        <time>2021-08-21T12:45:30Z</time>
      </trkpt>
      <trkpt lat="47.0103" lon="2.33989">
        <ele>163</ele>
        <time>2021-08-21T12:45:30Z</time>
      </trkpt>
      <trkpt lat="47.01032" lon="2.33979">
        <ele>163</ele>
        <time>2021-08-21T12:45:30Z</time>
      </trkpt>
      <trkpt lat="47.01034" lon="2.33969">
        <ele>163</ele>
        <time>2021-08-21T12:45:30Z</time>
      </trkpt>
      <trkpt lat="47.01036" lon="2.33959">
        <ele>163</ele>
        <time>2021-08-21T12:45:30Z</time>
      </trkpt>
      <trkpt lat="47.01039" lon="2.33948">
        <ele>163</ele>
        <time>2021-08-21T12:45:30Z</time>
      </trkpt>
      <trkpt lat="47.0104" lon="2.33938">
        <ele>163</ele>
        <time>2021-08-21T12:45:30Z</time>
      </trkpt>
      <trkpt lat="47.01042" lon="2.33927">
        <ele>163</ele>
        <time>2021-08-21T12:45:30Z</time>
      </trkpt>
      <trkpt lat="47.01044" lon="2.33917">
        <ele>163</ele>
        <time>2021-08-21T12:45:30Z</time>
      </trkpt>
      <trkpt lat="47.01045" lon="2.33907">
        <ele>163</ele>
        <time>2021-08-21T12:45:30Z</time>
      </trkpt>
      <trkpt lat="47.01047" lon="2.33896">
        <ele>163</ele>
        <time>2021-08-21T12:45:30Z</time>
      </trkpt>
      <trkpt lat="47.01048" lon="2.33886">
        <ele>163</ele>
        <time>2021-08-21T12:45:30Z</time>
      </trkpt>
      <trkpt lat="47.01049" lon="2.33875">
        <ele>163</ele>
        <time>2021-08-21T12:45:30Z</time>
      </trkpt>
      <trkpt lat="47.0105" lon="2.33865">
        <ele>163</ele>
        <time>2021-08-21T12:45:30Z</time>
      </trkpt>
      <trkpt lat="47.01051" lon="2.33854">
        <ele>163</ele>
        <time>2021-08-21T12:45:30Z</time>
      </trkpt>
      <trkpt lat="47.01051" lon="2.33844">
        <ele>163</ele>
        <time>2021-08-21T12:45:30Z</time>
      </trkpt>
      <trkpt lat="47.01052" lon="2.33833">
        <ele>163</ele>
        <time>2021-08-21T12:45:30Z</time>
      </trkpt>
      <trkpt lat="47.01052" lon="2.33823">
        <ele>163</ele>
        <time>2021-08-21T12:45:30Z</time>
      </trkpt>
      <trkpt lat="47.01053" lon="2.33812">
        <ele>163</ele>
        <time>2021-08-21T12:45:30Z</time>
      </trkpt>
      <trkpt lat="47.01053" lon="2.33801">
        <ele>163</ele>
        <time>2021-08-21T12:45:30Z</time>
      </trkpt>
      <trkpt lat="47.01054" lon="2.3379">
        <ele>163</ele>
        <time>2021-08-21T12:45:30Z</time>
      </trkpt>
      <trkpt lat="47.01055" lon="2.3378">
        <ele>163</ele>
        <time>2021-08-21T12:45:30Z</time>
      </trkpt>
      <trkpt lat="47.01055" lon="2.33769">
        <ele>163</ele>
        <time>2021-08-21T12:45:30Z</time>
      </trkpt>
      <trkpt lat="47.01056" lon="2.33758">
        <ele>163</ele>
        <time>2021-08-21T12:45:30Z</time>
      </trkpt>
      <trkpt lat="47.01056" lon="2.33748">
        <ele>163</ele>
        <time>2021-08-21T12:45:30Z</time>
      </trkpt>
      <trkpt lat="47.01057" lon="2.33737">
        <ele>163</ele>
        <time>2021-08-21T12:45:30Z</time>
      </trkpt>
      <trkpt lat="47.01057" lon="2.33727">
        <ele>163</ele>
        <time>2021-08-21T12:45:30Z</time>
      </trkpt>
      <trkpt lat="47.01058" lon="2.33716">
        <ele>163</ele>
        <time>2021-08-21T12:45:30Z</time>
      </trkpt>
      <trkpt lat="47.01058" lon="2.33706">
        <ele>163</ele>
        <time>2021-08-21T12:45:30Z</time>
      </trkpt>
      <trkpt lat="47.01059" lon="2.33696">
        <ele>163</ele>
        <time>2021-08-21T12:45:30Z</time>
      </trkpt>
      <trkpt lat="47.01059" lon="2.33686">
        <ele>163</ele>
        <time>2021-08-21T12:45:30Z</time>
      </trkpt>
      <trkpt lat="47.0106" lon="2.33675">
        <ele>163</ele>
        <time>2021-08-21T12:45:30Z</time>
      </trkpt>
      <trkpt lat="47.01061" lon="2.33665">
        <ele>162</ele>
        <time>2021-08-21T12:45:30Z</time>
      </trkpt>
      <trkpt lat="47.01061" lon="2.33656">
        <ele>162</ele>
        <time>2021-08-21T12:45:30Z</time>
      </trkpt>
      <trkpt lat="47.01062" lon="2.33646">
        <ele>162</ele>
        <time>2021-08-21T12:45:30Z</time>
      </trkpt>
      <trkpt lat="47.01063" lon="2.33636">
        <ele>162</ele>
        <time>2021-08-21T12:45:30Z</time>
      </trkpt>
      <trkpt lat="47.01063" lon="2.33626">
        <ele>162</ele>
        <time>2021-08-21T12:45:30Z</time>
      </trkpt>
      <trkpt lat="47.01063" lon="2.33617">
        <ele>162</ele>
        <time>2021-08-21T12:45:30Z</time>
      </trkpt>
      <trkpt lat="47.01064" lon="2.33607">
        <ele>162</ele>
        <time>2021-08-21T12:45:30Z</time>
      </trkpt>
      <trkpt lat="47.01064" lon="2.33597">
        <ele>162</ele>
        <time>2021-08-21T12:45:30Z</time>
      </trkpt>
      <trkpt lat="47.01065" lon="2.33588">
        <ele>162</ele>
        <time>2021-08-21T12:45:30Z</time>
      </trkpt>
      <trkpt lat="47.01065" lon="2.33579">
        <ele>162</ele>
        <time>2021-08-21T12:45:30Z</time>
      </trkpt>
      <trkpt lat="47.01065" lon="2.3357">
        <ele>162</ele>
        <time>2021-08-21T12:45:30Z</time>
      </trkpt>
      <trkpt lat="47.01065" lon="2.33523">
        <ele>163</ele>
        <time>2021-08-21T12:45:30Z</time>
      </trkpt>
      <trkpt lat="47.01062" lon="2.33475">
        <ele>164</ele>
        <time>2021-08-21T12:45:30Z</time>
      </trkpt>
      <trkpt lat="47.01058" lon="2.33425">
        <ele>164</ele>
        <time>2021-08-21T12:45:30Z</time>
      </trkpt>
      <trkpt lat="47.01054" lon="2.33376">
        <ele>165</ele>
        <time>2021-08-21T12:45:30Z</time>
      </trkpt>
      <trkpt lat="47.01052" lon="2.33326">
        <ele>163</ele>
        <time>2021-08-21T12:45:30Z</time>
      </trkpt>
      <trkpt lat="47.01049" lon="2.33287">
        <ele>163</ele>
        <time>2021-08-21T12:45:30Z</time>
      </trkpt>
      <trkpt lat="47.01049" lon="2.33277">
        <ele>163</ele>
        <time>2021-08-21T12:45:30Z</time>
      </trkpt>
      <trkpt lat="47.01045" lon="2.33227">
        <ele>163</ele>
        <time>2021-08-21T12:45:30Z</time>
      </trkpt>
      <trkpt lat="47.01042" lon="2.33176">
        <ele>164</ele>
        <time>2021-08-21T12:45:30Z</time>
      </trkpt>
      <trkpt lat="47.01038" lon="2.33125">
        <ele>163</ele>
        <time>2021-08-21T12:45:30Z</time>
      </trkpt>
      <trkpt lat="47.01035" lon="2.33073">
        <ele>162</ele>
        <time>2021-08-21T12:45:30Z</time>
      </trkpt>
      <trkpt lat="47.01033" lon="2.33021">
        <ele>162</ele>
        <time>2021-08-21T12:45:30Z</time>
      </trkpt>
      <trkpt lat="47.01031" lon="2.3298">
        <ele>162</ele>
        <time>2021-08-21T12:45:30Z</time>
      </trkpt>
      <trkpt lat="47.01031" lon="2.3297">
        <ele>162</ele>
        <time>2021-08-21T12:45:30Z</time>
      </trkpt>
      <trkpt lat="47.01032" lon="2.3292">
        <ele>160</ele>
        <time>2021-08-21T12:45:30Z</time>
      </trkpt>
      <trkpt lat="47.01035" lon="2.3287">
        <ele>160</ele>
        <time>2021-08-21T12:45:30Z</time>
      </trkpt>
      <trkpt lat="47.01037" lon="2.32822">
        <ele>160</ele>
        <time>2021-08-21T12:45:30Z</time>
      </trkpt>
      <trkpt lat="47.01039" lon="2.32771">
        <ele>162</ele>
        <time>2021-08-21T12:45:30Z</time>
      </trkpt>
      <trkpt lat="47.01044" lon="2.32723">
        <ele>162</ele>
        <time>2021-08-21T12:45:30Z</time>
      </trkpt>
      <trkpt lat="47.01048" lon="2.32687">
        <ele>162</ele>
        <time>2021-08-21T12:45:30Z</time>
      </trkpt>
      <trkpt lat="47.01049" lon="2.32678">
        <ele>162</ele>
        <time>2021-08-21T12:45:30Z</time>
      </trkpt>
      <trkpt lat="47.01052" lon="2.32659">
        <ele>162</ele>
        <time>2021-08-21T12:45:30Z</time>
      </trkpt>
      <trkpt lat="47.01053" lon="2.32649">
        <ele>162</ele>
        <time>2021-08-21T12:45:30Z</time>
      </trkpt>
      <trkpt lat="47.01054" lon="2.32639">
        <ele>162</ele>
        <time>2021-08-21T12:45:30Z</time>
      </trkpt>
      <trkpt lat="47.01056" lon="2.3263">
        <ele>162</ele>
        <time>2021-08-21T12:45:30Z</time>
      </trkpt>
      <trkpt lat="47.01057" lon="2.3262">
        <ele>162</ele>
        <time>2021-08-21T12:45:30Z</time>
      </trkpt>
      <trkpt lat="47.01058" lon="2.3261">
        <ele>162</ele>
        <time>2021-08-21T12:45:30Z</time>
      </trkpt>
      <trkpt lat="47.01059" lon="2.326">
        <ele>162</ele>
        <time>2021-08-21T12:45:30Z</time>
      </trkpt>
      <trkpt lat="47.01061" lon="2.32591">
        <ele>161</ele>
        <time>2021-08-21T12:45:30Z</time>
      </trkpt>
      <trkpt lat="47.01062" lon="2.32581">
        <ele>161</ele>
        <time>2021-08-21T12:45:30Z</time>
      </trkpt>
      <trkpt lat="47.01063" lon="2.32571">
        <ele>161</ele>
        <time>2021-08-21T12:45:30Z</time>
      </trkpt>
      <trkpt lat="47.01064" lon="2.32561">
        <ele>160</ele>
        <time>2021-08-21T12:45:30Z</time>
      </trkpt>
      <trkpt lat="47.01066" lon="2.32551">
        <ele>160</ele>
        <time>2021-08-21T12:45:30Z</time>
      </trkpt>
      <trkpt lat="47.01067" lon="2.32541">
        <ele>159</ele>
        <time>2021-08-21T12:45:30Z</time>
      </trkpt>
      <trkpt lat="47.01068" lon="2.32532">
        <ele>159</ele>
        <time>2021-08-21T12:45:30Z</time>
      </trkpt>
      <trkpt lat="47.01069" lon="2.32523">
        <ele>159</ele>
        <time>2021-08-21T12:45:30Z</time>
      </trkpt>
      <trkpt lat="47.0107" lon="2.32513">
        <ele>159</ele>
        <time>2021-08-21T12:45:30Z</time>
      </trkpt>
      <trkpt lat="47.01071" lon="2.32504">
        <ele>159</ele>
        <time>2021-08-21T12:45:30Z</time>
      </trkpt>
      <trkpt lat="47.01073" lon="2.32494">
        <ele>159</ele>
        <time>2021-08-21T12:45:30Z</time>
      </trkpt>
      <trkpt lat="47.01074" lon="2.32485">
        <ele>159</ele>
        <time>2021-08-21T12:45:30Z</time>
      </trkpt>
      <trkpt lat="47.01074" lon="2.32475">
        <ele>160</ele>
        <time>2021-08-21T12:45:30Z</time>
      </trkpt>
      <trkpt lat="47.01076" lon="2.32466">
        <ele>160</ele>
        <time>2021-08-21T12:45:30Z</time>
      </trkpt>
      <trkpt lat="47.01077" lon="2.32457">
        <ele>160</ele>
        <time>2021-08-21T12:45:30Z</time>
      </trkpt>
      <trkpt lat="47.01078" lon="2.32447">
        <ele>161</ele>
        <time>2021-08-21T12:45:30Z</time>
      </trkpt>
      <trkpt lat="47.0108" lon="2.32438">
        <ele>161</ele>
        <time>2021-08-21T12:45:30Z</time>
      </trkpt>
      <trkpt lat="47.01081" lon="2.32429">
        <ele>161</ele>
        <time>2021-08-21T12:45:30Z</time>
      </trkpt>
      <trkpt lat="47.01082" lon="2.32419">
        <ele>161</ele>
        <time>2021-08-21T12:45:30Z</time>
      </trkpt>
      <trkpt lat="47.01083" lon="2.32409">
        <ele>162</ele>
        <time>2021-08-21T12:45:30Z</time>
      </trkpt>
      <trkpt lat="47.01084" lon="2.324">
        <ele>162</ele>
        <time>2021-08-21T12:45:30Z</time>
      </trkpt>
      <trkpt lat="47.01086" lon="2.3239">
        <ele>162</ele>
        <time>2021-08-21T12:45:30Z</time>
      </trkpt>
      <trkpt lat="47.01087" lon="2.3238">
        <ele>162</ele>
        <time>2021-08-21T12:45:30Z</time>
      </trkpt>
      <trkpt lat="47.01088" lon="2.32371">
        <ele>163</ele>
        <time>2021-08-21T12:45:30Z</time>
      </trkpt>
      <trkpt lat="47.0109" lon="2.32362">
        <ele>163</ele>
        <time>2021-08-21T12:45:30Z</time>
      </trkpt>
      <trkpt lat="47.01091" lon="2.32352">
        <ele>163</ele>
        <time>2021-08-21T12:45:30Z</time>
      </trkpt>
      <trkpt lat="47.01092" lon="2.32342">
        <ele>163</ele>
        <time>2021-08-21T12:45:30Z</time>
      </trkpt>
      <trkpt lat="47.01093" lon="2.32333">
        <ele>163</ele>
        <time>2021-08-21T12:45:30Z</time>
      </trkpt>
      <trkpt lat="47.01094" lon="2.32324">
        <ele>163</ele>
        <time>2021-08-21T12:45:30Z</time>
      </trkpt>
      <trkpt lat="47.01095" lon="2.32315">
        <ele>163</ele>
        <time>2021-08-21T12:45:30Z</time>
      </trkpt>
      <trkpt lat="47.01096" lon="2.32305">
        <ele>163</ele>
        <time>2021-08-21T12:45:30Z</time>
      </trkpt>
      <trkpt lat="47.01097" lon="2.32296">
        <ele>163</ele>
        <time>2021-08-21T12:45:30Z</time>
      </trkpt>
      <trkpt lat="47.01097" lon="2.32287">
        <ele>163</ele>
        <time>2021-08-21T12:45:30Z</time>
      </trkpt>
      <trkpt lat="47.01096" lon="2.32278">
        <ele>163</ele>
        <time>2021-08-21T12:45:30Z</time>
      </trkpt>
      <trkpt lat="47.01095" lon="2.32269">
        <ele>163</ele>
        <time>2021-08-21T12:45:30Z</time>
      </trkpt>
      <trkpt lat="47.01093" lon="2.32261">
        <ele>163</ele>
        <time>2021-08-21T12:45:30Z</time>
      </trkpt>
      <trkpt lat="47.01091" lon="2.32252">
        <ele>163</ele>
        <time>2021-08-21T12:45:30Z</time>
      </trkpt>
      <trkpt lat="47.01088" lon="2.32244">
        <ele>163</ele>
        <time>2021-08-21T12:45:30Z</time>
      </trkpt>
      <trkpt lat="47.01084" lon="2.32237">
        <ele>163</ele>
        <time>2021-08-21T12:45:30Z</time>
      </trkpt>
      <trkpt lat="47.0108" lon="2.3223">
        <ele>163</ele>
        <time>2021-08-21T12:45:30Z</time>
      </trkpt>
      <trkpt lat="47.01077" lon="2.32223">
        <ele>163</ele>
        <time>2021-08-21T12:45:30Z</time>
      </trkpt>
      <trkpt lat="47.01073" lon="2.32216">
        <ele>162</ele>
        <time>2021-08-21T12:45:30Z</time>
      </trkpt>
      <trkpt lat="47.01069" lon="2.32209">
        <ele>162</ele>
        <time>2021-08-21T12:45:30Z</time>
      </trkpt>
      <trkpt lat="47.01065" lon="2.32202">
        <ele>162</ele>
        <time>2021-08-21T12:45:30Z</time>
      </trkpt>
      <trkpt lat="47.01061" lon="2.32195">
        <ele>162</ele>
        <time>2021-08-21T12:45:30Z</time>
      </trkpt>
      <trkpt lat="47.01057" lon="2.32188">
        <ele>162</ele>
        <time>2021-08-21T12:45:30Z</time>
      </trkpt>
      <trkpt lat="47.01053" lon="2.32181">
        <ele>163</ele>
        <time>2021-08-21T12:45:30Z</time>
      </trkpt>
      <trkpt lat="47.01049" lon="2.32174">
        <ele>163</ele>
        <time>2021-08-21T12:45:30Z</time>
      </trkpt>
      <trkpt lat="47.01045" lon="2.32167">
        <ele>163</ele>
        <time>2021-08-21T12:45:30Z</time>
      </trkpt>
      <trkpt lat="47.01041" lon="2.3216">
        <ele>163</ele>
        <time>2021-08-21T12:45:30Z</time>
      </trkpt>
      <trkpt lat="47.01038" lon="2.32153">
        <ele>163</ele>
        <time>2021-08-21T12:45:30Z</time>
      </trkpt>
      <trkpt lat="47.01034" lon="2.32146">
        <ele>163</ele>
        <time>2021-08-21T12:45:30Z</time>
      </trkpt>
      <trkpt lat="47.01029" lon="2.32139">
        <ele>163</ele>
        <time>2021-08-21T12:45:30Z</time>
      </trkpt>
      <trkpt lat="47.01025" lon="2.32131">
        <ele>164</ele>
        <time>2021-08-21T12:45:30Z</time>
      </trkpt>
      <trkpt lat="47.01012" lon="2.32091">
        <ele>165</ele>
        <time>2021-08-21T12:45:30Z</time>
      </trkpt>
      <trkpt lat="47.0103" lon="2.32055">
        <ele>166</ele>
        <time>2021-08-21T12:45:30Z</time>
      </trkpt>
      <trkpt lat="47.01058" lon="2.3203">
        <ele>166</ele>
        <time>2021-08-21T12:45:30Z</time>
      </trkpt>
      <trkpt lat="47.01087" lon="2.32003">
        <ele>165</ele>
        <time>2021-08-21T12:45:30Z</time>
      </trkpt>
      <trkpt lat="47.01118" lon="2.31977">
        <ele>165</ele>
        <time>2021-08-21T12:45:30Z</time>
      </trkpt>
      <trkpt lat="47.0114" lon="2.31955">
        <ele>164</ele>
        <time>2021-08-21T12:45:30Z</time>
      </trkpt>
      <trkpt lat="47.01147" lon="2.31949">
        <ele>164</ele>
        <time>2021-08-21T12:45:30Z</time>
      </trkpt>
      <trkpt lat="47.01176" lon="2.31921">
        <ele>163</ele>
        <time>2021-08-21T12:45:30Z</time>
      </trkpt>
      <trkpt lat="47.01184" lon="2.31873">
        <ele>161</ele>
        <time>2021-08-21T12:45:30Z</time>
      </trkpt>
      <trkpt lat="47.01163" lon="2.31827">
        <ele>162</ele>
        <time>2021-08-21T12:45:30Z</time>
      </trkpt>
      <trkpt lat="47.01142" lon="2.31784">
        <ele>161</ele>
        <time>2021-08-21T12:45:30Z</time>
      </trkpt>
      <trkpt lat="47.01122" lon="2.31744">
        <ele>161</ele>
        <time>2021-08-21T12:45:30Z</time>
      </trkpt>
      <trkpt lat="47.01106" lon="2.31712">
        <ele>162</ele>
        <time>2021-08-21T12:45:30Z</time>
      </trkpt>
      <trkpt lat="47.01103" lon="2.31704">
        <ele>162</ele>
        <time>2021-08-21T12:45:30Z</time>
      </trkpt>
      <trkpt lat="47.01099" lon="2.31696">
        <ele>162</ele>
        <time>2021-08-21T12:45:30Z</time>
      </trkpt>
      <trkpt lat="47.01096" lon="2.31689">
        <ele>162</ele>
        <time>2021-08-21T12:45:30Z</time>
      </trkpt>
      <trkpt lat="47.01092" lon="2.31681">
        <ele>162</ele>
        <time>2021-08-21T12:45:30Z</time>
      </trkpt>
      <trkpt lat="47.01089" lon="2.31674">
        <ele>162</ele>
        <time>2021-08-21T12:45:30Z</time>
      </trkpt>
      <trkpt lat="47.01085" lon="2.31666">
        <ele>162</ele>
        <time>2021-08-21T12:45:30Z</time>
      </trkpt>
      <trkpt lat="47.01081" lon="2.31659">
        <ele>162</ele>
        <time>2021-08-21T12:45:30Z</time>
      </trkpt>
      <trkpt lat="47.01077" lon="2.3165">
        <ele>162</ele>
        <time>2021-08-21T12:45:30Z</time>
      </trkpt>
      <trkpt lat="47.01073" lon="2.31643">
        <ele>162</ele>
        <time>2021-08-21T12:45:30Z</time>
      </trkpt>
      <trkpt lat="47.01069" lon="2.31636">
        <ele>162</ele>
        <time>2021-08-21T12:45:30Z</time>
      </trkpt>
      <trkpt lat="47.01066" lon="2.31628">
        <ele>162</ele>
        <time>2021-08-21T12:45:30Z</time>
      </trkpt>
      <trkpt lat="47.01062" lon="2.31619">
        <ele>162</ele>
        <time>2021-08-21T12:45:30Z</time>
      </trkpt>
      <trkpt lat="47.01058" lon="2.31612">
        <ele>162</ele>
        <time>2021-08-21T12:45:30Z</time>
      </trkpt>
      <trkpt lat="47.01055" lon="2.31604">
        <ele>162</ele>
        <time>2021-08-21T12:45:30Z</time>
      </trkpt>
      <trkpt lat="47.0105" lon="2.31597">
        <ele>162</ele>
        <time>2021-08-21T12:45:30Z</time>
      </trkpt>
      <trkpt lat="47.01047" lon="2.31589">
        <ele>162</ele>
        <time>2021-08-21T12:45:30Z</time>
      </trkpt>
      <trkpt lat="47.01043" lon="2.31581">
        <ele>162</ele>
        <time>2021-08-21T12:45:30Z</time>
      </trkpt>
      <trkpt lat="47.01039" lon="2.31573">
        <ele>162</ele>
        <time>2021-08-21T12:45:30Z</time>
      </trkpt>
      <trkpt lat="47.01035" lon="2.31566">
        <ele>163</ele>
        <time>2021-08-21T12:45:30Z</time>
      </trkpt>
      <trkpt lat="47.01032" lon="2.31558">
        <ele>163</ele>
        <time>2021-08-21T12:45:30Z</time>
      </trkpt>
      <trkpt lat="47.01028" lon="2.3155">
        <ele>163</ele>
        <time>2021-08-21T12:45:30Z</time>
      </trkpt>
      <trkpt lat="47.01024" lon="2.31542">
        <ele>164</ele>
        <time>2021-08-21T12:45:30Z</time>
      </trkpt>
      <trkpt lat="47.0102" lon="2.31535">
        <ele>164</ele>
        <time>2021-08-21T12:45:30Z</time>
      </trkpt>
      <trkpt lat="47.01017" lon="2.31527">
        <ele>163</ele>
        <time>2021-08-21T12:45:30Z</time>
      </trkpt>
      <trkpt lat="47.01013" lon="2.31519">
        <ele>163</ele>
        <time>2021-08-21T12:45:30Z</time>
      </trkpt>
      <trkpt lat="47.01009" lon="2.31512">
        <ele>163</ele>
        <time>2021-08-21T12:45:30Z</time>
      </trkpt>
      <trkpt lat="47.01005" lon="2.31504">
        <ele>163</ele>
        <time>2021-08-21T12:45:30Z</time>
      </trkpt>
      <trkpt lat="47.01002" lon="2.31496">
        <ele>162</ele>
        <time>2021-08-21T12:45:30Z</time>
      </trkpt>
      <trkpt lat="47.00999" lon="2.31488">
        <ele>162</ele>
        <time>2021-08-21T12:45:30Z</time>
      </trkpt>
      <trkpt lat="47.00995" lon="2.31481">
        <ele>162</ele>
        <time>2021-08-21T12:45:30Z</time>
      </trkpt>
      <trkpt lat="47.00991" lon="2.31474">
        <ele>162</ele>
        <time>2021-08-21T12:45:30Z</time>
      </trkpt>
      <trkpt lat="47.00987" lon="2.31466">
        <ele>162</ele>
        <time>2021-08-21T12:45:30Z</time>
      </trkpt>
      <trkpt lat="47.00983" lon="2.31459">
        <ele>162</ele>
        <time>2021-08-21T12:45:30Z</time>
      </trkpt>
      <trkpt lat="47.00979" lon="2.31451">
        <ele>162</ele>
        <time>2021-08-21T12:45:30Z</time>
      </trkpt>
      <trkpt lat="47.00976" lon="2.31444">
        <ele>162</ele>
        <time>2021-08-21T12:45:30Z</time>
      </trkpt>
      <trkpt lat="47.00972" lon="2.31436">
        <ele>163</ele>
        <time>2021-08-21T12:45:30Z</time>
      </trkpt>
      <trkpt lat="47.00968" lon="2.31429">
        <ele>163</ele>
        <time>2021-08-21T12:45:30Z</time>
      </trkpt>
      <trkpt lat="47.00965" lon="2.31421">
        <ele>163</ele>
        <time>2021-08-21T12:45:30Z</time>
      </trkpt>
      <trkpt lat="47.00961" lon="2.31413">
        <ele>164</ele>
        <time>2021-08-21T12:45:30Z</time>
      </trkpt>
      <trkpt lat="47.00957" lon="2.31405">
        <ele>164</ele>
        <time>2021-08-21T12:45:30Z</time>
      </trkpt>
      <trkpt lat="47.00953" lon="2.31398">
        <ele>164</ele>
        <time>2021-08-21T12:45:30Z</time>
      </trkpt>
      <trkpt lat="47.00949" lon="2.3139">
        <ele>164</ele>
        <time>2021-08-21T12:45:30Z</time>
      </trkpt>
      <trkpt lat="47.00946" lon="2.31382">
        <ele>164</ele>
        <time>2021-08-21T12:45:30Z</time>
      </trkpt>
      <trkpt lat="47.00942" lon="2.31374">
        <ele>164</ele>
        <time>2021-08-21T12:45:30Z</time>
      </trkpt>
      <trkpt lat="47.00938" lon="2.31367">
        <ele>164</ele>
        <time>2021-08-21T12:45:30Z</time>
      </trkpt>
      <trkpt lat="47.00934" lon="2.31359">
        <ele>164</ele>
        <time>2021-08-21T12:45:30Z</time>
      </trkpt>
      <trkpt lat="47.00931" lon="2.31351">
        <ele>164</ele>
        <time>2021-08-21T12:45:30Z</time>
      </trkpt>
      <trkpt lat="47.00928" lon="2.31342">
        <ele>164</ele>
        <time>2021-08-21T12:45:30Z</time>
      </trkpt>
      <trkpt lat="47.00926" lon="2.31333">
        <ele>164</ele>
        <time>2021-08-21T12:45:30Z</time>
      </trkpt>
      <trkpt lat="47.00925" lon="2.31323">
        <ele>164</ele>
        <time>2021-08-21T12:45:30Z</time>
      </trkpt>
      <trkpt lat="47.00939" lon="2.3118">
        <ele>161</ele>
        <time>2021-08-21T12:45:30Z</time>
      </trkpt>
      <trkpt lat="47.00944" lon="2.31131">
        <ele>162</ele>
        <time>2021-08-21T12:45:30Z</time>
      </trkpt>
      <trkpt lat="47.0095" lon="2.31083">
        <ele>161</ele>
        <time>2021-08-21T12:45:30Z</time>
      </trkpt>
      <trkpt lat="47.00955" lon="2.31035">
        <ele>162</ele>
        <time>2021-08-21T12:45:30Z</time>
      </trkpt>
      <trkpt lat="47.00961" lon="2.30988">
        <ele>163</ele>
        <time>2021-08-21T12:45:30Z</time>
      </trkpt>
      <trkpt lat="47.00967" lon="2.30939">
        <ele>162</ele>
        <time>2021-08-21T12:45:30Z</time>
      </trkpt>
      <trkpt lat="47.00973" lon="2.30902">
        <ele>161</ele>
        <time>2021-08-21T12:45:30Z</time>
      </trkpt>
      <trkpt lat="47.00974" lon="2.30892">
        <ele>161</ele>
        <time>2021-08-21T12:45:30Z</time>
      </trkpt>
      <trkpt lat="47.00981" lon="2.30843">
        <ele>162</ele>
        <time>2021-08-21T12:45:30Z</time>
      </trkpt>
      <trkpt lat="47.00988" lon="2.30793">
        <ele>162</ele>
        <time>2021-08-21T12:45:30Z</time>
      </trkpt>
      <trkpt lat="47.00996" lon="2.30743">
        <ele>161</ele>
        <time>2021-08-21T12:45:30Z</time>
      </trkpt>
      <trkpt lat="47.01003" lon="2.30696">
        <ele>161</ele>
        <time>2021-08-21T12:45:30Z</time>
      </trkpt>
      <trkpt lat="47.0101" lon="2.30651">
        <ele>161</ele>
        <time>2021-08-21T12:45:30Z</time>
      </trkpt>
      <trkpt lat="47.01016" lon="2.30616">
        <ele>161</ele>
        <time>2021-08-21T12:45:30Z</time>
      </trkpt>
      <trkpt lat="47.01017" lon="2.30608">
        <ele>161</ele>
        <time>2021-08-21T12:45:30Z</time>
      </trkpt>
      <trkpt lat="47.01021" lon="2.30568">
        <ele>162</ele>
        <time>2021-08-21T12:45:30Z</time>
      </trkpt>
      <trkpt lat="47.01034" lon="2.3056">
        <ele>162</ele>
        <time>2021-08-21T12:45:30Z</time>
      </trkpt>
      <trkpt lat="47.01048" lon="2.30592">
        <ele>162</ele>
        <time>2021-08-21T12:45:30Z</time>
      </trkpt>
      <trkpt lat="47.01065" lon="2.30627">
        <ele>162</ele>
        <time>2021-08-21T12:45:30Z</time>
      </trkpt>
      <trkpt lat="47.01083" lon="2.30665">
        <ele>162</ele>
        <time>2021-08-21T12:45:30Z</time>
      </trkpt>
      <trkpt lat="47.011" lon="2.30699">
        <ele>161</ele>
        <time>2021-08-21T12:45:30Z</time>
      </trkpt>
      <trkpt lat="47.01104" lon="2.30707">
        <ele>161</ele>
        <time>2021-08-21T12:45:30Z</time>
      </trkpt>
      <trkpt lat="47.01117" lon="2.30733">
        <ele>160</ele>
        <time>2021-08-21T12:45:30Z</time>
      </trkpt>
      <trkpt lat="47.01121" lon="2.30743">
        <ele>160</ele>
        <time>2021-08-21T12:45:30Z</time>
      </trkpt>
      <trkpt lat="47.01126" lon="2.30751">
        <ele>159</ele>
        <time>2021-08-21T12:45:30Z</time>
      </trkpt>
      <trkpt lat="47.0113" lon="2.30761">
        <ele>159</ele>
        <time>2021-08-21T12:45:30Z</time>
      </trkpt>
      <trkpt lat="47.01134" lon="2.30769">
        <ele>159</ele>
        <time>2021-08-21T12:45:30Z</time>
      </trkpt>
      <trkpt lat="47.01139" lon="2.30778">
        <ele>159</ele>
        <time>2021-08-21T12:45:30Z</time>
      </trkpt>
      <trkpt lat="47.01143" lon="2.30787">
        <ele>158</ele>
        <time>2021-08-21T12:45:30Z</time>
      </trkpt>
      <trkpt lat="47.01147" lon="2.30796">
        <ele>158</ele>
        <time>2021-08-21T12:45:30Z</time>
      </trkpt>
      <trkpt lat="47.01151" lon="2.30805">
        <ele>158</ele>
        <time>2021-08-21T12:45:30Z</time>
      </trkpt>
      <trkpt lat="47.01155" lon="2.30814">
        <ele>158</ele>
        <time>2021-08-21T12:45:30Z</time>
      </trkpt>
      <trkpt lat="47.01159" lon="2.30823">
        <ele>158</ele>
        <time>2021-08-21T12:45:30Z</time>
      </trkpt>
      <trkpt lat="47.01164" lon="2.30832">
        <ele>158</ele>
        <time>2021-08-21T12:45:30Z</time>
      </trkpt>
      <trkpt lat="47.01168" lon="2.30841">
        <ele>159</ele>
        <time>2021-08-21T12:45:30Z</time>
      </trkpt>
      <trkpt lat="47.01173" lon="2.30851">
        <ele>159</ele>
        <time>2021-08-21T12:45:30Z</time>
      </trkpt>
      <trkpt lat="47.01176" lon="2.3086">
        <ele>159</ele>
        <time>2021-08-21T12:45:30Z</time>
      </trkpt>
      <trkpt lat="47.01181" lon="2.30869">
        <ele>159</ele>
        <time>2021-08-21T12:45:30Z</time>
      </trkpt>
      <trkpt lat="47.01185" lon="2.30878">
        <ele>159</ele>
        <time>2021-08-21T12:45:30Z</time>
      </trkpt>
      <trkpt lat="47.0119" lon="2.30886">
        <ele>159</ele>
        <time>2021-08-21T12:45:30Z</time>
      </trkpt>
      <trkpt lat="47.01193" lon="2.30895">
        <ele>159</ele>
        <time>2021-08-21T12:45:30Z</time>
      </trkpt>
      <trkpt lat="47.01197" lon="2.30903">
        <ele>158</ele>
        <time>2021-08-21T12:45:30Z</time>
      </trkpt>
      <trkpt lat="47.01202" lon="2.30912">
        <ele>158</ele>
        <time>2021-08-21T12:45:30Z</time>
      </trkpt>
      <trkpt lat="47.01205" lon="2.3092">
        <ele>159</ele>
        <time>2021-08-21T12:45:30Z</time>
      </trkpt>
      <trkpt lat="47.0121" lon="2.30928">
        <ele>159</ele>
        <time>2021-08-21T12:45:30Z</time>
      </trkpt>
      <trkpt lat="47.01214" lon="2.30936">
        <ele>159</ele>
        <time>2021-08-21T12:45:30Z</time>
      </trkpt>
      <trkpt lat="47.01218" lon="2.30944">
        <ele>159</ele>
        <time>2021-08-21T12:45:30Z</time>
      </trkpt>
      <trkpt lat="47.01223" lon="2.30951">
        <ele>160</ele>
        <time>2021-08-21T12:45:30Z</time>
      </trkpt>
      <trkpt lat="47.01227" lon="2.30958">
        <ele>160</ele>
        <time>2021-08-21T12:45:30Z</time>
      </trkpt>
      <trkpt lat="47.01232" lon="2.30964">
        <ele>160</ele>
        <time>2021-08-21T12:45:30Z</time>
      </trkpt>
      <trkpt lat="47.01237" lon="2.3097">
        <ele>160</ele>
        <time>2021-08-21T12:45:30Z</time>
      </trkpt>
      <trkpt lat="47.01243" lon="2.30976">
        <ele>159</ele>
        <time>2021-08-21T12:45:30Z</time>
      </trkpt>
      <trkpt lat="47.01248" lon="2.30981">
        <ele>159</ele>
        <time>2021-08-21T12:45:30Z</time>
      </trkpt>
      <trkpt lat="47.01254" lon="2.30987">
        <ele>159</ele>
        <time>2021-08-21T12:45:30Z</time>
      </trkpt>
      <trkpt lat="47.0126" lon="2.30992">
        <ele>159</ele>
        <time>2021-08-21T12:45:30Z</time>
      </trkpt>
      <trkpt lat="47.01266" lon="2.30998">
        <ele>159</ele>
        <time>2021-08-21T12:45:30Z</time>
      </trkpt>
      <trkpt lat="47.01271" lon="2.31003">
        <ele>159</ele>
        <time>2021-08-21T12:45:30Z</time>
      </trkpt>
      <trkpt lat="47.01277" lon="2.31008">
        <ele>159</ele>
        <time>2021-08-21T12:45:30Z</time>
      </trkpt>
      <trkpt lat="47.01283" lon="2.31013">
        <ele>159</ele>
        <time>2021-08-21T12:45:30Z</time>
      </trkpt>
      <trkpt lat="47.01289" lon="2.31019">
        <ele>159</ele>
        <time>2021-08-21T12:45:30Z</time>
      </trkpt>
      <trkpt lat="47.01295" lon="2.31024">
        <ele>159</ele>
        <time>2021-08-21T12:45:30Z</time>
      </trkpt>
      <trkpt lat="47.013" lon="2.31029">
        <ele>159</ele>
        <time>2021-08-21T12:45:30Z</time>
      </trkpt>
      <trkpt lat="47.01306" lon="2.31034">
        <ele>159</ele>
        <time>2021-08-21T12:45:30Z</time>
      </trkpt>
      <trkpt lat="47.01312" lon="2.31039">
        <ele>159</ele>
        <time>2021-08-21T12:45:30Z</time>
      </trkpt>
      <trkpt lat="47.01318" lon="2.31045">
        <ele>159</ele>
        <time>2021-08-21T12:45:30Z</time>
      </trkpt>
      <trkpt lat="47.01324" lon="2.3105">
        <ele>159</ele>
        <time>2021-08-21T12:45:30Z</time>
      </trkpt>
      <trkpt lat="47.0133" lon="2.31056">
        <ele>159</ele>
        <time>2021-08-21T12:45:30Z</time>
      </trkpt>
      <trkpt lat="47.01336" lon="2.31062">
        <ele>159</ele>
        <time>2021-08-21T12:45:30Z</time>
      </trkpt>
      <trkpt lat="47.01342" lon="2.31067">
        <ele>159</ele>
        <time>2021-08-21T12:45:30Z</time>
      </trkpt>
      <trkpt lat="47.01347" lon="2.31072">
        <ele>159</ele>
        <time>2021-08-21T12:45:30Z</time>
      </trkpt>
      <trkpt lat="47.01354" lon="2.31078">
        <ele>159</ele>
        <time>2021-08-21T12:45:30Z</time>
      </trkpt>
      <trkpt lat="47.01359" lon="2.31083">
        <ele>159</ele>
        <time>2021-08-21T12:45:30Z</time>
      </trkpt>
      <trkpt lat="47.01365" lon="2.31088">
        <ele>158</ele>
        <time>2021-08-21T12:45:30Z</time>
      </trkpt>
      <trkpt lat="47.01371" lon="2.31093">
        <ele>158</ele>
        <time>2021-08-21T12:45:30Z</time>
      </trkpt>
      <trkpt lat="47.01377" lon="2.31099">
        <ele>158</ele>
        <time>2021-08-21T12:45:30Z</time>
      </trkpt>
      <trkpt lat="47.01383" lon="2.31105">
        <ele>158</ele>
        <time>2021-08-21T12:45:30Z</time>
      </trkpt>
      <trkpt lat="47.01389" lon="2.31111">
        <ele>158</ele>
        <time>2021-08-21T12:45:30Z</time>
      </trkpt>
      <trkpt lat="47.01395" lon="2.31117">
        <ele>158</ele>
        <time>2021-08-21T12:45:30Z</time>
      </trkpt>
      <trkpt lat="47.01402" lon="2.31122">
        <ele>158</ele>
        <time>2021-08-21T12:45:30Z</time>
      </trkpt>
      <trkpt lat="47.01408" lon="2.31128">
        <ele>158</ele>
        <time>2021-08-21T12:45:30Z</time>
      </trkpt>
      <trkpt lat="47.01414" lon="2.31134">
        <ele>158</ele>
        <time>2021-08-21T12:45:30Z</time>
      </trkpt>
      <trkpt lat="47.01421" lon="2.31141">
        <ele>157</ele>
        <time>2021-08-21T12:45:30Z</time>
      </trkpt>
      <trkpt lat="47.01451" lon="2.31174">
        <ele>156</ele>
        <time>2021-08-21T12:45:30Z</time>
      </trkpt>
      <trkpt lat="47.01482" lon="2.31207">
        <ele>154</ele>
        <time>2021-08-21T12:45:30Z</time>
      </trkpt>
      <trkpt lat="47.0151" lon="2.31238">
        <ele>153</ele>
        <time>2021-08-21T12:45:30Z</time>
      </trkpt>
      <trkpt lat="47.01538" lon="2.31271">
        <ele>153</ele>
        <time>2021-08-21T12:45:30Z</time>
      </trkpt>
      <trkpt lat="47.01567" lon="2.31305">
        <ele>153</ele>
        <time>2021-08-21T12:45:30Z</time>
      </trkpt>
      <trkpt lat="47.01588" lon="2.31333">
        <ele>154</ele>
        <time>2021-08-21T12:45:30Z</time>
      </trkpt>
      <trkpt lat="47.01594" lon="2.3134">
        <ele>155</ele>
        <time>2021-08-21T12:45:30Z</time>
      </trkpt>
      <trkpt lat="47.01604" lon="2.31354">
        <ele>155</ele>
        <time>2021-08-21T12:45:30Z</time>
      </trkpt>
      <trkpt lat="47.01609" lon="2.31361">
        <ele>155</ele>
        <time>2021-08-21T12:45:30Z</time>
      </trkpt>
      <trkpt lat="47.01614" lon="2.31368">
        <ele>156</ele>
        <time>2021-08-21T12:45:30Z</time>
      </trkpt>
      <trkpt lat="47.01619" lon="2.31374">
        <ele>156</ele>
        <time>2021-08-21T12:45:30Z</time>
      </trkpt>
      <trkpt lat="47.01623" lon="2.3138">
        <ele>156</ele>
        <time>2021-08-21T12:45:30Z</time>
      </trkpt>
      <trkpt lat="47.01628" lon="2.31385">
        <ele>157</ele>
        <time>2021-08-21T12:45:30Z</time>
      </trkpt>
      <trkpt lat="47.01632" lon="2.31391">
        <ele>157</ele>
        <time>2021-08-21T12:45:30Z</time>
      </trkpt>
      <trkpt lat="47.01637" lon="2.31397">
        <ele>157</ele>
        <time>2021-08-21T12:45:30Z</time>
      </trkpt>
      <trkpt lat="47.01642" lon="2.31402">
        <ele>158</ele>
        <time>2021-08-21T12:45:30Z</time>
      </trkpt>
      <trkpt lat="47.01664" lon="2.31428">
        <ele>158</ele>
        <time>2021-08-21T12:45:30Z</time>
      </trkpt>
      <trkpt lat="47.01689" lon="2.31451">
        <ele>158</ele>
        <time>2021-08-21T12:45:30Z</time>
      </trkpt>
      <trkpt lat="47.01715" lon="2.31475">
        <ele>159</ele>
        <time>2021-08-21T12:45:30Z</time>
      </trkpt>
      <trkpt lat="47.0174" lon="2.31497">
        <ele>160</ele>
        <time>2021-08-21T12:45:30Z</time>
      </trkpt>
      <trkpt lat="47.01766" lon="2.31519">
        <ele>159</ele>
        <time>2021-08-21T12:45:30Z</time>
      </trkpt>
      <trkpt lat="47.01785" lon="2.31537">
        <ele>160</ele>
        <time>2021-08-21T12:45:30Z</time>
      </trkpt>
      <trkpt lat="47.01791" lon="2.31541">
        <ele>160</ele>
        <time>2021-08-21T12:45:30Z</time>
      </trkpt>
      <trkpt lat="47.01796" lon="2.31546">
        <ele>160</ele>
        <time>2021-08-21T12:45:30Z</time>
      </trkpt>
      <trkpt lat="47.01801" lon="2.3155">
        <ele>160</ele>
        <time>2021-08-21T12:45:30Z</time>
      </trkpt>
      <trkpt lat="47.01806" lon="2.31555">
        <ele>161</ele>
        <time>2021-08-21T12:45:30Z</time>
      </trkpt>
      <trkpt lat="47.01812" lon="2.3156">
        <ele>161</ele>
        <time>2021-08-21T12:45:30Z</time>
      </trkpt>
      <trkpt lat="47.01817" lon="2.31564">
        <ele>161</ele>
        <time>2021-08-21T12:45:30Z</time>
      </trkpt>
      <trkpt lat="47.01823" lon="2.31569">
        <ele>161</ele>
        <time>2021-08-21T12:45:30Z</time>
      </trkpt>
      <trkpt lat="47.01828" lon="2.31574">
        <ele>161</ele>
        <time>2021-08-21T12:45:30Z</time>
      </trkpt>
      <trkpt lat="47.01833" lon="2.31578">
        <ele>161</ele>
        <time>2021-08-21T12:45:30Z</time>
      </trkpt>
      <trkpt lat="47.01838" lon="2.31583">
        <ele>161</ele>
        <time>2021-08-21T12:45:30Z</time>
      </trkpt>
      <trkpt lat="47.01844" lon="2.31588">
        <ele>161</ele>
        <time>2021-08-21T12:45:30Z</time>
      </trkpt>
      <trkpt lat="47.01849" lon="2.31593">
        <ele>161</ele>
        <time>2021-08-21T12:45:30Z</time>
      </trkpt>
      <trkpt lat="47.01855" lon="2.31598">
        <ele>161</ele>
        <time>2021-08-21T12:45:30Z</time>
      </trkpt>
      <trkpt lat="47.0186" lon="2.31603">
        <ele>161</ele>
        <time>2021-08-21T12:45:30Z</time>
      </trkpt>
      <trkpt lat="47.01866" lon="2.31607">
        <ele>160</ele>
        <time>2021-08-21T12:45:30Z</time>
      </trkpt>
      <trkpt lat="47.0187" lon="2.31612">
        <ele>160</ele>
        <time>2021-08-21T12:45:30Z</time>
      </trkpt>
      <trkpt lat="47.01876" lon="2.31616">
        <ele>160</ele>
        <time>2021-08-21T12:45:30Z</time>
      </trkpt>
      <trkpt lat="47.01881" lon="2.31618">
        <ele>160</ele>
        <time>2021-08-21T12:45:30Z</time>
      </trkpt>
      <trkpt lat="47.01885" lon="2.31621">
        <ele>160</ele>
        <time>2021-08-21T12:45:30Z</time>
      </trkpt>
      <trkpt lat="47.01888" lon="2.31623">
        <ele>160</ele>
        <time>2021-08-21T12:45:30Z</time>
      </trkpt>
      <trkpt lat="47.0189" lon="2.31624">
        <ele>160</ele>
        <time>2021-08-21T12:45:30Z</time>
      </trkpt>
      <trkpt lat="47.01892" lon="2.31625">
        <ele>160</ele>
        <time>2021-08-21T12:45:30Z</time>
      </trkpt>
      <trkpt lat="47.01893" lon="2.31625">
        <ele>160</ele>
        <time>2021-08-21T12:45:30Z</time>
      </trkpt>
      <trkpt lat="47.01894" lon="2.31626">
        <ele>160</ele>
        <time>2021-08-21T12:45:30Z</time>
      </trkpt>
      <trkpt lat="47.01895" lon="2.31626">
        <ele>160</ele>
        <time>2021-08-21T12:45:30Z</time>
      </trkpt>
      <trkpt lat="47.01895" lon="2.31627">
        <ele>160</ele>
        <time>2021-08-21T12:45:30Z</time>
      </trkpt>
      <trkpt lat="47.01894" lon="2.31627">
        <ele>160</ele>
        <time>2021-08-21T12:45:30Z</time>
      </trkpt>
      <trkpt lat="47.01894" lon="2.31626">
        <ele>160</ele>
        <time>2021-08-21T12:45:30Z</time>
      </trkpt>
      <trkpt lat="47.01895" lon="2.31626">
        <ele>160</ele>
        <time>2021-08-21T12:45:30Z</time>
      </trkpt>
      <trkpt lat="47.01894" lon="2.31625">
        <ele>160</ele>
        <time>2021-08-21T12:45:30Z</time>
      </trkpt>
      <trkpt lat="47.01895" lon="2.31625">
        <ele>160</ele>
        <time>2021-08-21T12:45:30Z</time>
      </trkpt>
      <trkpt lat="47.01895" lon="2.31625">
        <ele>160</ele>
        <time>2021-08-21T12:45:30Z</time>
      </trkpt>
      <trkpt lat="47.01895" lon="2.31625">
        <ele>160</ele>
        <time>2021-08-21T12:45:30Z</time>
      </trkpt>
      <trkpt lat="47.01895" lon="2.31625">
        <ele>160</ele>
        <time>2021-08-21T12:45:30Z</time>
      </trkpt>
      <trkpt lat="47.01895" lon="2.31626">
        <ele>160</ele>
        <time>2021-08-21T12:45:30Z</time>
      </trkpt>
      <trkpt lat="47.01895" lon="2.31625">
        <ele>160</ele>
        <time>2021-08-21T12:45:30Z</time>
      </trkpt>
      <trkpt lat="47.01895" lon="2.31626">
        <ele>160</ele>
        <time>2021-08-21T12:45:30Z</time>
      </trkpt>
      <trkpt lat="47.01895" lon="2.31627">
        <ele>160</ele>
        <time>2021-08-21T12:45:30Z</time>
      </trkpt>
      <trkpt lat="47.01896" lon="2.31629">
        <ele>160</ele>
        <time>2021-08-21T12:45:30Z</time>
      </trkpt>
      <trkpt lat="47.01897" lon="2.31631">
        <ele>160</ele>
        <time>2021-08-21T12:45:30Z</time>
      </trkpt>
      <trkpt lat="47.01899" lon="2.31633">
        <ele>160</ele>
        <time>2021-08-21T12:45:30Z</time>
      </trkpt>
      <trkpt lat="47.01915" lon="2.31657">
        <ele>161</ele>
        <time>2021-08-21T12:45:30Z</time>
      </trkpt>
      <trkpt lat="47.01938" lon="2.31687">
        <ele>162</ele>
        <time>2021-08-21T12:45:30Z</time>
      </trkpt>
      <trkpt lat="47.01964" lon="2.31718">
        <ele>161</ele>
        <time>2021-08-21T12:45:30Z</time>
      </trkpt>
      <trkpt lat="47.01991" lon="2.3175">
        <ele>159</ele>
        <time>2021-08-21T12:45:30Z</time>
      </trkpt>
      <trkpt lat="47.02017" lon="2.31783">
        <ele>158</ele>
        <time>2021-08-21T12:45:30Z</time>
      </trkpt>
      <trkpt lat="47.02039" lon="2.3181">
        <ele>158</ele>
        <time>2021-08-21T12:45:30Z</time>
      </trkpt>
      <trkpt lat="47.02044" lon="2.31816">
        <ele>158</ele>
        <time>2021-08-21T12:45:30Z</time>
      </trkpt>
      <trkpt lat="47.02071" lon="2.31849">
        <ele>158</ele>
        <time>2021-08-21T12:45:30Z</time>
      </trkpt>
      <trkpt lat="47.02099" lon="2.31881">
        <ele>158</ele>
        <time>2021-08-21T12:45:30Z</time>
      </trkpt>
      <trkpt lat="47.02125" lon="2.31914">
        <ele>157</ele>
        <time>2021-08-21T12:45:30Z</time>
      </trkpt>
      <trkpt lat="47.02152" lon="2.31948">
        <ele>157</ele>
        <time>2021-08-21T12:45:30Z</time>
      </trkpt>
      <trkpt lat="47.02179" lon="2.3198">
        <ele>156</ele>
        <time>2021-08-21T12:45:30Z</time>
      </trkpt>
      <trkpt lat="47.02201" lon="2.32007">
        <ele>156</ele>
        <time>2021-08-21T12:45:30Z</time>
      </trkpt>
      <trkpt lat="47.02207" lon="2.32013">
        <ele>156</ele>
        <time>2021-08-21T12:45:30Z</time>
      </trkpt>
      <trkpt lat="47.02234" lon="2.32047">
        <ele>156</ele>
        <time>2021-08-21T12:45:30Z</time>
      </trkpt>
      <trkpt lat="47.02261" lon="2.32079">
        <ele>156</ele>
        <time>2021-08-21T12:45:30Z</time>
      </trkpt>
      <trkpt lat="47.02287" lon="2.32111">
        <ele>156</ele>
        <time>2021-08-21T12:45:30Z</time>
      </trkpt>
      <trkpt lat="47.02311" lon="2.3214">
        <ele>158</ele>
        <time>2021-08-21T12:45:30Z</time>
      </trkpt>
      <trkpt lat="47.02334" lon="2.32168">
        <ele>159</ele>
        <time>2021-08-21T12:45:30Z</time>
      </trkpt>
      <trkpt lat="47.02352" lon="2.3219">
        <ele>159</ele>
        <time>2021-08-21T12:45:30Z</time>
      </trkpt>
      <trkpt lat="47.02356" lon="2.32196">
        <ele>159</ele>
        <time>2021-08-21T12:45:30Z</time>
      </trkpt>
      <trkpt lat="47.02379" lon="2.32223">
        <ele>159</ele>
        <time>2021-08-21T12:45:30Z</time>
      </trkpt>
      <trkpt lat="47.02402" lon="2.32251">
        <ele>160</ele>
        <time>2021-08-21T12:45:30Z</time>
      </trkpt>
      <trkpt lat="47.02425" lon="2.3228">
        <ele>159</ele>
        <time>2021-08-21T12:45:30Z</time>
      </trkpt>
      <trkpt lat="47.02449" lon="2.32309">
        <ele>160</ele>
        <time>2021-08-21T12:45:30Z</time>
      </trkpt>
      <trkpt lat="47.02474" lon="2.32339">
        <ele>160</ele>
        <time>2021-08-21T12:45:30Z</time>
      </trkpt>
      <trkpt lat="47.02493" lon="2.32362">
        <ele>161</ele>
        <time>2021-08-21T12:45:30Z</time>
      </trkpt>
      <trkpt lat="47.02498" lon="2.32368">
        <ele>161</ele>
        <time>2021-08-21T12:45:30Z</time>
      </trkpt>
      <trkpt lat="47.02508" lon="2.3238">
        <ele>160</ele>
        <time>2021-08-21T12:45:30Z</time>
      </trkpt>
      <trkpt lat="47.02513" lon="2.32386">
        <ele>160</ele>
        <time>2021-08-21T12:45:30Z</time>
      </trkpt>
      <trkpt lat="47.02523" lon="2.32398">
        <ele>159</ele>
        <time>2021-08-21T12:45:30Z</time>
      </trkpt>
      <trkpt lat="47.02528" lon="2.32405">
        <ele>159</ele>
        <time>2021-08-21T12:45:30Z</time>
      </trkpt>
      <trkpt lat="47.02533" lon="2.32411">
        <ele>159</ele>
        <time>2021-08-21T12:45:30Z</time>
      </trkpt>
      <trkpt lat="47.02538" lon="2.32417">
        <ele>159</ele>
        <time>2021-08-21T12:45:30Z</time>
      </trkpt>
      <trkpt lat="47.02548" lon="2.32429">
        <ele>159</ele>
        <time>2021-08-21T12:45:30Z</time>
      </trkpt>
      <trkpt lat="47.02553" lon="2.32436">
        <ele>159</ele>
        <time>2021-08-21T12:45:30Z</time>
      </trkpt>
      <trkpt lat="47.02558" lon="2.32442">
        <ele>159</ele>
        <time>2021-08-21T12:45:30Z</time>
      </trkpt>
      <trkpt lat="47.02563" lon="2.32447">
        <ele>159</ele>
        <time>2021-08-21T12:45:30Z</time>
      </trkpt>
      <trkpt lat="47.02568" lon="2.32453">
        <ele>159</ele>
        <time>2021-08-21T12:45:30Z</time>
      </trkpt>
      <trkpt lat="47.02578" lon="2.32466">
        <ele>159</ele>
        <time>2021-08-21T12:45:30Z</time>
      </trkpt>
      <trkpt lat="47.02583" lon="2.32471">
        <ele>159</ele>
        <time>2021-08-21T12:45:30Z</time>
      </trkpt>
      <trkpt lat="47.02588" lon="2.32478">
        <ele>159</ele>
        <time>2021-08-21T12:45:30Z</time>
      </trkpt>
      <trkpt lat="47.02593" lon="2.32484">
        <ele>159</ele>
        <time>2021-08-21T12:45:30Z</time>
      </trkpt>
      <trkpt lat="47.02598" lon="2.3249">
        <ele>158</ele>
        <time>2021-08-21T12:45:30Z</time>
      </trkpt>
      <trkpt lat="47.02608" lon="2.32502">
        <ele>158</ele>
        <time>2021-08-21T12:45:30Z</time>
      </trkpt>
      <trkpt lat="47.02614" lon="2.32508">
        <ele>158</ele>
        <time>2021-08-21T12:45:30Z</time>
      </trkpt>
      <trkpt lat="47.02619" lon="2.32514">
        <ele>158</ele>
        <time>2021-08-21T12:45:30Z</time>
      </trkpt>
      <trkpt lat="47.02624" lon="2.3252">
        <ele>158</ele>
        <time>2021-08-21T12:45:30Z</time>
      </trkpt>
      <trkpt lat="47.02628" lon="2.32525">
        <ele>158</ele>
        <time>2021-08-21T12:45:30Z</time>
      </trkpt>
      <trkpt lat="47.02637" lon="2.32536">
        <ele>158</ele>
        <time>2021-08-21T12:45:30Z</time>
      </trkpt>
      <trkpt lat="47.02642" lon="2.32542">
        <ele>158</ele>
        <time>2021-08-21T12:45:30Z</time>
      </trkpt>
      <trkpt lat="47.02647" lon="2.32548">
        <ele>158</ele>
        <time>2021-08-21T12:45:30Z</time>
      </trkpt>
      <trkpt lat="47.02652" lon="2.32555">
        <ele>158</ele>
        <time>2021-08-21T12:45:30Z</time>
      </trkpt>
      <trkpt lat="47.02657" lon="2.32561">
        <ele>158</ele>
        <time>2021-08-21T12:45:30Z</time>
      </trkpt>
      <trkpt lat="47.02667" lon="2.32573">
        <ele>158</ele>
        <time>2021-08-21T12:45:30Z</time>
      </trkpt>
      <trkpt lat="47.02672" lon="2.3258">
        <ele>158</ele>
        <time>2021-08-21T12:45:30Z</time>
      </trkpt>
      <trkpt lat="47.02677" lon="2.32586">
        <ele>158</ele>
        <time>2021-08-21T12:45:30Z</time>
      </trkpt>
      <trkpt lat="47.02682" lon="2.32592">
        <ele>158</ele>
        <time>2021-08-21T12:45:30Z</time>
      </trkpt>
      <trkpt lat="47.02688" lon="2.32598">
        <ele>158</ele>
        <time>2021-08-21T12:45:30Z</time>
      </trkpt>
      <trkpt lat="47.02693" lon="2.32604">
        <ele>158</ele>
        <time>2021-08-21T12:45:30Z</time>
      </trkpt>
      <trkpt lat="47.02699" lon="2.3261">
        <ele>158</ele>
        <time>2021-08-21T12:45:30Z</time>
      </trkpt>
      <trkpt lat="47.02704" lon="2.32616">
        <ele>157</ele>
        <time>2021-08-21T12:45:30Z</time>
      </trkpt>
      <trkpt lat="47.0271" lon="2.32621">
        <ele>157</ele>
        <time>2021-08-21T12:45:30Z</time>
      </trkpt>
      <trkpt lat="47.02716" lon="2.32626">
        <ele>157</ele>
        <time>2021-08-21T12:45:30Z</time>
      </trkpt>
      <trkpt lat="47.02722" lon="2.32631">
        <ele>157</ele>
        <time>2021-08-21T12:45:30Z</time>
      </trkpt>
      <trkpt lat="47.02728" lon="2.32635">
        <ele>157</ele>
        <time>2021-08-21T12:45:30Z</time>
      </trkpt>
      <trkpt lat="47.02734" lon="2.32639">
        <ele>157</ele>
        <time>2021-08-21T12:45:30Z</time>
      </trkpt>
      <trkpt lat="47.0274" lon="2.32643">
        <ele>157</ele>
        <time>2021-08-21T12:45:30Z</time>
      </trkpt>
      <trkpt lat="47.02746" lon="2.32647">
        <ele>157</ele>
        <time>2021-08-21T12:45:30Z</time>
      </trkpt>
      <trkpt lat="47.02752" lon="2.3265">
        <ele>158</ele>
        <time>2021-08-21T12:45:30Z</time>
      </trkpt>
      <trkpt lat="47.02757" lon="2.32653">
        <ele>158</ele>
        <time>2021-08-21T12:45:30Z</time>
      </trkpt>
      <trkpt lat="47.02761" lon="2.32655">
        <ele>158</ele>
        <time>2021-08-21T12:45:30Z</time>
      </trkpt>
      <trkpt lat="47.02764" lon="2.32654">
        <ele>159</ele>
        <time>2021-08-21T12:45:30Z</time>
      </trkpt>
      <trkpt lat="47.02767" lon="2.32653">
        <ele>159</ele>
        <time>2021-08-21T12:45:30Z</time>
      </trkpt>
      <trkpt lat="47.02768" lon="2.32652">
        <ele>159</ele>
        <time>2021-08-21T12:45:30Z</time>
      </trkpt>
      <trkpt lat="47.02771" lon="2.3265">
        <ele>159</ele>
        <time>2021-08-21T12:45:30Z</time>
      </trkpt>
      <trkpt lat="47.02771" lon="2.3265">
        <ele>159</ele>
        <time>2021-08-21T12:45:30Z</time>
      </trkpt>
      <trkpt lat="47.02771" lon="2.3265">
        <ele>159</ele>
        <time>2021-08-21T12:45:30Z</time>
      </trkpt>
      <trkpt lat="47.02771" lon="2.3265">
        <ele>159</ele>
        <time>2021-08-21T12:45:30Z</time>
      </trkpt>
      <trkpt lat="47.02771" lon="2.3265">
        <ele>159</ele>
        <time>2021-08-21T12:45:30Z</time>
      </trkpt>
      <trkpt lat="47.02771" lon="2.3265">
        <ele>159</ele>
        <time>2021-08-21T12:45:30Z</time>
      </trkpt>
      <trkpt lat="47.02772" lon="2.32649">
        <ele>159</ele>
        <time>2021-08-21T12:45:30Z</time>
      </trkpt>
      <trkpt lat="47.02772" lon="2.32649">
        <ele>159</ele>
        <time>2021-08-21T12:45:30Z</time>
      </trkpt>
      <trkpt lat="47.02772" lon="2.32648">
        <ele>159</ele>
        <time>2021-08-21T12:45:30Z</time>
      </trkpt>
      <trkpt lat="47.02772" lon="2.32648">
        <ele>159</ele>
        <time>2021-08-21T12:45:30Z</time>
      </trkpt>
      <trkpt lat="47.02772" lon="2.32648">
        <ele>159</ele>
        <time>2021-08-21T12:45:30Z</time>
      </trkpt>
      <trkpt lat="47.02771" lon="2.32647">
        <ele>159</ele>
        <time>2021-08-21T12:45:30Z</time>
      </trkpt>
      <trkpt lat="47.02771" lon="2.32648">
        <ele>159</ele>
        <time>2021-08-21T12:45:30Z</time>
      </trkpt>
      <trkpt lat="47.02771" lon="2.32648">
        <ele>159</ele>
        <time>2021-08-21T12:45:30Z</time>
      </trkpt>
      <trkpt lat="47.02771" lon="2.32648">
        <ele>159</ele>
        <time>2021-08-21T12:45:30Z</time>
      </trkpt>
      <trkpt lat="47.02771" lon="2.32648">
        <ele>159</ele>
        <time>2021-08-21T12:45:30Z</time>
      </trkpt>
      <trkpt lat="47.02771" lon="2.32648">
        <ele>159</ele>
        <time>2021-08-21T12:45:30Z</time>
      </trkpt>
      <trkpt lat="47.02771" lon="2.32648">
        <ele>159</ele>
        <time>2021-08-21T12:45:30Z</time>
      </trkpt>
      <trkpt lat="47.02771" lon="2.32648">
        <ele>159</ele>
        <time>2021-08-21T12:45:30Z</time>
      </trkpt>
      <trkpt lat="47.02771" lon="2.32648">
        <ele>159</ele>
        <time>2021-08-21T12:45:30Z</time>
      </trkpt>
      <trkpt lat="47.02771" lon="2.32649">
        <ele>159</ele>
        <time>2021-08-21T12:45:30Z</time>
      </trkpt>
      <trkpt lat="47.02771" lon="2.32649">
        <ele>159</ele>
        <time>2021-08-21T12:45:30Z</time>
      </trkpt>
      <trkpt lat="47.02771" lon="2.32649">
        <ele>159</ele>
        <time>2021-08-21T12:45:30Z</time>
      </trkpt>
      <trkpt lat="47.0277" lon="2.32649">
        <ele>159</ele>
        <time>2021-08-21T12:45:30Z</time>
      </trkpt>
      <trkpt lat="47.0277" lon="2.32648">
        <ele>159</ele>
        <time>2021-08-21T12:45:30Z</time>
      </trkpt>
      <trkpt lat="47.0277" lon="2.32644">
        <ele>159</ele>
        <time>2021-08-21T12:45:30Z</time>
      </trkpt>
      <trkpt lat="47.02772" lon="2.32662">
        <ele>159</ele>
        <time>2021-08-21T12:45:30Z</time>
      </trkpt>
      <trkpt lat="47.02795" lon="2.3268">
        <ele>161</ele>
        <time>2021-08-21T12:45:30Z</time>
      </trkpt>
      <trkpt lat="47.02821" lon="2.32702">
        <ele>161</ele>
        <time>2021-08-21T12:45:30Z</time>
      </trkpt>
      <trkpt lat="47.02843" lon="2.32721">
        <ele>161</ele>
        <time>2021-08-21T12:45:30Z</time>
      </trkpt>
      <trkpt lat="47.02848" lon="2.32726">
        <ele>161</ele>
        <time>2021-08-21T12:45:30Z</time>
      </trkpt>
      <trkpt lat="47.02876" lon="2.32754">
        <ele>161</ele>
        <time>2021-08-21T12:45:30Z</time>
      </trkpt>
      <trkpt lat="47.02901" lon="2.32788">
        <ele>160</ele>
        <time>2021-08-21T12:45:30Z</time>
      </trkpt>
      <trkpt lat="47.02924" lon="2.32825">
        <ele>159</ele>
        <time>2021-08-21T12:45:30Z</time>
      </trkpt>
      <trkpt lat="47.02947" lon="2.32862">
        <ele>158</ele>
        <time>2021-08-21T12:45:30Z</time>
      </trkpt>
      <trkpt lat="47.0297" lon="2.32898">
        <ele>158</ele>
        <time>2021-08-21T12:45:30Z</time>
      </trkpt>
      <trkpt lat="47.0299" lon="2.32925">
        <ele>158</ele>
        <time>2021-08-21T12:45:30Z</time>
      </trkpt>
      <trkpt lat="47.02995" lon="2.32932">
        <ele>158</ele>
        <time>2021-08-21T12:45:30Z</time>
      </trkpt>
      <trkpt lat="47.03022" lon="2.32963">
        <ele>158</ele>
        <time>2021-08-21T12:45:30Z</time>
      </trkpt>
      <trkpt lat="47.03051" lon="2.32993">
        <ele>157</ele>
        <time>2021-08-21T12:45:30Z</time>
      </trkpt>
      <trkpt lat="47.03079" lon="2.33023">
        <ele>158</ele>
        <time>2021-08-21T12:45:30Z</time>
      </trkpt>
      <trkpt lat="47.03104" lon="2.33052">
        <ele>159</ele>
        <time>2021-08-21T12:45:30Z</time>
      </trkpt>
      <trkpt lat="47.03128" lon="2.33081">
        <ele>158</ele>
        <time>2021-08-21T12:45:30Z</time>
      </trkpt>
      <trkpt lat="47.03146" lon="2.33105">
        <ele>158</ele>
        <time>2021-08-21T12:45:30Z</time>
      </trkpt>
      <trkpt lat="47.03151" lon="2.33112">
        <ele>158</ele>
        <time>2021-08-21T12:45:30Z</time>
      </trkpt>
      <trkpt lat="47.0316" lon="2.33124">
        <ele>158</ele>
        <time>2021-08-21T12:45:30Z</time>
      </trkpt>
      <trkpt lat="47.03165" lon="2.3313">
        <ele>158</ele>
        <time>2021-08-21T12:45:30Z</time>
      </trkpt>
      <trkpt lat="47.03169" lon="2.33136">
        <ele>157</ele>
        <time>2021-08-21T12:45:30Z</time>
      </trkpt>
      <trkpt lat="47.03174" lon="2.33142">
        <ele>157</ele>
        <time>2021-08-21T12:45:30Z</time>
      </trkpt>
      <trkpt lat="47.03178" lon="2.33148">
        <ele>157</ele>
        <time>2021-08-21T12:45:30Z</time>
      </trkpt>
      <trkpt lat="47.03183" lon="2.33155">
        <ele>157</ele>
        <time>2021-08-21T12:45:30Z</time>
      </trkpt>
      <trkpt lat="47.03188" lon="2.33161">
        <ele>157</ele>
        <time>2021-08-21T12:45:30Z</time>
      </trkpt>
      <trkpt lat="47.03193" lon="2.33167">
        <ele>157</ele>
        <time>2021-08-21T12:45:30Z</time>
      </trkpt>
      <trkpt lat="47.03197" lon="2.33174">
        <ele>157</ele>
        <time>2021-08-21T12:45:30Z</time>
      </trkpt>
      <trkpt lat="47.03202" lon="2.3318">
        <ele>157</ele>
        <time>2021-08-21T12:45:30Z</time>
      </trkpt>
      <trkpt lat="47.03206" lon="2.33186">
        <ele>157</ele>
        <time>2021-08-21T12:45:30Z</time>
      </trkpt>
      <trkpt lat="47.03211" lon="2.33193">
        <ele>157</ele>
        <time>2021-08-21T12:45:30Z</time>
      </trkpt>
      <trkpt lat="47.03215" lon="2.33199">
        <ele>157</ele>
        <time>2021-08-21T12:45:30Z</time>
      </trkpt>
      <trkpt lat="47.0322" lon="2.33205">
        <ele>157</ele>
        <time>2021-08-21T12:45:30Z</time>
      </trkpt>
      <trkpt lat="47.03225" lon="2.33211">
        <ele>158</ele>
        <time>2021-08-21T12:45:30Z</time>
      </trkpt>
      <trkpt lat="47.0323" lon="2.33218">
        <ele>158</ele>
        <time>2021-08-21T12:45:30Z</time>
      </trkpt>
      <trkpt lat="47.03234" lon="2.33224">
        <ele>159</ele>
        <time>2021-08-21T12:45:30Z</time>
      </trkpt>
      <trkpt lat="47.03239" lon="2.3323">
        <ele>159</ele>
        <time>2021-08-21T12:45:30Z</time>
      </trkpt>
      <trkpt lat="47.03244" lon="2.33236">
        <ele>160</ele>
        <time>2021-08-21T12:45:30Z</time>
      </trkpt>
      <trkpt lat="47.03249" lon="2.33241">
        <ele>160</ele>
        <time>2021-08-21T12:45:30Z</time>
      </trkpt>
      <trkpt lat="47.03254" lon="2.33247">
        <ele>160</ele>
        <time>2021-08-21T12:45:30Z</time>
      </trkpt>
      <trkpt lat="47.03259" lon="2.33253">
        <ele>161</ele>
        <time>2021-08-21T12:45:30Z</time>
      </trkpt>
      <trkpt lat="47.03264" lon="2.33258">
        <ele>161</ele>
        <time>2021-08-21T12:45:30Z</time>
      </trkpt>
      <trkpt lat="47.03269" lon="2.33263">
        <ele>161</ele>
        <time>2021-08-21T12:45:30Z</time>
      </trkpt>
      <trkpt lat="47.03274" lon="2.33269">
        <ele>161</ele>
        <time>2021-08-21T12:45:30Z</time>
      </trkpt>
      <trkpt lat="47.03279" lon="2.33275">
        <ele>160</ele>
        <time>2021-08-21T12:45:30Z</time>
      </trkpt>
      <trkpt lat="47.03284" lon="2.3328">
        <ele>160</ele>
        <time>2021-08-21T12:45:30Z</time>
      </trkpt>
      <trkpt lat="47.03309" lon="2.33308">
        <ele>159</ele>
        <time>2021-08-21T12:45:30Z</time>
      </trkpt>
      <trkpt lat="47.03333" lon="2.33337">
        <ele>160</ele>
        <time>2021-08-21T12:45:30Z</time>
      </trkpt>
      <trkpt lat="47.03358" lon="2.33364">
        <ele>161</ele>
        <time>2021-08-21T12:45:30Z</time>
      </trkpt>
      <trkpt lat="47.03383" lon="2.33394">
        <ele>160</ele>
        <time>2021-08-21T12:45:30Z</time>
      </trkpt>
      <trkpt lat="47.03408" lon="2.33424">
        <ele>160</ele>
        <time>2021-08-21T12:45:30Z</time>
      </trkpt>
      <trkpt lat="47.03428" lon="2.3345">
        <ele>160</ele>
        <time>2021-08-21T12:45:30Z</time>
      </trkpt>
      <trkpt lat="47.03433" lon="2.33457">
        <ele>160</ele>
        <time>2021-08-21T12:45:30Z</time>
      </trkpt>
      <trkpt lat="47.03456" lon="2.33491">
        <ele>160</ele>
        <time>2021-08-21T12:45:30Z</time>
      </trkpt>
      <trkpt lat="47.03479" lon="2.33524">
        <ele>161</ele>
        <time>2021-08-21T12:45:30Z</time>
      </trkpt>
      <trkpt lat="47.03502" lon="2.33557">
        <ele>161</ele>
        <time>2021-08-21T12:45:30Z</time>
      </trkpt>
      <trkpt lat="47.03524" lon="2.33591">
        <ele>160</ele>
        <time>2021-08-21T12:45:30Z</time>
      </trkpt>
      <trkpt lat="47.03547" lon="2.33625">
        <ele>160</ele>
        <time>2021-08-21T12:45:30Z</time>
      </trkpt>
      <trkpt lat="47.03565" lon="2.33653">
        <ele>160</ele>
        <time>2021-08-21T12:45:30Z</time>
      </trkpt>
      <trkpt lat="47.0357" lon="2.3366">
        <ele>161</ele>
        <time>2021-08-21T12:45:30Z</time>
      </trkpt>
      <trkpt lat="47.03593" lon="2.33694">
        <ele>162</ele>
        <time>2021-08-21T12:45:30Z</time>
      </trkpt>
      <trkpt lat="47.03616" lon="2.33726">
        <ele>161</ele>
        <time>2021-08-21T12:45:30Z</time>
      </trkpt>
      <trkpt lat="47.03636" lon="2.33756">
        <ele>158</ele>
        <time>2021-08-21T12:45:30Z</time>
      </trkpt>
      <trkpt lat="47.03655" lon="2.33784">
        <ele>159</ele>
        <time>2021-08-21T12:45:30Z</time>
      </trkpt>
      <trkpt lat="47.03676" lon="2.33805">
        <ele>158</ele>
        <time>2021-08-21T12:45:30Z</time>
      </trkpt>
      <trkpt lat="47.037" lon="2.3381">
        <ele>159</ele>
        <time>2021-08-21T12:45:30Z</time>
      </trkpt>
      <trkpt lat="47.03706" lon="2.33812">
        <ele>159</ele>
        <time>2021-08-21T12:45:30Z</time>
      </trkpt>
      <trkpt lat="47.03737" lon="2.33808">
        <ele>161</ele>
        <time>2021-08-21T12:45:30Z</time>
      </trkpt>
      <trkpt lat="47.03767" lon="2.33793">
        <ele>162</ele>
        <time>2021-08-21T12:45:30Z</time>
      </trkpt>
      <trkpt lat="47.03797" lon="2.33772">
        <ele>161</ele>
        <time>2021-08-21T12:45:30Z</time>
      </trkpt>
      <trkpt lat="47.03827" lon="2.33752">
        <ele>160</ele>
        <time>2021-08-21T12:45:30Z</time>
      </trkpt>
      <trkpt lat="47.03858" lon="2.3373">
        <ele>159</ele>
        <time>2021-08-21T12:45:30Z</time>
      </trkpt>
      <trkpt lat="47.03883" lon="2.33715">
        <ele>159</ele>
        <time>2021-08-21T12:45:30Z</time>
      </trkpt>
      <trkpt lat="47.03889" lon="2.33712">
        <ele>159</ele>
        <time>2021-08-21T12:45:30Z</time>
      </trkpt>
      <trkpt lat="47.03894" lon="2.33708">
        <ele>159</ele>
        <time>2021-08-21T12:45:30Z</time>
      </trkpt>
      <trkpt lat="47.03901" lon="2.33704">
        <ele>159</ele>
        <time>2021-08-21T12:45:30Z</time>
      </trkpt>
      <trkpt lat="47.03907" lon="2.337">
        <ele>159</ele>
        <time>2021-08-21T12:45:30Z</time>
      </trkpt>
      <trkpt lat="47.03913" lon="2.33696">
        <ele>159</ele>
        <time>2021-08-21T12:45:30Z</time>
      </trkpt>
      <trkpt lat="47.03919" lon="2.33692">
        <ele>158</ele>
        <time>2021-08-21T12:45:30Z</time>
      </trkpt>
      <trkpt lat="47.03925" lon="2.33689">
        <ele>158</ele>
        <time>2021-08-21T12:45:30Z</time>
      </trkpt>
      <trkpt lat="47.03932" lon="2.33685">
        <ele>158</ele>
        <time>2021-08-21T12:45:30Z</time>
      </trkpt>
      <trkpt lat="47.03938" lon="2.33681">
        <ele>158</ele>
        <time>2021-08-21T12:45:30Z</time>
      </trkpt>
      <trkpt lat="47.03944" lon="2.33678">
        <ele>158</ele>
        <time>2021-08-21T12:45:30Z</time>
      </trkpt>
      <trkpt lat="47.0395" lon="2.33674">
        <ele>157</ele>
        <time>2021-08-21T12:45:30Z</time>
      </trkpt>
      <trkpt lat="47.03957" lon="2.33671">
        <ele>157</ele>
        <time>2021-08-21T12:45:30Z</time>
      </trkpt>
      <trkpt lat="47.03963" lon="2.3367">
        <ele>157</ele>
        <time>2021-08-21T12:45:30Z</time>
      </trkpt>
      <trkpt lat="47.0397" lon="2.33667">
        <ele>157</ele>
        <time>2021-08-21T12:45:30Z</time>
      </trkpt>
      <trkpt lat="47.03976" lon="2.33664">
        <ele>156</ele>
        <time>2021-08-21T12:45:30Z</time>
      </trkpt>
      <trkpt lat="47.03983" lon="2.33661">
        <ele>156</ele>
        <time>2021-08-21T12:45:30Z</time>
      </trkpt>
      <trkpt lat="47.03989" lon="2.33659">
        <ele>156</ele>
        <time>2021-08-21T12:45:30Z</time>
      </trkpt>
      <trkpt lat="47.03996" lon="2.33656">
        <ele>155</ele>
        <time>2021-08-21T12:45:30Z</time>
      </trkpt>
      <trkpt lat="47.04003" lon="2.33652">
        <ele>155</ele>
        <time>2021-08-21T12:45:30Z</time>
      </trkpt>
      <trkpt lat="47.04009" lon="2.33649">
        <ele>155</ele>
        <time>2021-08-21T12:45:30Z</time>
      </trkpt>
      <trkpt lat="47.04016" lon="2.33645">
        <ele>154</ele>
        <time>2021-08-21T12:45:30Z</time>
      </trkpt>
      <trkpt lat="47.04022" lon="2.33643">
        <ele>154</ele>
        <time>2021-08-21T12:45:30Z</time>
      </trkpt>
      <trkpt lat="47.04028" lon="2.3364">
        <ele>154</ele>
        <time>2021-08-21T12:45:30Z</time>
      </trkpt>
      <trkpt lat="47.04035" lon="2.33636">
        <ele>153</ele>
        <time>2021-08-21T12:45:30Z</time>
      </trkpt>
      <trkpt lat="47.04041" lon="2.33633">
        <ele>153</ele>
        <time>2021-08-21T12:45:30Z</time>
      </trkpt>
      <trkpt lat="47.04047" lon="2.33629">
        <ele>153</ele>
        <time>2021-08-21T12:45:30Z</time>
      </trkpt>
      <trkpt lat="47.04054" lon="2.33625">
        <ele>153</ele>
        <time>2021-08-21T12:45:30Z</time>
      </trkpt>
      <trkpt lat="47.0406" lon="2.33621">
        <ele>153</ele>
        <time>2021-08-21T12:45:30Z</time>
      </trkpt>
      <trkpt lat="47.04066" lon="2.33616">
        <ele>154</ele>
        <time>2021-08-21T12:45:30Z</time>
      </trkpt>
      <trkpt lat="47.04072" lon="2.33611">
        <ele>154</ele>
        <time>2021-08-21T12:45:30Z</time>
      </trkpt>
      <trkpt lat="47.04078" lon="2.33606">
        <ele>154</ele>
        <time>2021-08-21T12:45:30Z</time>
      </trkpt>
      <trkpt lat="47.04084" lon="2.336">
        <ele>155</ele>
        <time>2021-08-21T12:45:30Z</time>
      </trkpt>
      <trkpt lat="47.04089" lon="2.33594">
        <ele>155</ele>
        <time>2021-08-21T12:45:30Z</time>
      </trkpt>
      <trkpt lat="47.04094" lon="2.33587">
        <ele>155</ele>
        <time>2021-08-21T12:45:30Z</time>
      </trkpt>
      <trkpt lat="47.041" lon="2.3358">
        <ele>155</ele>
        <time>2021-08-21T12:45:30Z</time>
      </trkpt>
      <trkpt lat="47.04105" lon="2.33573">
        <ele>155</ele>
        <time>2021-08-21T12:45:30Z</time>
      </trkpt>
      <trkpt lat="47.0411" lon="2.33566">
        <ele>155</ele>
        <time>2021-08-21T12:45:30Z</time>
      </trkpt>
      <trkpt lat="47.04115" lon="2.33558">
        <ele>155</ele>
        <time>2021-08-21T12:45:30Z</time>
      </trkpt>
      <trkpt lat="47.0412" lon="2.33549">
        <ele>154</ele>
        <time>2021-08-21T12:45:30Z</time>
      </trkpt>
      <trkpt lat="47.04124" lon="2.3354">
        <ele>154</ele>
        <time>2021-08-21T12:45:30Z</time>
      </trkpt>
      <trkpt lat="47.04129" lon="2.33531">
        <ele>154</ele>
        <time>2021-08-21T12:45:30Z</time>
      </trkpt>
      <trkpt lat="47.04133" lon="2.33521">
        <ele>154</ele>
        <time>2021-08-21T12:45:30Z</time>
      </trkpt>
      <trkpt lat="47.04136" lon="2.33512">
        <ele>154</ele>
        <time>2021-08-21T12:45:30Z</time>
      </trkpt>
      <trkpt lat="47.0414" lon="2.33503">
        <ele>155</ele>
        <time>2021-08-21T12:45:30Z</time>
      </trkpt>
      <trkpt lat="47.04143" lon="2.33493">
        <ele>155</ele>
        <time>2021-08-21T12:45:30Z</time>
      </trkpt>
      <trkpt lat="47.04146" lon="2.33483">
        <ele>155</ele>
        <time>2021-08-21T12:45:30Z</time>
      </trkpt>
      <trkpt lat="47.04149" lon="2.33472">
        <ele>155</ele>
        <time>2021-08-21T12:45:30Z</time>
      </trkpt>
      <trkpt lat="47.04151" lon="2.33462">
        <ele>155</ele>
        <time>2021-08-21T12:45:30Z</time>
      </trkpt>
      <trkpt lat="47.04153" lon="2.33452">
        <ele>156</ele>
        <time>2021-08-21T12:45:30Z</time>
      </trkpt>
      <trkpt lat="47.04155" lon="2.33442">
        <ele>156</ele>
        <time>2021-08-21T12:45:30Z</time>
      </trkpt>
      <trkpt lat="47.04156" lon="2.33431">
        <ele>156</ele>
        <time>2021-08-21T12:45:30Z</time>
      </trkpt>
      <trkpt lat="47.04158" lon="2.33419">
        <ele>156</ele>
        <time>2021-08-21T12:45:30Z</time>
      </trkpt>
      <trkpt lat="47.04158" lon="2.33408">
        <ele>156</ele>
        <time>2021-08-21T12:45:30Z</time>
      </trkpt>
      <trkpt lat="47.04159" lon="2.33397">
        <ele>155</ele>
        <time>2021-08-21T12:45:30Z</time>
      </trkpt>
      <trkpt lat="47.04159" lon="2.33386">
        <ele>154</ele>
        <time>2021-08-21T12:45:30Z</time>
      </trkpt>
      <trkpt lat="47.04159" lon="2.33375">
        <ele>154</ele>
        <time>2021-08-21T12:45:30Z</time>
      </trkpt>
      <trkpt lat="47.04158" lon="2.33363">
        <ele>154</ele>
        <time>2021-08-21T12:45:30Z</time>
      </trkpt>
      <trkpt lat="47.04158" lon="2.33351">
        <ele>153</ele>
        <time>2021-08-21T12:45:30Z</time>
      </trkpt>
      <trkpt lat="47.04156" lon="2.3334">
        <ele>153</ele>
        <time>2021-08-21T12:45:30Z</time>
      </trkpt>
      <trkpt lat="47.04155" lon="2.33328">
        <ele>153</ele>
        <time>2021-08-21T12:45:30Z</time>
      </trkpt>
      <trkpt lat="47.04152" lon="2.33318">
        <ele>153</ele>
        <time>2021-08-21T12:45:30Z</time>
      </trkpt>
      <trkpt lat="47.0415" lon="2.33306">
        <ele>153</ele>
        <time>2021-08-21T12:45:30Z</time>
      </trkpt>
      <trkpt lat="47.04137" lon="2.33251">
        <ele>154</ele>
        <time>2021-08-21T12:45:30Z</time>
      </trkpt>
      <trkpt lat="47.04122" lon="2.33196">
        <ele>155</ele>
        <time>2021-08-21T12:45:30Z</time>
      </trkpt>
      <trkpt lat="47.04111" lon="2.3314">
        <ele>154</ele>
        <time>2021-08-21T12:45:30Z</time>
      </trkpt>
      <trkpt lat="47.04114" lon="2.33087">
        <ele>154</ele>
        <time>2021-08-21T12:45:30Z</time>
      </trkpt>
      <trkpt lat="47.04139" lon="2.33041">
        <ele>152</ele>
        <time>2021-08-21T12:45:30Z</time>
      </trkpt>
      <trkpt lat="47.04163" lon="2.33007">
        <ele>152</ele>
        <time>2021-08-21T12:45:30Z</time>
      </trkpt>
      <trkpt lat="47.04169" lon="2.32999">
        <ele>152</ele>
        <time>2021-08-21T12:45:30Z</time>
      </trkpt>
      <trkpt lat="47.04198" lon="2.32957">
        <ele>153</ele>
        <time>2021-08-21T12:45:30Z</time>
      </trkpt>
      <trkpt lat="47.04225" lon="2.32922">
        <ele>153</ele>
        <time>2021-08-21T12:45:30Z</time>
      </trkpt>
      <trkpt lat="47.04249" lon="2.32888">
        <ele>149</ele>
        <time>2021-08-21T12:45:30Z</time>
      </trkpt>
      <trkpt lat="47.04273" lon="2.32851">
        <ele>148</ele>
        <time>2021-08-21T12:45:30Z</time>
      </trkpt>
      <trkpt lat="47.04294" lon="2.32813">
        <ele>149</ele>
        <time>2021-08-21T12:45:30Z</time>
      </trkpt>
      <trkpt lat="47.04311" lon="2.32784">
        <ele>149</ele>
        <time>2021-08-21T12:45:30Z</time>
      </trkpt>
      <trkpt lat="47.04315" lon="2.32775">
        <ele>150</ele>
        <time>2021-08-21T12:45:30Z</time>
      </trkpt>
      <trkpt lat="47.04319" lon="2.32767">
        <ele>150</ele>
        <time>2021-08-21T12:45:30Z</time>
      </trkpt>
      <trkpt lat="47.04324" lon="2.32759">
        <ele>150</ele>
        <time>2021-08-21T12:45:30Z</time>
      </trkpt>
      <trkpt lat="47.04329" lon="2.32754">
        <ele>150</ele>
        <time>2021-08-21T12:45:30Z</time>
      </trkpt>
      <trkpt lat="47.04336" lon="2.32752">
        <ele>151</ele>
        <time>2021-08-21T12:45:30Z</time>
      </trkpt>
      <trkpt lat="47.04342" lon="2.32753">
        <ele>151</ele>
        <time>2021-08-21T12:45:30Z</time>
      </trkpt>
      <trkpt lat="47.04348" lon="2.32757">
        <ele>151</ele>
        <time>2021-08-21T12:45:30Z</time>
      </trkpt>
      <trkpt lat="47.04354" lon="2.32764">
        <ele>151</ele>
        <time>2021-08-21T12:45:30Z</time>
      </trkpt>
      <trkpt lat="47.04359" lon="2.32772">
        <ele>151</ele>
        <time>2021-08-21T12:45:30Z</time>
      </trkpt>
      <trkpt lat="47.04363" lon="2.3278">
        <ele>151</ele>
        <time>2021-08-21T12:45:30Z</time>
      </trkpt>
      <trkpt lat="47.04368" lon="2.32788">
        <ele>151</ele>
        <time>2021-08-21T12:45:30Z</time>
      </trkpt>
      <trkpt lat="47.04373" lon="2.32796">
        <ele>152</ele>
        <time>2021-08-21T12:45:30Z</time>
      </trkpt>
      <trkpt lat="47.04377" lon="2.32804">
        <ele>152</ele>
        <time>2021-08-21T12:45:30Z</time>
      </trkpt>
      <trkpt lat="47.04381" lon="2.32811">
        <ele>152</ele>
        <time>2021-08-21T12:45:30Z</time>
      </trkpt>
      <trkpt lat="47.04386" lon="2.32819">
        <ele>153</ele>
        <time>2021-08-21T12:45:30Z</time>
      </trkpt>
      <trkpt lat="47.04391" lon="2.32827">
        <ele>153</ele>
        <time>2021-08-21T12:45:30Z</time>
      </trkpt>
      <trkpt lat="47.04395" lon="2.32835">
        <ele>154</ele>
        <time>2021-08-21T12:45:30Z</time>
      </trkpt>
      <trkpt lat="47.04399" lon="2.32843">
        <ele>154</ele>
        <time>2021-08-21T12:45:30Z</time>
      </trkpt>
      <trkpt lat="47.04403" lon="2.32852">
        <ele>154</ele>
        <time>2021-08-21T12:45:30Z</time>
      </trkpt>
      <trkpt lat="47.04407" lon="2.32859">
        <ele>154</ele>
        <time>2021-08-21T12:45:30Z</time>
      </trkpt>
      <trkpt lat="47.04411" lon="2.32867">
        <ele>153</ele>
        <time>2021-08-21T12:45:30Z</time>
      </trkpt>
      <trkpt lat="47.04416" lon="2.32875">
        <ele>153</ele>
        <time>2021-08-21T12:45:30Z</time>
      </trkpt>
      <trkpt lat="47.0442" lon="2.32883">
        <ele>154</ele>
        <time>2021-08-21T12:45:30Z</time>
      </trkpt>
      <trkpt lat="47.04425" lon="2.32891">
        <ele>153</ele>
        <time>2021-08-21T12:45:30Z</time>
      </trkpt>
      <trkpt lat="47.04429" lon="2.32899">
        <ele>153</ele>
        <time>2021-08-21T12:45:30Z</time>
      </trkpt>
      <trkpt lat="47.04433" lon="2.32906">
        <ele>153</ele>
        <time>2021-08-21T12:45:30Z</time>
      </trkpt>
      <trkpt lat="47.04437" lon="2.32913">
        <ele>153</ele>
        <time>2021-08-21T12:45:30Z</time>
      </trkpt>
      <trkpt lat="47.0444" lon="2.32919">
        <ele>153</ele>
        <time>2021-08-21T12:45:30Z</time>
      </trkpt>
      <trkpt lat="47.04444" lon="2.32926">
        <ele>153</ele>
        <time>2021-08-21T12:45:30Z</time>
      </trkpt>
      <trkpt lat="47.04447" lon="2.32934">
        <ele>154</ele>
        <time>2021-08-21T12:45:30Z</time>
      </trkpt>
      <trkpt lat="47.04451" lon="2.3294">
        <ele>154</ele>
        <time>2021-08-21T12:45:30Z</time>
      </trkpt>
      <trkpt lat="47.04455" lon="2.32947">
        <ele>154</ele>
        <time>2021-08-21T12:45:30Z</time>
      </trkpt>
      <trkpt lat="47.04458" lon="2.32954">
        <ele>155</ele>
        <time>2021-08-21T12:45:30Z</time>
      </trkpt>
      <trkpt lat="47.04461" lon="2.32961">
        <ele>155</ele>
        <time>2021-08-21T12:45:30Z</time>
      </trkpt>
      <trkpt lat="47.04465" lon="2.32968">
        <ele>156</ele>
        <time>2021-08-21T12:45:30Z</time>
      </trkpt>
      <trkpt lat="47.04468" lon="2.32974">
        <ele>156</ele>
        <time>2021-08-21T12:45:30Z</time>
      </trkpt>
      <trkpt lat="47.04472" lon="2.32981">
        <ele>156</ele>
        <time>2021-08-21T12:45:30Z</time>
      </trkpt>
      <trkpt lat="47.04475" lon="2.32988">
        <ele>157</ele>
        <time>2021-08-21T12:45:30Z</time>
      </trkpt>
      <trkpt lat="47.04479" lon="2.32994">
        <ele>157</ele>
        <time>2021-08-21T12:45:30Z</time>
      </trkpt>
      <trkpt lat="47.04482" lon="2.33002">
        <ele>157</ele>
        <time>2021-08-21T12:45:30Z</time>
      </trkpt>
      <trkpt lat="47.04484" lon="2.33009">
        <ele>157</ele>
        <time>2021-08-21T12:45:30Z</time>
      </trkpt>
      <trkpt lat="47.04484" lon="2.33016">
        <ele>157</ele>
        <time>2021-08-21T12:45:30Z</time>
      </trkpt>
      <trkpt lat="47.04483" lon="2.33023">
        <ele>157</ele>
        <time>2021-08-21T12:45:30Z</time>
      </trkpt>
      <trkpt lat="47.04483" lon="2.33032">
        <ele>157</ele>
        <time>2021-08-21T12:45:30Z</time>
      </trkpt>
      <trkpt lat="47.04484" lon="2.3304">
        <ele>157</ele>
        <time>2021-08-21T12:45:30Z</time>
      </trkpt>
      <trkpt lat="47.04487" lon="2.33046">
        <ele>157</ele>
        <time>2021-08-21T12:45:30Z</time>
      </trkpt>
      <trkpt lat="47.0449" lon="2.33051">
        <ele>157</ele>
        <time>2021-08-21T12:45:30Z</time>
      </trkpt>
      <trkpt lat="47.04496" lon="2.33054">
        <ele>157</ele>
        <time>2021-08-21T12:45:30Z</time>
      </trkpt>
      <trkpt lat="47.04501" lon="2.33054">
        <ele>157</ele>
        <time>2021-08-21T12:45:30Z</time>
      </trkpt>
      <trkpt lat="47.04507" lon="2.33054">
        <ele>157</ele>
        <time>2021-08-21T12:45:30Z</time>
      </trkpt>
      <trkpt lat="47.04512" lon="2.33052">
        <ele>157</ele>
        <time>2021-08-21T12:45:30Z</time>
      </trkpt>
      <trkpt lat="47.04518" lon="2.3305">
        <ele>157</ele>
        <time>2021-08-21T12:45:30Z</time>
      </trkpt>
      <trkpt lat="47.04524" lon="2.33049">
        <ele>157</ele>
        <time>2021-08-21T12:45:30Z</time>
      </trkpt>
      <trkpt lat="47.0453" lon="2.33048">
        <ele>158</ele>
        <time>2021-08-21T12:45:30Z</time>
      </trkpt>
      <trkpt lat="47.04536" lon="2.33047">
        <ele>158</ele>
        <time>2021-08-21T12:45:30Z</time>
      </trkpt>
      <trkpt lat="47.04542" lon="2.33046">
        <ele>158</ele>
        <time>2021-08-21T12:45:30Z</time>
      </trkpt>
      <trkpt lat="47.04549" lon="2.33045">
        <ele>158</ele>
        <time>2021-08-21T12:45:30Z</time>
      </trkpt>
      <trkpt lat="47.04555" lon="2.33045">
        <ele>158</ele>
        <time>2021-08-21T12:45:30Z</time>
      </trkpt>
      <trkpt lat="47.04561" lon="2.33043">
        <ele>159</ele>
        <time>2021-08-21T12:45:30Z</time>
      </trkpt>
      <trkpt lat="47.04567" lon="2.33043">
        <ele>159</ele>
        <time>2021-08-21T12:45:30Z</time>
      </trkpt>
      <trkpt lat="47.04573" lon="2.33044">
        <ele>159</ele>
        <time>2021-08-21T12:45:30Z</time>
      </trkpt>
      <trkpt lat="47.04579" lon="2.33044">
        <ele>159</ele>
        <time>2021-08-21T12:45:30Z</time>
      </trkpt>
      <trkpt lat="47.04585" lon="2.33044">
        <ele>159</ele>
        <time>2021-08-21T12:45:30Z</time>
      </trkpt>
      <trkpt lat="47.04614" lon="2.33045">
        <ele>158</ele>
        <time>2021-08-21T12:45:30Z</time>
      </trkpt>
      <trkpt lat="47.04645" lon="2.33045">
        <ele>155</ele>
        <time>2021-08-21T12:45:30Z</time>
      </trkpt>
      <trkpt lat="47.04676" lon="2.33045">
        <ele>155</ele>
        <time>2021-08-21T12:45:30Z</time>
      </trkpt>
      <trkpt lat="47.04708" lon="2.33044">
        <ele>155</ele>
        <time>2021-08-21T12:45:30Z</time>
      </trkpt>
      <trkpt lat="47.04739" lon="2.33043">
        <ele>156</ele>
        <time>2021-08-21T12:45:30Z</time>
      </trkpt>
      <trkpt lat="47.04764" lon="2.33042">
        <ele>156</ele>
        <time>2021-08-21T12:45:30Z</time>
      </trkpt>
      <trkpt lat="47.0477" lon="2.33041">
        <ele>156</ele>
        <time>2021-08-21T12:45:30Z</time>
      </trkpt>
      <trkpt lat="47.04804" lon="2.33039">
        <ele>156</ele>
        <time>2021-08-21T12:45:30Z</time>
      </trkpt>
      <trkpt lat="47.04837" lon="2.33036">
        <ele>156</ele>
        <time>2021-08-21T12:45:30Z</time>
      </trkpt>
      <trkpt lat="47.04868" lon="2.33042">
        <ele>156</ele>
        <time>2021-08-21T12:45:30Z</time>
      </trkpt>
      <trkpt lat="47.04886" lon="2.33073">
        <ele>155</ele>
        <time>2021-08-21T12:45:30Z</time>
      </trkpt>
      <trkpt lat="47.04887" lon="2.33118">
        <ele>154</ele>
        <time>2021-08-21T12:45:30Z</time>
      </trkpt>
      <trkpt lat="47.04883" lon="2.33158">
        <ele>154</ele>
        <time>2021-08-21T12:45:30Z</time>
      </trkpt>
      <trkpt lat="47.04882" lon="2.33168">
        <ele>154</ele>
        <time>2021-08-21T12:45:30Z</time>
      </trkpt>
      <trkpt lat="47.04878" lon="2.33221">
        <ele>153</ele>
        <time>2021-08-21T12:45:30Z</time>
      </trkpt>
      <trkpt lat="47.04879" lon="2.33263">
        <ele>152</ele>
        <time>2021-08-21T12:45:30Z</time>
      </trkpt>
      <trkpt lat="47.04879" lon="2.33274">
        <ele>151</ele>
        <time>2021-08-21T12:45:30Z</time>
      </trkpt>
      <trkpt lat="47.04879" lon="2.33285">
        <ele>151</ele>
        <time>2021-08-21T12:45:30Z</time>
      </trkpt>
      <trkpt lat="47.0488" lon="2.33296">
        <ele>150</ele>
        <time>2021-08-21T12:45:30Z</time>
      </trkpt>
      <trkpt lat="47.04881" lon="2.33307">
        <ele>150</ele>
        <time>2021-08-21T12:45:30Z</time>
      </trkpt>
      <trkpt lat="47.04882" lon="2.33317">
        <ele>150</ele>
        <time>2021-08-21T12:45:30Z</time>
      </trkpt>
      <trkpt lat="47.04884" lon="2.33328">
        <ele>149</ele>
        <time>2021-08-21T12:45:30Z</time>
      </trkpt>
      <trkpt lat="47.04885" lon="2.33338">
        <ele>149</ele>
        <time>2021-08-21T12:45:30Z</time>
      </trkpt>
      <trkpt lat="47.04886" lon="2.33349">
        <ele>149</ele>
        <time>2021-08-21T12:45:30Z</time>
      </trkpt>
      <trkpt lat="47.04887" lon="2.3336">
        <ele>150</ele>
        <time>2021-08-21T12:45:30Z</time>
      </trkpt>
      <trkpt lat="47.04889" lon="2.3337">
        <ele>150</ele>
        <time>2021-08-21T12:45:30Z</time>
      </trkpt>
      <trkpt lat="47.0489" lon="2.3338">
        <ele>150</ele>
        <time>2021-08-21T12:45:30Z</time>
      </trkpt>
      <trkpt lat="47.04892" lon="2.33391">
        <ele>151</ele>
        <time>2021-08-21T12:45:30Z</time>
      </trkpt>
      <trkpt lat="47.04893" lon="2.33401">
        <ele>151</ele>
        <time>2021-08-21T12:45:30Z</time>
      </trkpt>
      <trkpt lat="47.04895" lon="2.33412">
        <ele>152</ele>
        <time>2021-08-21T12:45:30Z</time>
      </trkpt>
      <trkpt lat="47.04897" lon="2.33422">
        <ele>152</ele>
        <time>2021-08-21T12:45:30Z</time>
      </trkpt>
      <trkpt lat="47.04899" lon="2.33433">
        <ele>152</ele>
        <time>2021-08-21T12:45:30Z</time>
      </trkpt>
      <trkpt lat="47.04902" lon="2.33442">
        <ele>152</ele>
        <time>2021-08-21T12:45:30Z</time>
      </trkpt>
      <trkpt lat="47.04905" lon="2.33453">
        <ele>152</ele>
        <time>2021-08-21T12:45:30Z</time>
      </trkpt>
      <trkpt lat="47.04907" lon="2.33463">
        <ele>151</ele>
        <time>2021-08-21T12:45:30Z</time>
      </trkpt>
      <trkpt lat="47.0491" lon="2.33473">
        <ele>151</ele>
        <time>2021-08-21T12:45:30Z</time>
      </trkpt>
      <trkpt lat="47.04913" lon="2.33483">
        <ele>150</ele>
        <time>2021-08-21T12:45:30Z</time>
      </trkpt>
      <trkpt lat="47.04916" lon="2.33493">
        <ele>150</ele>
        <time>2021-08-21T12:45:30Z</time>
      </trkpt>
      <trkpt lat="47.04919" lon="2.33503">
        <ele>149</ele>
        <time>2021-08-21T12:45:30Z</time>
      </trkpt>
      <trkpt lat="47.04922" lon="2.33513">
        <ele>149</ele>
        <time>2021-08-21T12:45:30Z</time>
      </trkpt>
      <trkpt lat="47.04925" lon="2.33524">
        <ele>148</ele>
        <time>2021-08-21T12:45:30Z</time>
      </trkpt>
      <trkpt lat="47.04929" lon="2.33533">
        <ele>148</ele>
        <time>2021-08-21T12:45:30Z</time>
      </trkpt>
      <trkpt lat="47.04932" lon="2.33543">
        <ele>148</ele>
        <time>2021-08-21T12:45:30Z</time>
      </trkpt>
      <trkpt lat="47.04936" lon="2.33552">
        <ele>149</ele>
        <time>2021-08-21T12:45:30Z</time>
      </trkpt>
      <trkpt lat="47.0494" lon="2.33561">
        <ele>149</ele>
        <time>2021-08-21T12:45:30Z</time>
      </trkpt>
      <trkpt lat="47.04944" lon="2.33571">
        <ele>150</ele>
        <time>2021-08-21T12:45:30Z</time>
      </trkpt>
      <trkpt lat="47.04948" lon="2.3358">
        <ele>150</ele>
        <time>2021-08-21T12:45:30Z</time>
      </trkpt>
      <trkpt lat="47.04952" lon="2.33589">
        <ele>150</ele>
        <time>2021-08-21T12:45:30Z</time>
      </trkpt>
      <trkpt lat="47.04957" lon="2.33598">
        <ele>151</ele>
        <time>2021-08-21T12:45:30Z</time>
      </trkpt>
      <trkpt lat="47.04961" lon="2.33606">
        <ele>151</ele>
        <time>2021-08-21T12:45:30Z</time>
      </trkpt>
      <trkpt lat="47.04965" lon="2.33615">
        <ele>151</ele>
        <time>2021-08-21T12:45:30Z</time>
      </trkpt>
      <trkpt lat="47.04969" lon="2.33624">
        <ele>151</ele>
        <time>2021-08-21T12:45:30Z</time>
      </trkpt>
      <trkpt lat="47.04973" lon="2.33634">
        <ele>151</ele>
        <time>2021-08-21T12:45:30Z</time>
      </trkpt>
      <trkpt lat="47.04978" lon="2.33642">
        <ele>151</ele>
        <time>2021-08-21T12:45:30Z</time>
      </trkpt>
      <trkpt lat="47.04982" lon="2.33651">
        <ele>151</ele>
        <time>2021-08-21T12:45:30Z</time>
      </trkpt>
      <trkpt lat="47.04986" lon="2.33659">
        <ele>151</ele>
        <time>2021-08-21T12:45:30Z</time>
      </trkpt>
      <trkpt lat="47.04991" lon="2.33668">
        <ele>152</ele>
        <time>2021-08-21T12:45:30Z</time>
      </trkpt>
      <trkpt lat="47.04995" lon="2.33676">
        <ele>152</ele>
        <time>2021-08-21T12:45:30Z</time>
      </trkpt>
      <trkpt lat="47.04999" lon="2.33685">
        <ele>152</ele>
        <time>2021-08-21T12:45:30Z</time>
      </trkpt>
      <trkpt lat="47.05004" lon="2.33693">
        <ele>152</ele>
        <time>2021-08-21T12:45:30Z</time>
      </trkpt>
      <trkpt lat="47.05008" lon="2.33701">
        <ele>153</ele>
        <time>2021-08-21T12:45:30Z</time>
      </trkpt>
      <trkpt lat="47.05011" lon="2.33709">
        <ele>153</ele>
        <time>2021-08-21T12:45:30Z</time>
      </trkpt>
      <trkpt lat="47.05016" lon="2.33717">
        <ele>153</ele>
        <time>2021-08-21T12:45:30Z</time>
      </trkpt>
      <trkpt lat="47.0502" lon="2.33726">
        <ele>153</ele>
        <time>2021-08-21T12:45:30Z</time>
      </trkpt>
      <trkpt lat="47.05024" lon="2.33735">
        <ele>153</ele>
        <time>2021-08-21T12:45:30Z</time>
      </trkpt>
      <trkpt lat="47.05028" lon="2.33743">
        <ele>154</ele>
        <time>2021-08-21T12:45:30Z</time>
      </trkpt>
      <trkpt lat="47.05032" lon="2.33751">
        <ele>153</ele>
        <time>2021-08-21T12:45:30Z</time>
      </trkpt>
      <trkpt lat="47.05036" lon="2.33759">
        <ele>153</ele>
        <time>2021-08-21T12:45:30Z</time>
      </trkpt>
      <trkpt lat="47.05039" lon="2.33766">
        <ele>153</ele>
        <time>2021-08-21T12:45:30Z</time>
      </trkpt>
      <trkpt lat="47.05044" lon="2.33772">
        <ele>153</ele>
        <time>2021-08-21T12:45:30Z</time>
      </trkpt>
      <trkpt lat="47.05047" lon="2.33778">
        <ele>153</ele>
        <time>2021-08-21T12:45:30Z</time>
      </trkpt>
      <trkpt lat="47.0505" lon="2.33785">
        <ele>153</ele>
        <time>2021-08-21T12:45:30Z</time>
      </trkpt>
      <trkpt lat="47.05053" lon="2.33791">
        <ele>153</ele>
        <time>2021-08-21T12:45:30Z</time>
      </trkpt>
      <trkpt lat="47.05055" lon="2.33797">
        <ele>153</ele>
        <time>2021-08-21T12:45:30Z</time>
      </trkpt>
      <trkpt lat="47.05057" lon="2.33805">
        <ele>153</ele>
        <time>2021-08-21T12:45:30Z</time>
      </trkpt>
      <trkpt lat="47.05058" lon="2.33812">
        <ele>152</ele>
        <time>2021-08-21T12:45:30Z</time>
      </trkpt>
      <trkpt lat="47.05059" lon="2.33821">
        <ele>152</ele>
        <time>2021-08-21T12:45:30Z</time>
      </trkpt>
      <trkpt lat="47.05054" lon="2.33862">
        <ele>150</ele>
        <time>2021-08-21T12:45:30Z</time>
      </trkpt>
      <trkpt lat="47.05047" lon="2.33905">
        <ele>149</ele>
        <time>2021-08-21T12:45:30Z</time>
      </trkpt>
      <trkpt lat="47.0504" lon="2.33946">
        <ele>149</ele>
        <time>2021-08-21T12:45:30Z</time>
      </trkpt>
      <trkpt lat="47.05015" lon="2.33974">
        <ele>147</ele>
        <time>2021-08-21T12:45:30Z</time>
      </trkpt>
      <trkpt lat="47.05003" lon="2.3402">
        <ele>147</ele>
        <time>2021-08-21T12:45:30Z</time>
      </trkpt>
      <trkpt lat="47.05016" lon="2.34057">
        <ele>146</ele>
        <time>2021-08-21T12:45:30Z</time>
      </trkpt>
      <trkpt lat="47.05022" lon="2.34062">
        <ele>146</ele>
        <time>2021-08-21T12:45:30Z</time>
      </trkpt>
      <trkpt lat="47.05057" lon="2.34071">
        <ele>147</ele>
        <time>2021-08-21T12:45:30Z</time>
      </trkpt>
      <trkpt lat="47.05082" lon="2.34111">
        <ele>147</ele>
        <time>2021-08-21T12:45:30Z</time>
      </trkpt>
      <trkpt lat="47.05104" lon="2.34152">
        <ele>147</ele>
        <time>2021-08-21T12:45:30Z</time>
      </trkpt>
      <trkpt lat="47.05114" lon="2.342">
        <ele>147</ele>
        <time>2021-08-21T12:45:30Z</time>
      </trkpt>
      <trkpt lat="47.05133" lon="2.34239">
        <ele>148</ele>
        <time>2021-08-21T12:45:30Z</time>
      </trkpt>
      <trkpt lat="47.05159" lon="2.34259">
        <ele>146</ele>
        <time>2021-08-21T12:45:30Z</time>
      </trkpt>
      <trkpt lat="47.05165" lon="2.34268">
        <ele>145</ele>
        <time>2021-08-21T12:45:30Z</time>
      </trkpt>
      <trkpt lat="47.05189" lon="2.34315">
        <ele>142</ele>
        <time>2021-08-21T12:45:30Z</time>
      </trkpt>
      <trkpt lat="47.05213" lon="2.34361">
        <ele>142</ele>
        <time>2021-08-21T12:45:30Z</time>
      </trkpt>
      <trkpt lat="47.05236" lon="2.34405">
        <ele>142</ele>
        <time>2021-08-21T12:45:30Z</time>
      </trkpt>
      <trkpt lat="47.05259" lon="2.34448">
        <ele>143</ele>
        <time>2021-08-21T12:45:30Z</time>
      </trkpt>
      <trkpt lat="47.05282" lon="2.3449">
        <ele>144</ele>
        <time>2021-08-21T12:45:30Z</time>
      </trkpt>
      <trkpt lat="47.05299" lon="2.34522">
        <ele>143</ele>
        <time>2021-08-21T12:45:30Z</time>
      </trkpt>
      <trkpt lat="47.05303" lon="2.3453">
        <ele>143</ele>
        <time>2021-08-21T12:45:30Z</time>
      </trkpt>
      <trkpt lat="47.05308" lon="2.34537">
        <ele>143</ele>
        <time>2021-08-21T12:45:30Z</time>
      </trkpt>
      <trkpt lat="47.05312" lon="2.34545">
        <ele>143</ele>
        <time>2021-08-21T12:45:30Z</time>
      </trkpt>
      <trkpt lat="47.05316" lon="2.34554">
        <ele>142</ele>
        <time>2021-08-21T12:45:30Z</time>
      </trkpt>
      <trkpt lat="47.0532" lon="2.34562">
        <ele>142</ele>
        <time>2021-08-21T12:45:30Z</time>
      </trkpt>
      <trkpt lat="47.05325" lon="2.34571">
        <ele>142</ele>
        <time>2021-08-21T12:45:30Z</time>
      </trkpt>
      <trkpt lat="47.05329" lon="2.34579">
        <ele>142</ele>
        <time>2021-08-21T12:45:30Z</time>
      </trkpt>
      <trkpt lat="47.05334" lon="2.34587">
        <ele>142</ele>
        <time>2021-08-21T12:45:30Z</time>
      </trkpt>
      <trkpt lat="47.05338" lon="2.34595">
        <ele>141</ele>
        <time>2021-08-21T12:45:30Z</time>
      </trkpt>
      <trkpt lat="47.05343" lon="2.34604">
        <ele>141</ele>
        <time>2021-08-21T12:45:30Z</time>
      </trkpt>
      <trkpt lat="47.05348" lon="2.34613">
        <ele>141</ele>
        <time>2021-08-21T12:45:30Z</time>
      </trkpt>
      <trkpt lat="47.05352" lon="2.34622">
        <ele>141</ele>
        <time>2021-08-21T12:45:30Z</time>
      </trkpt>
      <trkpt lat="47.05356" lon="2.3463">
        <ele>141</ele>
        <time>2021-08-21T12:45:30Z</time>
      </trkpt>
      <trkpt lat="47.0536" lon="2.3464">
        <ele>142</ele>
        <time>2021-08-21T12:45:30Z</time>
      </trkpt>
      <trkpt lat="47.05363" lon="2.34651">
        <ele>141</ele>
        <time>2021-08-21T12:45:30Z</time>
      </trkpt>
      <trkpt lat="47.05364" lon="2.34662">
        <ele>141</ele>
        <time>2021-08-21T12:45:30Z</time>
      </trkpt>
      <trkpt lat="47.05364" lon="2.34674">
        <ele>142</ele>
        <time>2021-08-21T12:45:30Z</time>
      </trkpt>
      <trkpt lat="47.05365" lon="2.34685">
        <ele>142</ele>
        <time>2021-08-21T12:45:30Z</time>
      </trkpt>
      <trkpt lat="47.05368" lon="2.34695">
        <ele>142</ele>
        <time>2021-08-21T12:45:30Z</time>
      </trkpt>
      <trkpt lat="47.05372" lon="2.34705">
        <ele>142</ele>
        <time>2021-08-21T12:45:30Z</time>
      </trkpt>
      <trkpt lat="47.05376" lon="2.34712">
        <ele>142</ele>
        <time>2021-08-21T12:45:30Z</time>
      </trkpt>
      <trkpt lat="47.0538" lon="2.34721">
        <ele>142</ele>
        <time>2021-08-21T12:45:30Z</time>
      </trkpt>
      <trkpt lat="47.05383" lon="2.3473">
        <ele>142</ele>
        <time>2021-08-21T12:45:30Z</time>
      </trkpt>
      <trkpt lat="47.05384" lon="2.3474">
        <ele>142</ele>
        <time>2021-08-21T12:45:30Z</time>
      </trkpt>
      <trkpt lat="47.05385" lon="2.3475">
        <ele>142</ele>
        <time>2021-08-21T12:45:30Z</time>
      </trkpt>
      <trkpt lat="47.05386" lon="2.3476">
        <ele>142</ele>
        <time>2021-08-21T12:45:30Z</time>
      </trkpt>
      <trkpt lat="47.05386" lon="2.3477">
        <ele>142</ele>
        <time>2021-08-21T12:45:30Z</time>
      </trkpt>
      <trkpt lat="47.05387" lon="2.3478">
        <ele>142</ele>
        <time>2021-08-21T12:45:30Z</time>
      </trkpt>
      <trkpt lat="47.05389" lon="2.34789">
        <ele>142</ele>
        <time>2021-08-21T12:45:30Z</time>
      </trkpt>
      <trkpt lat="47.0539" lon="2.34799">
        <ele>141</ele>
        <time>2021-08-21T12:45:30Z</time>
      </trkpt>
      <trkpt lat="47.05391" lon="2.34808">
        <ele>141</ele>
        <time>2021-08-21T12:45:30Z</time>
      </trkpt>
      <trkpt lat="47.05393" lon="2.34818">
        <ele>141</ele>
        <time>2021-08-21T12:45:30Z</time>
      </trkpt>
      <trkpt lat="47.05394" lon="2.34827">
        <ele>141</ele>
        <time>2021-08-21T12:45:30Z</time>
      </trkpt>
      <trkpt lat="47.05395" lon="2.34836">
        <ele>141</ele>
        <time>2021-08-21T12:45:30Z</time>
      </trkpt>
      <trkpt lat="47.05397" lon="2.34846">
        <ele>142</ele>
        <time>2021-08-21T12:45:30Z</time>
      </trkpt>
      <trkpt lat="47.05399" lon="2.34855">
        <ele>142</ele>
        <time>2021-08-21T12:45:30Z</time>
      </trkpt>
      <trkpt lat="47.05401" lon="2.34864">
        <ele>142</ele>
        <time>2021-08-21T12:45:30Z</time>
      </trkpt>
      <trkpt lat="47.05403" lon="2.34874">
        <ele>142</ele>
        <time>2021-08-21T12:45:30Z</time>
      </trkpt>
      <trkpt lat="47.05404" lon="2.34884">
        <ele>143</ele>
        <time>2021-08-21T12:45:30Z</time>
      </trkpt>
      <trkpt lat="47.05406" lon="2.34894">
        <ele>143</ele>
        <time>2021-08-21T12:45:30Z</time>
      </trkpt>
      <trkpt lat="47.05409" lon="2.34903">
        <ele>143</ele>
        <time>2021-08-21T12:45:30Z</time>
      </trkpt>
      <trkpt lat="47.05411" lon="2.34913">
        <ele>143</ele>
        <time>2021-08-21T12:45:30Z</time>
      </trkpt>
      <trkpt lat="47.05414" lon="2.34923">
        <ele>142</ele>
        <time>2021-08-21T12:45:30Z</time>
      </trkpt>
      <trkpt lat="47.05416" lon="2.34933">
        <ele>142</ele>
        <time>2021-08-21T12:45:30Z</time>
      </trkpt>
      <trkpt lat="47.05419" lon="2.34944">
        <ele>141</ele>
        <time>2021-08-21T12:45:30Z</time>
      </trkpt>
      <trkpt lat="47.05422" lon="2.34953">
        <ele>141</ele>
        <time>2021-08-21T12:45:30Z</time>
      </trkpt>
      <trkpt lat="47.05424" lon="2.34963">
        <ele>141</ele>
        <time>2021-08-21T12:45:30Z</time>
      </trkpt>
      <trkpt lat="47.05427" lon="2.34973">
        <ele>141</ele>
        <time>2021-08-21T12:45:30Z</time>
      </trkpt>
      <trkpt lat="47.0543" lon="2.34983">
        <ele>141</ele>
        <time>2021-08-21T12:45:30Z</time>
      </trkpt>
      <trkpt lat="47.05434" lon="2.34993">
        <ele>140</ele>
        <time>2021-08-21T12:45:30Z</time>
      </trkpt>
      <trkpt lat="47.05437" lon="2.35001">
        <ele>140</ele>
        <time>2021-08-21T12:45:30Z</time>
      </trkpt>
      <trkpt lat="47.0544" lon="2.3501">
        <ele>140</ele>
        <time>2021-08-21T12:45:30Z</time>
      </trkpt>
      <trkpt lat="47.05443" lon="2.35019">
        <ele>140</ele>
        <time>2021-08-21T12:45:30Z</time>
      </trkpt>
      <trkpt lat="47.05446" lon="2.35028">
        <ele>140</ele>
        <time>2021-08-21T12:45:30Z</time>
      </trkpt>
      <trkpt lat="47.0545" lon="2.35036">
        <ele>140</ele>
        <time>2021-08-21T12:45:30Z</time>
      </trkpt>
      <trkpt lat="47.05452" lon="2.35044">
        <ele>140</ele>
        <time>2021-08-21T12:45:30Z</time>
      </trkpt>
      <trkpt lat="47.05456" lon="2.35053">
        <ele>140</ele>
        <time>2021-08-21T12:45:30Z</time>
      </trkpt>
      <trkpt lat="47.05459" lon="2.35061">
        <ele>139</ele>
        <time>2021-08-21T12:45:30Z</time>
      </trkpt>
      <trkpt lat="47.05463" lon="2.35068">
        <ele>139</ele>
        <time>2021-08-21T12:45:30Z</time>
      </trkpt>
      <trkpt lat="47.05466" lon="2.35076">
        <ele>139</ele>
        <time>2021-08-21T12:45:30Z</time>
      </trkpt>
      <trkpt lat="47.0547" lon="2.35084">
        <ele>139</ele>
        <time>2021-08-21T12:45:30Z</time>
      </trkpt>
      <trkpt lat="47.05474" lon="2.35091">
        <ele>139</ele>
        <time>2021-08-21T12:45:30Z</time>
      </trkpt>
      <trkpt lat="47.05491" lon="2.35125">
        <ele>139</ele>
        <time>2021-08-21T12:45:30Z</time>
      </trkpt>
      <trkpt lat="47.05508" lon="2.35158">
        <ele>141</ele>
        <time>2021-08-21T12:45:30Z</time>
      </trkpt>
      <trkpt lat="47.05525" lon="2.35191">
        <ele>145</ele>
        <time>2021-08-21T12:45:30Z</time>
      </trkpt>
      <trkpt lat="47.05544" lon="2.35223">
        <ele>146</ele>
        <time>2021-08-21T12:45:30Z</time>
      </trkpt>
      <trkpt lat="47.05562" lon="2.35257">
        <ele>146</ele>
        <time>2021-08-21T12:45:30Z</time>
      </trkpt>
      <trkpt lat="47.05576" lon="2.35284">
        <ele>146</ele>
        <time>2021-08-21T12:45:30Z</time>
      </trkpt>
      <trkpt lat="47.0558" lon="2.35291">
        <ele>147</ele>
        <time>2021-08-21T12:45:30Z</time>
      </trkpt>
      <trkpt lat="47.05599" lon="2.35325">
        <ele>149</ele>
        <time>2021-08-21T12:45:30Z</time>
      </trkpt>
      <trkpt lat="47.05617" lon="2.35361">
        <ele>149</ele>
        <time>2021-08-21T12:45:30Z</time>
      </trkpt>
      <trkpt lat="47.05636" lon="2.35395">
        <ele>149</ele>
        <time>2021-08-21T12:45:30Z</time>
      </trkpt>
      <trkpt lat="47.05654" lon="2.35427">
        <ele>150</ele>
        <time>2021-08-21T12:45:30Z</time>
      </trkpt>
      <trkpt lat="47.05671" lon="2.35458">
        <ele>151</ele>
        <time>2021-08-21T12:45:30Z</time>
      </trkpt>
      <trkpt lat="47.05684" lon="2.35485">
        <ele>152</ele>
        <time>2021-08-21T12:45:30Z</time>
      </trkpt>
      <trkpt lat="47.05688" lon="2.35491">
        <ele>152</ele>
        <time>2021-08-21T12:45:30Z</time>
      </trkpt>
      <trkpt lat="47.05691" lon="2.35498">
        <ele>152</ele>
        <time>2021-08-21T12:45:30Z</time>
      </trkpt>
      <trkpt lat="47.05695" lon="2.35504">
        <ele>153</ele>
        <time>2021-08-21T12:45:30Z</time>
      </trkpt>
      <trkpt lat="47.05699" lon="2.3551">
        <ele>153</ele>
        <time>2021-08-21T12:45:30Z</time>
      </trkpt>
      <trkpt lat="47.05702" lon="2.35517">
        <ele>153</ele>
        <time>2021-08-21T12:45:30Z</time>
      </trkpt>
      <trkpt lat="47.05706" lon="2.35523">
        <ele>154</ele>
        <time>2021-08-21T12:45:30Z</time>
      </trkpt>
      <trkpt lat="47.05709" lon="2.35531">
        <ele>154</ele>
        <time>2021-08-21T12:45:30Z</time>
      </trkpt>
      <trkpt lat="47.05712" lon="2.35538">
        <ele>154</ele>
        <time>2021-08-21T12:45:30Z</time>
      </trkpt>
      <trkpt lat="47.05715" lon="2.35544">
        <ele>154</ele>
        <time>2021-08-21T12:45:30Z</time>
      </trkpt>
      <trkpt lat="47.05719" lon="2.3555">
        <ele>154</ele>
        <time>2021-08-21T12:45:30Z</time>
      </trkpt>
      <trkpt lat="47.05722" lon="2.35557">
        <ele>154</ele>
        <time>2021-08-21T12:45:30Z</time>
      </trkpt>
      <trkpt lat="47.05725" lon="2.35564">
        <ele>155</ele>
        <time>2021-08-21T12:45:30Z</time>
      </trkpt>
      <trkpt lat="47.05729" lon="2.35569">
        <ele>155</ele>
        <time>2021-08-21T12:45:30Z</time>
      </trkpt>
      <trkpt lat="47.05732" lon="2.35576">
        <ele>155</ele>
        <time>2021-08-21T12:45:30Z</time>
      </trkpt>
      <trkpt lat="47.05736" lon="2.35583">
        <ele>155</ele>
        <time>2021-08-21T12:45:30Z</time>
      </trkpt>
      <trkpt lat="47.05739" lon="2.35588">
        <ele>155</ele>
        <time>2021-08-21T12:45:30Z</time>
      </trkpt>
      <trkpt lat="47.05742" lon="2.35594">
        <ele>155</ele>
        <time>2021-08-21T12:45:30Z</time>
      </trkpt>
      <trkpt lat="47.05746" lon="2.356">
        <ele>155</ele>
        <time>2021-08-21T12:45:30Z</time>
      </trkpt>
      <trkpt lat="47.05749" lon="2.35607">
        <ele>155</ele>
        <time>2021-08-21T12:45:30Z</time>
      </trkpt>
      <trkpt lat="47.05753" lon="2.35613">
        <ele>155</ele>
        <time>2021-08-21T12:45:30Z</time>
      </trkpt>
      <trkpt lat="47.05756" lon="2.3562">
        <ele>155</ele>
        <time>2021-08-21T12:45:30Z</time>
      </trkpt>
      <trkpt lat="47.05759" lon="2.35626">
        <ele>155</ele>
        <time>2021-08-21T12:45:30Z</time>
      </trkpt>
      <trkpt lat="47.05763" lon="2.35633">
        <ele>155</ele>
        <time>2021-08-21T12:45:30Z</time>
      </trkpt>
      <trkpt lat="47.05766" lon="2.35639">
        <ele>156</ele>
        <time>2021-08-21T12:45:30Z</time>
      </trkpt>
      <trkpt lat="47.0577" lon="2.35646">
        <ele>156</ele>
        <time>2021-08-21T12:45:30Z</time>
      </trkpt>
      <trkpt lat="47.05773" lon="2.35653">
        <ele>157</ele>
        <time>2021-08-21T12:45:30Z</time>
      </trkpt>
      <trkpt lat="47.05776" lon="2.3566">
        <ele>158</ele>
        <time>2021-08-21T12:45:30Z</time>
      </trkpt>
      <trkpt lat="47.05779" lon="2.35668">
        <ele>159</ele>
        <time>2021-08-21T12:45:30Z</time>
      </trkpt>
      <trkpt lat="47.05782" lon="2.35676">
        <ele>159</ele>
        <time>2021-08-21T12:45:30Z</time>
      </trkpt>
      <trkpt lat="47.05785" lon="2.35683">
        <ele>159</ele>
        <time>2021-08-21T12:45:30Z</time>
      </trkpt>
      <trkpt lat="47.05787" lon="2.35691">
        <ele>159</ele>
        <time>2021-08-21T12:45:30Z</time>
      </trkpt>
      <trkpt lat="47.05788" lon="2.35699">
        <ele>159</ele>
        <time>2021-08-21T12:45:30Z</time>
      </trkpt>
      <trkpt lat="47.0579" lon="2.35708">
        <ele>159</ele>
        <time>2021-08-21T12:45:30Z</time>
      </trkpt>
      <trkpt lat="47.05792" lon="2.35716">
        <ele>159</ele>
        <time>2021-08-21T12:45:30Z</time>
      </trkpt>
      <trkpt lat="47.05794" lon="2.35725">
        <ele>160</ele>
        <time>2021-08-21T12:45:30Z</time>
      </trkpt>
      <trkpt lat="47.05796" lon="2.35733">
        <ele>160</ele>
        <time>2021-08-21T12:45:30Z</time>
      </trkpt>
      <trkpt lat="47.05798" lon="2.35742">
        <ele>161</ele>
        <time>2021-08-21T12:45:30Z</time>
      </trkpt>
      <trkpt lat="47.05799" lon="2.3575">
        <ele>161</ele>
        <time>2021-08-21T12:45:30Z</time>
      </trkpt>
      <trkpt lat="47.058" lon="2.35758">
        <ele>162</ele>
        <time>2021-08-21T12:45:30Z</time>
      </trkpt>
      <trkpt lat="47.05802" lon="2.35766">
        <ele>162</ele>
        <time>2021-08-21T12:45:30Z</time>
      </trkpt>
      <trkpt lat="47.05804" lon="2.35774">
        <ele>162</ele>
        <time>2021-08-21T12:45:30Z</time>
      </trkpt>
      <trkpt lat="47.05805" lon="2.35783">
        <ele>163</ele>
        <time>2021-08-21T12:45:30Z</time>
      </trkpt>
      <trkpt lat="47.05808" lon="2.35791">
        <ele>163</ele>
        <time>2021-08-21T12:45:30Z</time>
      </trkpt>
      <trkpt lat="47.0581" lon="2.35798">
        <ele>163</ele>
        <time>2021-08-21T12:45:30Z</time>
      </trkpt>
      <trkpt lat="47.05814" lon="2.35805">
        <ele>164</ele>
        <time>2021-08-21T12:45:30Z</time>
      </trkpt>
      <trkpt lat="47.05817" lon="2.35812">
        <ele>164</ele>
        <time>2021-08-21T12:45:30Z</time>
      </trkpt>
      <trkpt lat="47.05821" lon="2.35819">
        <ele>164</ele>
        <time>2021-08-21T12:45:30Z</time>
      </trkpt>
      <trkpt lat="47.05825" lon="2.35825">
        <ele>164</ele>
        <time>2021-08-21T12:45:30Z</time>
      </trkpt>
      <trkpt lat="47.05829" lon="2.35831">
        <ele>163</ele>
        <time>2021-08-21T12:45:30Z</time>
      </trkpt>
      <trkpt lat="47.05833" lon="2.35836">
        <ele>163</ele>
        <time>2021-08-21T12:45:30Z</time>
      </trkpt>
      <trkpt lat="47.05837" lon="2.35841">
        <ele>163</ele>
        <time>2021-08-21T12:45:30Z</time>
      </trkpt>
      <trkpt lat="47.05842" lon="2.35846">
        <ele>163</ele>
        <time>2021-08-21T12:45:30Z</time>
      </trkpt>
      <trkpt lat="47.05847" lon="2.35851">
        <ele>163</ele>
        <time>2021-08-21T12:45:30Z</time>
      </trkpt>
      <trkpt lat="47.05851" lon="2.35857">
        <ele>162</ele>
        <time>2021-08-21T12:45:30Z</time>
      </trkpt>
      <trkpt lat="47.05856" lon="2.35862">
        <ele>162</ele>
        <time>2021-08-21T12:45:30Z</time>
      </trkpt>
      <trkpt lat="47.0586" lon="2.35868">
        <ele>162</ele>
        <time>2021-08-21T12:45:30Z</time>
      </trkpt>
      <trkpt lat="47.05865" lon="2.35873">
        <ele>162</ele>
        <time>2021-08-21T12:45:30Z</time>
      </trkpt>
      <trkpt lat="47.0587" lon="2.35879">
        <ele>162</ele>
        <time>2021-08-21T12:45:30Z</time>
      </trkpt>
      <trkpt lat="47.05875" lon="2.35885">
        <ele>163</ele>
        <time>2021-08-21T12:45:30Z</time>
      </trkpt>
      <trkpt lat="47.0588" lon="2.35891">
        <ele>163</ele>
        <time>2021-08-21T12:45:30Z</time>
      </trkpt>
      <trkpt lat="47.05885" lon="2.35897">
        <ele>163</ele>
        <time>2021-08-21T12:45:30Z</time>
      </trkpt>
      <trkpt lat="47.0589" lon="2.35903">
        <ele>164</ele>
        <time>2021-08-21T12:45:30Z</time>
      </trkpt>
      <trkpt lat="47.05917" lon="2.35932">
        <ele>163</ele>
        <time>2021-08-21T12:45:30Z</time>
      </trkpt>
      <trkpt lat="47.05945" lon="2.35967">
        <ele>160</ele>
        <time>2021-08-21T12:45:30Z</time>
      </trkpt>
      <trkpt lat="47.05973" lon="2.36003">
        <ele>156</ele>
        <time>2021-08-21T12:45:30Z</time>
      </trkpt>
      <trkpt lat="47.05999" lon="2.36046">
        <ele>156</ele>
        <time>2021-08-21T12:45:30Z</time>
      </trkpt>
      <trkpt lat="47.06013" lon="2.36096">
        <ele>156</ele>
        <time>2021-08-21T12:45:30Z</time>
      </trkpt>
      <trkpt lat="47.06021" lon="2.36138">
        <ele>157</ele>
        <time>2021-08-21T12:45:30Z</time>
      </trkpt>
      <trkpt lat="47.06023" lon="2.36148">
        <ele>157</ele>
        <time>2021-08-21T12:45:30Z</time>
      </trkpt>
      <trkpt lat="47.06038" lon="2.36197">
        <ele>157</ele>
        <time>2021-08-21T12:45:30Z</time>
      </trkpt>
      <trkpt lat="47.06067" lon="2.36244">
        <ele>158</ele>
        <time>2021-08-21T12:45:30Z</time>
      </trkpt>
      <trkpt lat="47.06105" lon="2.36297">
        <ele>156</ele>
        <time>2021-08-21T12:45:30Z</time>
      </trkpt>
      <trkpt lat="47.06135" lon="2.36333">
        <ele>153</ele>
        <time>2021-08-21T12:45:30Z</time>
      </trkpt>
      <trkpt lat="47.06168" lon="2.36356">
        <ele>153</ele>
        <time>2021-08-21T12:45:30Z</time>
      </trkpt>
      <trkpt lat="47.06201" lon="2.36381">
        <ele>154</ele>
        <time>2021-08-21T12:45:30Z</time>
      </trkpt>
      <trkpt lat="47.06206" lon="2.36388">
        <ele>154</ele>
        <time>2021-08-21T12:45:30Z</time>
      </trkpt>
      <trkpt lat="47.06214" lon="2.36436">
        <ele>154</ele>
        <time>2021-08-21T12:45:30Z</time>
      </trkpt>
      <trkpt lat="47.0619" lon="2.36474">
        <ele>155</ele>
        <time>2021-08-21T12:45:30Z</time>
      </trkpt>
      <trkpt lat="47.06164" lon="2.36506">
        <ele>154</ele>
        <time>2021-08-21T12:45:30Z</time>
      </trkpt>
      <trkpt lat="47.06188" lon="2.36541">
        <ele>152</ele>
        <time>2021-08-21T12:45:30Z</time>
      </trkpt>
      <trkpt lat="47.06219" lon="2.36566">
        <ele>151</ele>
        <time>2021-08-21T12:45:30Z</time>
      </trkpt>
      <trkpt lat="47.06239" lon="2.36595">
        <ele>151</ele>
        <time>2021-08-21T12:45:30Z</time>
      </trkpt>
      <trkpt lat="47.0625" lon="2.36609">
        <ele>152</ele>
        <time>2021-08-21T12:45:30Z</time>
      </trkpt>
      <trkpt lat="47.06255" lon="2.36616">
        <ele>152</ele>
        <time>2021-08-21T12:45:30Z</time>
      </trkpt>
      <trkpt lat="47.06261" lon="2.36623">
        <ele>152</ele>
        <time>2021-08-21T12:45:30Z</time>
      </trkpt>
      <trkpt lat="47.06266" lon="2.36631">
        <ele>152</ele>
        <time>2021-08-21T12:45:30Z</time>
      </trkpt>
      <trkpt lat="47.06271" lon="2.36639">
        <ele>153</ele>
        <time>2021-08-21T12:45:30Z</time>
      </trkpt>
      <trkpt lat="47.06276" lon="2.36647">
        <ele>153</ele>
        <time>2021-08-21T12:45:30Z</time>
      </trkpt>
      <trkpt lat="47.06282" lon="2.36655">
        <ele>154</ele>
        <time>2021-08-21T12:45:30Z</time>
      </trkpt>
      <trkpt lat="47.06287" lon="2.36663">
        <ele>154</ele>
        <time>2021-08-21T12:45:30Z</time>
      </trkpt>
      <trkpt lat="47.06292" lon="2.36671">
        <ele>153</ele>
        <time>2021-08-21T12:45:30Z</time>
      </trkpt>
      <trkpt lat="47.06298" lon="2.36679">
        <ele>153</ele>
        <time>2021-08-21T12:45:30Z</time>
      </trkpt>
      <trkpt lat="47.06303" lon="2.36686">
        <ele>153</ele>
        <time>2021-08-21T12:45:30Z</time>
      </trkpt>
      <trkpt lat="47.06309" lon="2.36694">
        <ele>154</ele>
        <time>2021-08-21T12:45:30Z</time>
      </trkpt>
      <trkpt lat="47.06314" lon="2.36702">
        <ele>153</ele>
        <time>2021-08-21T12:45:30Z</time>
      </trkpt>
      <trkpt lat="47.0632" lon="2.3671">
        <ele>153</ele>
        <time>2021-08-21T12:45:30Z</time>
      </trkpt>
      <trkpt lat="47.06326" lon="2.36718">
        <ele>153</ele>
        <time>2021-08-21T12:45:30Z</time>
      </trkpt>
      <trkpt lat="47.06331" lon="2.36727">
        <ele>152</ele>
        <time>2021-08-21T12:45:30Z</time>
      </trkpt>
      <trkpt lat="47.06337" lon="2.36735">
        <ele>153</ele>
        <time>2021-08-21T12:45:30Z</time>
      </trkpt>
      <trkpt lat="47.06343" lon="2.36744">
        <ele>153</ele>
        <time>2021-08-21T12:45:30Z</time>
      </trkpt>
      <trkpt lat="47.06348" lon="2.36752">
        <ele>153</ele>
        <time>2021-08-21T12:45:30Z</time>
      </trkpt>
      <trkpt lat="47.06354" lon="2.36761">
        <ele>153</ele>
        <time>2021-08-21T12:45:30Z</time>
      </trkpt>
      <trkpt lat="47.0636" lon="2.3677">
        <ele>153</ele>
        <time>2021-08-21T12:45:30Z</time>
      </trkpt>
      <trkpt lat="47.06366" lon="2.36778">
        <ele>152</ele>
        <time>2021-08-21T12:45:30Z</time>
      </trkpt>
      <trkpt lat="47.06372" lon="2.36786">
        <ele>152</ele>
        <time>2021-08-21T12:45:30Z</time>
      </trkpt>
      <trkpt lat="47.06378" lon="2.36794">
        <ele>151</ele>
        <time>2021-08-21T12:45:30Z</time>
      </trkpt>
      <trkpt lat="47.06384" lon="2.36802">
        <ele>151</ele>
        <time>2021-08-21T12:45:30Z</time>
      </trkpt>
      <trkpt lat="47.0639" lon="2.3681">
        <ele>150</ele>
        <time>2021-08-21T12:45:30Z</time>
      </trkpt>
      <trkpt lat="47.06396" lon="2.36818">
        <ele>150</ele>
        <time>2021-08-21T12:45:30Z</time>
      </trkpt>
      <trkpt lat="47.06401" lon="2.36827">
        <ele>150</ele>
        <time>2021-08-21T12:45:30Z</time>
      </trkpt>
      <trkpt lat="47.06407" lon="2.36834">
        <ele>150</ele>
        <time>2021-08-21T12:45:30Z</time>
      </trkpt>
      <trkpt lat="47.06413" lon="2.36841">
        <ele>150</ele>
        <time>2021-08-21T12:45:30Z</time>
      </trkpt>
      <trkpt lat="47.06419" lon="2.36849">
        <ele>150</ele>
        <time>2021-08-21T12:45:30Z</time>
      </trkpt>
      <trkpt lat="47.06425" lon="2.36857">
        <ele>150</ele>
        <time>2021-08-21T12:45:30Z</time>
      </trkpt>
      <trkpt lat="47.06431" lon="2.36865">
        <ele>150</ele>
        <time>2021-08-21T12:45:30Z</time>
      </trkpt>
      <trkpt lat="47.06436" lon="2.36872">
        <ele>150</ele>
        <time>2021-08-21T12:45:30Z</time>
      </trkpt>
      <trkpt lat="47.06441" lon="2.36879">
        <ele>150</ele>
        <time>2021-08-21T12:45:30Z</time>
      </trkpt>
      <trkpt lat="47.06447" lon="2.36886">
        <ele>150</ele>
        <time>2021-08-21T12:45:30Z</time>
      </trkpt>
      <trkpt lat="47.06452" lon="2.36894">
        <ele>150</ele>
        <time>2021-08-21T12:45:30Z</time>
      </trkpt>
      <trkpt lat="47.06457" lon="2.36902">
        <ele>150</ele>
        <time>2021-08-21T12:45:30Z</time>
      </trkpt>
      <trkpt lat="47.06463" lon="2.3691">
        <ele>150</ele>
        <time>2021-08-21T12:45:30Z</time>
      </trkpt>
      <trkpt lat="47.06469" lon="2.36917">
        <ele>150</ele>
        <time>2021-08-21T12:45:30Z</time>
      </trkpt>
      <trkpt lat="47.06474" lon="2.36924">
        <ele>149</ele>
        <time>2021-08-21T12:45:30Z</time>
      </trkpt>
      <trkpt lat="47.0648" lon="2.36931">
        <ele>149</ele>
        <time>2021-08-21T12:45:30Z</time>
      </trkpt>
      <trkpt lat="47.06485" lon="2.36939">
        <ele>149</ele>
        <time>2021-08-21T12:45:30Z</time>
      </trkpt>
      <trkpt lat="47.06491" lon="2.36946">
        <ele>149</ele>
        <time>2021-08-21T12:45:30Z</time>
      </trkpt>
      <trkpt lat="47.06496" lon="2.36953">
        <ele>149</ele>
        <time>2021-08-21T12:45:30Z</time>
      </trkpt>
      <trkpt lat="47.06502" lon="2.3696">
        <ele>149</ele>
        <time>2021-08-21T12:45:30Z</time>
      </trkpt>
      <trkpt lat="47.06507" lon="2.36967">
        <ele>149</ele>
        <time>2021-08-21T12:45:30Z</time>
      </trkpt>
      <trkpt lat="47.06512" lon="2.36974">
        <ele>150</ele>
        <time>2021-08-21T12:45:30Z</time>
      </trkpt>
      <trkpt lat="47.06517" lon="2.36981">
        <ele>150</ele>
        <time>2021-08-21T12:45:30Z</time>
      </trkpt>
      <trkpt lat="47.06522" lon="2.36988">
        <ele>150</ele>
        <time>2021-08-21T12:45:30Z</time>
      </trkpt>
      <trkpt lat="47.06527" lon="2.36995">
        <ele>150</ele>
        <time>2021-08-21T12:45:30Z</time>
      </trkpt>
      <trkpt lat="47.06532" lon="2.37003">
        <ele>149</ele>
        <time>2021-08-21T12:45:30Z</time>
      </trkpt>
      <trkpt lat="47.06537" lon="2.3701">
        <ele>149</ele>
        <time>2021-08-21T12:45:30Z</time>
      </trkpt>
      <trkpt lat="47.06542" lon="2.37016">
        <ele>149</ele>
        <time>2021-08-21T12:45:30Z</time>
      </trkpt>
      <trkpt lat="47.06547" lon="2.37023">
        <ele>149</ele>
        <time>2021-08-21T12:45:30Z</time>
      </trkpt>
      <trkpt lat="47.06551" lon="2.37029">
        <ele>150</ele>
        <time>2021-08-21T12:45:30Z</time>
      </trkpt>
      <trkpt lat="47.06556" lon="2.37036">
        <ele>150</ele>
        <time>2021-08-21T12:45:30Z</time>
      </trkpt>
      <trkpt lat="47.06561" lon="2.37042">
        <ele>150</ele>
        <time>2021-08-21T12:45:30Z</time>
      </trkpt>
      <trkpt lat="47.06566" lon="2.37049">
        <ele>150</ele>
        <time>2021-08-21T12:45:30Z</time>
      </trkpt>
      <trkpt lat="47.06572" lon="2.37055">
        <ele>150</ele>
        <time>2021-08-21T12:45:30Z</time>
      </trkpt>
      <trkpt lat="47.06577" lon="2.3706">
        <ele>150</ele>
        <time>2021-08-21T12:45:30Z</time>
      </trkpt>
      <trkpt lat="47.06583" lon="2.37065">
        <ele>150</ele>
        <time>2021-08-21T12:45:30Z</time>
      </trkpt>
      <trkpt lat="47.06607" lon="2.37099">
        <ele>151</ele>
        <time>2021-08-21T12:45:30Z</time>
      </trkpt>
      <trkpt lat="47.06633" lon="2.37128">
        <ele>152</ele>
        <time>2021-08-21T12:45:30Z</time>
      </trkpt>
      <trkpt lat="47.06652" lon="2.37167">
        <ele>151</ele>
        <time>2021-08-21T12:45:30Z</time>
      </trkpt>
      <trkpt lat="47.06677" lon="2.372">
        <ele>152</ele>
        <time>2021-08-21T12:45:30Z</time>
      </trkpt>
      <trkpt lat="47.067" lon="2.37231">
        <ele>154</ele>
        <time>2021-08-21T12:45:30Z</time>
      </trkpt>
      <trkpt lat="47.06717" lon="2.37256">
        <ele>154</ele>
        <time>2021-08-21T12:45:30Z</time>
      </trkpt>
      <trkpt lat="47.06721" lon="2.37262">
        <ele>154</ele>
        <time>2021-08-21T12:45:30Z</time>
      </trkpt>
      <trkpt lat="47.06743" lon="2.37292">
        <ele>154</ele>
        <time>2021-08-21T12:45:30Z</time>
      </trkpt>
      <trkpt lat="47.06765" lon="2.37322">
        <ele>156</ele>
        <time>2021-08-21T12:45:30Z</time>
      </trkpt>
      <trkpt lat="47.06785" lon="2.37351">
        <ele>156</ele>
        <time>2021-08-21T12:45:30Z</time>
      </trkpt>
      <trkpt lat="47.06806" lon="2.37377">
        <ele>156</ele>
        <time>2021-08-21T12:45:30Z</time>
      </trkpt>
      <trkpt lat="47.06827" lon="2.37404">
        <ele>156</ele>
        <time>2021-08-21T12:45:30Z</time>
      </trkpt>
      <trkpt lat="47.06842" lon="2.37427">
        <ele>156</ele>
        <time>2021-08-21T12:45:30Z</time>
      </trkpt>
      <trkpt lat="47.06845" lon="2.37435">
        <ele>156</ele>
        <time>2021-08-21T12:45:30Z</time>
      </trkpt>
      <trkpt lat="47.06845" lon="2.37442">
        <ele>157</ele>
        <time>2021-08-21T12:45:30Z</time>
      </trkpt>
      <trkpt lat="47.06846" lon="2.3745">
        <ele>157</ele>
        <time>2021-08-21T12:45:30Z</time>
      </trkpt>
      <trkpt lat="47.06845" lon="2.37458">
        <ele>157</ele>
        <time>2021-08-21T12:45:30Z</time>
      </trkpt>
      <trkpt lat="47.06843" lon="2.37466">
        <ele>157</ele>
        <time>2021-08-21T12:45:30Z</time>
      </trkpt>
      <trkpt lat="47.06838" lon="2.37472">
        <ele>157</ele>
        <time>2021-08-21T12:45:30Z</time>
      </trkpt>
      <trkpt lat="47.06835" lon="2.37479">
        <ele>158</ele>
        <time>2021-08-21T12:45:30Z</time>
      </trkpt>
      <trkpt lat="47.06831" lon="2.37484">
        <ele>158</ele>
        <time>2021-08-21T12:45:30Z</time>
      </trkpt>
      <trkpt lat="47.06827" lon="2.37491">
        <ele>158</ele>
        <time>2021-08-21T12:45:30Z</time>
      </trkpt>
      <trkpt lat="47.06823" lon="2.37497">
        <ele>159</ele>
        <time>2021-08-21T12:45:30Z</time>
      </trkpt>
      <trkpt lat="47.0682" lon="2.37502">
        <ele>159</ele>
        <time>2021-08-21T12:45:30Z</time>
      </trkpt>
      <trkpt lat="47.06816" lon="2.37509">
        <ele>159</ele>
        <time>2021-08-21T12:45:30Z</time>
      </trkpt>
      <trkpt lat="47.06813" lon="2.37516">
        <ele>160</ele>
        <time>2021-08-21T12:45:30Z</time>
      </trkpt>
      <trkpt lat="47.06809" lon="2.37521">
        <ele>160</ele>
        <time>2021-08-21T12:45:30Z</time>
      </trkpt>
      <trkpt lat="47.06805" lon="2.37527">
        <ele>160</ele>
        <time>2021-08-21T12:45:30Z</time>
      </trkpt>
      <trkpt lat="47.06802" lon="2.37532">
        <ele>161</ele>
        <time>2021-08-21T12:45:30Z</time>
      </trkpt>
      <trkpt lat="47.06799" lon="2.37538">
        <ele>161</ele>
        <time>2021-08-21T12:45:30Z</time>
      </trkpt>
      <trkpt lat="47.06796" lon="2.37542">
        <ele>161</ele>
        <time>2021-08-21T12:45:30Z</time>
      </trkpt>
      <trkpt lat="47.06793" lon="2.37547">
        <ele>161</ele>
        <time>2021-08-21T12:45:30Z</time>
      </trkpt>
      <trkpt lat="47.0679" lon="2.37552">
        <ele>161</ele>
        <time>2021-08-21T12:45:30Z</time>
      </trkpt>
      <trkpt lat="47.06789" lon="2.37558">
        <ele>162</ele>
        <time>2021-08-21T12:45:30Z</time>
      </trkpt>
      <trkpt lat="47.06788" lon="2.37563">
        <ele>162</ele>
        <time>2021-08-21T12:45:30Z</time>
      </trkpt>
      <trkpt lat="47.06786" lon="2.37567">
        <ele>162</ele>
        <time>2021-08-21T12:45:30Z</time>
      </trkpt>
      <trkpt lat="47.06786" lon="2.3757">
        <ele>162</ele>
        <time>2021-08-21T12:45:30Z</time>
      </trkpt>
      <trkpt lat="47.06786" lon="2.37572">
        <ele>162</ele>
        <time>2021-08-21T12:45:30Z</time>
      </trkpt>
      <trkpt lat="47.06786" lon="2.37572">
        <ele>162</ele>
        <time>2021-08-21T12:45:30Z</time>
      </trkpt>
      <trkpt lat="47.06786" lon="2.37571">
        <ele>162</ele>
        <time>2021-08-21T12:45:30Z</time>
      </trkpt>
      <trkpt lat="47.06786" lon="2.3757">
        <ele>162</ele>
        <time>2021-08-21T12:45:30Z</time>
      </trkpt>
      <trkpt lat="47.06786" lon="2.3757">
        <ele>162</ele>
        <time>2021-08-21T12:45:30Z</time>
      </trkpt>
      <trkpt lat="47.06786" lon="2.37569">
        <ele>162</ele>
        <time>2021-08-21T12:45:30Z</time>
      </trkpt>
      <trkpt lat="47.06787" lon="2.37569">
        <ele>162</ele>
        <time>2021-08-21T12:45:30Z</time>
      </trkpt>
      <trkpt lat="47.06787" lon="2.3757">
        <ele>162</ele>
        <time>2021-08-21T12:45:30Z</time>
      </trkpt>
      <trkpt lat="47.06787" lon="2.3757">
        <ele>162</ele>
        <time>2021-08-21T12:45:30Z</time>
      </trkpt>
      <trkpt lat="47.06787" lon="2.3757">
        <ele>162</ele>
        <time>2021-08-21T12:45:30Z</time>
      </trkpt>
      <trkpt lat="47.06787" lon="2.3757">
        <ele>162</ele>
        <time>2021-08-21T12:45:30Z</time>
      </trkpt>
      <trkpt lat="47.06787" lon="2.3757">
        <ele>162</ele>
        <time>2021-08-21T12:45:30Z</time>
      </trkpt>
      <trkpt lat="47.06787" lon="2.3757">
        <ele>162</ele>
        <time>2021-08-21T12:45:30Z</time>
      </trkpt>
      <trkpt lat="47.06787" lon="2.3757">
        <ele>162</ele>
        <time>2021-08-21T12:45:30Z</time>
      </trkpt>
      <trkpt lat="47.06787" lon="2.3757">
        <ele>162</ele>
        <time>2021-08-21T12:45:30Z</time>
      </trkpt>
      <trkpt lat="47.06787" lon="2.3757">
        <ele>162</ele>
        <time>2021-08-21T12:45:30Z</time>
      </trkpt>
      <trkpt lat="47.06787" lon="2.37571">
        <ele>162</ele>
        <time>2021-08-21T12:45:30Z</time>
      </trkpt>
      <trkpt lat="47.06786" lon="2.37577">
        <ele>162</ele>
        <time>2021-08-21T12:45:30Z</time>
      </trkpt>
      <trkpt lat="47.06787" lon="2.37578">
        <ele>162</ele>
        <time>2021-08-21T12:45:30Z</time>
      </trkpt>
      <trkpt lat="47.06788" lon="2.37577">
        <ele>162</ele>
        <time>2021-08-21T12:45:30Z</time>
      </trkpt>
      <trkpt lat="47.06788" lon="2.37576">
        <ele>162</ele>
        <time>2021-08-21T12:45:30Z</time>
      </trkpt>
      <trkpt lat="47.06787" lon="2.37574">
        <ele>162</ele>
        <time>2021-08-21T12:45:30Z</time>
      </trkpt>
      <trkpt lat="47.06787" lon="2.37572">
        <ele>162</ele>
        <time>2021-08-21T12:45:30Z</time>
      </trkpt>
      <trkpt lat="47.06787" lon="2.37571">
        <ele>162</ele>
        <time>2021-08-21T12:45:30Z</time>
      </trkpt>
      <trkpt lat="47.06786" lon="2.37572">
        <ele>162</ele>
        <time>2021-08-21T12:45:30Z</time>
      </trkpt>
      <trkpt lat="47.06785" lon="2.37572">
        <ele>162</ele>
        <time>2021-08-21T12:45:30Z</time>
      </trkpt>
      <trkpt lat="47.06784" lon="2.37573">
        <ele>162</ele>
        <time>2021-08-21T12:45:30Z</time>
      </trkpt>
      <trkpt lat="47.06782" lon="2.37573">
        <ele>162</ele>
        <time>2021-08-21T12:45:30Z</time>
      </trkpt>
      <trkpt lat="47.0678" lon="2.37573">
        <ele>162</ele>
        <time>2021-08-21T12:45:30Z</time>
      </trkpt>
      <trkpt lat="47.06777" lon="2.37574">
        <ele>162</ele>
        <time>2021-08-21T12:45:30Z</time>
      </trkpt>
      <trkpt lat="47.06775" lon="2.37575">
        <ele>162</ele>
        <time>2021-08-21T12:45:30Z</time>
      </trkpt>
      <trkpt lat="47.06772" lon="2.37578">
        <ele>163</ele>
        <time>2021-08-21T12:45:30Z</time>
      </trkpt>
      <trkpt lat="47.06756" lon="2.37599">
        <ele>163</ele>
        <time>2021-08-21T12:45:30Z</time>
      </trkpt>
      <trkpt lat="47.0674" lon="2.37626">
        <ele>162</ele>
        <time>2021-08-21T12:45:30Z</time>
      </trkpt>
      <trkpt lat="47.0672" lon="2.37656">
        <ele>161</ele>
        <time>2021-08-21T12:45:30Z</time>
      </trkpt>
      <trkpt lat="47.067" lon="2.37686">
        <ele>160</ele>
        <time>2021-08-21T12:45:30Z</time>
      </trkpt>
      <trkpt lat="47.06679" lon="2.37717">
        <ele>160</ele>
        <time>2021-08-21T12:45:30Z</time>
      </trkpt>
      <trkpt lat="47.06664" lon="2.37744">
        <ele>160</ele>
        <time>2021-08-21T12:45:30Z</time>
      </trkpt>
      <trkpt lat="47.0666" lon="2.37751">
        <ele>159</ele>
        <time>2021-08-21T12:45:30Z</time>
      </trkpt>
      <trkpt lat="47.06639" lon="2.37785">
        <ele>158</ele>
        <time>2021-08-21T12:45:30Z</time>
      </trkpt>
      <trkpt lat="47.06618" lon="2.37819">
        <ele>157</ele>
        <time>2021-08-21T12:45:30Z</time>
      </trkpt>
      <trkpt lat="47.06597" lon="2.37851">
        <ele>157</ele>
        <time>2021-08-21T12:45:30Z</time>
      </trkpt>
      <trkpt lat="47.0658" lon="2.37886">
        <ele>156</ele>
        <time>2021-08-21T12:45:30Z</time>
      </trkpt>
      <trkpt lat="47.06569" lon="2.37921">
        <ele>156</ele>
        <time>2021-08-21T12:45:30Z</time>
      </trkpt>
      <trkpt lat="47.06559" lon="2.37949">
        <ele>157</ele>
        <time>2021-08-21T12:45:30Z</time>
      </trkpt>
      <trkpt lat="47.06558" lon="2.37956">
        <ele>157</ele>
        <time>2021-08-21T12:45:30Z</time>
      </trkpt>
      <trkpt lat="47.06551" lon="2.37979">
        <ele>157</ele>
        <time>2021-08-21T12:45:30Z</time>
      </trkpt>
      <trkpt lat="47.06548" lon="2.37989">
        <ele>157</ele>
        <time>2021-08-21T12:45:30Z</time>
      </trkpt>
      <trkpt lat="47.06544" lon="2.38">
        <ele>156</ele>
        <time>2021-08-21T12:45:30Z</time>
      </trkpt>
      <trkpt lat="47.0653" lon="2.38024">
        <ele>154</ele>
        <time>2021-08-21T12:45:30Z</time>
      </trkpt>
      <trkpt lat="47.06515" lon="2.3806">
        <ele>152</ele>
        <time>2021-08-21T12:45:30Z</time>
      </trkpt>
      <trkpt lat="47.06501" lon="2.3809">
        <ele>151</ele>
        <time>2021-08-21T12:45:30Z</time>
      </trkpt>
      <trkpt lat="47.06498" lon="2.38098">
        <ele>152</ele>
        <time>2021-08-21T12:45:30Z</time>
      </trkpt>
      <trkpt lat="47.06479" lon="2.38139">
        <ele>150</ele>
        <time>2021-08-21T12:45:30Z</time>
      </trkpt>
      <trkpt lat="47.0646" lon="2.3818">
        <ele>150</ele>
        <time>2021-08-21T12:45:30Z</time>
      </trkpt>
      <trkpt lat="47.06442" lon="2.3822">
        <ele>149</ele>
        <time>2021-08-21T12:45:30Z</time>
      </trkpt>
      <trkpt lat="47.06423" lon="2.38261">
        <ele>149</ele>
        <time>2021-08-21T12:45:30Z</time>
      </trkpt>
      <trkpt lat="47.06406" lon="2.38302">
        <ele>150</ele>
        <time>2021-08-21T12:45:30Z</time>
      </trkpt>
      <trkpt lat="47.06396" lon="2.38325">
        <ele>151</ele>
        <time>2021-08-21T12:45:30Z</time>
      </trkpt>
      <trkpt lat="47.06393" lon="2.38329">
        <ele>151</ele>
        <time>2021-08-21T12:45:30Z</time>
      </trkpt>
      <trkpt lat="47.06387" lon="2.38346">
        <ele>151</ele>
        <time>2021-08-21T12:45:30Z</time>
      </trkpt>
      <trkpt lat="47.06364" lon="2.38351">
        <ele>151</ele>
        <time>2021-08-21T12:45:30Z</time>
      </trkpt>
      <trkpt lat="47.06346" lon="2.38371">
        <ele>151</ele>
        <time>2021-08-21T12:45:30Z</time>
      </trkpt>
      <trkpt lat="47.06331" lon="2.384">
        <ele>151</ele>
        <time>2021-08-21T12:45:30Z</time>
      </trkpt>
      <trkpt lat="47.06316" lon="2.38434">
        <ele>150</ele>
        <time>2021-08-21T12:45:30Z</time>
      </trkpt>
      <trkpt lat="47.06304" lon="2.38462">
        <ele>149</ele>
        <time>2021-08-21T12:45:30Z</time>
      </trkpt>
      <trkpt lat="47.06301" lon="2.38468">
        <ele>149</ele>
        <time>2021-08-21T12:45:30Z</time>
      </trkpt>
      <trkpt lat="47.06293" lon="2.38487">
        <ele>149</ele>
        <time>2021-08-21T12:45:30Z</time>
      </trkpt>
      <trkpt lat="47.0629" lon="2.38493">
        <ele>148</ele>
        <time>2021-08-21T12:45:30Z</time>
      </trkpt>
      <trkpt lat="47.06275" lon="2.38524">
        <ele>148</ele>
        <time>2021-08-21T12:45:30Z</time>
      </trkpt>
      <trkpt lat="47.06262" lon="2.38556">
        <ele>146</ele>
        <time>2021-08-21T12:45:30Z</time>
      </trkpt>
      <trkpt lat="47.06253" lon="2.38577">
        <ele>146</ele>
        <time>2021-08-21T12:45:30Z</time>
      </trkpt>
      <trkpt lat="47.06243" lon="2.38598">
        <ele>145</ele>
        <time>2021-08-21T12:45:30Z</time>
      </trkpt>
      <trkpt lat="47.06221" lon="2.3859">
        <ele>145</ele>
        <time>2021-08-21T12:45:30Z</time>
      </trkpt>
      <trkpt lat="47.06201" lon="2.38585">
        <ele>145</ele>
        <time>2021-08-21T12:45:30Z</time>
      </trkpt>
      <trkpt lat="47.06196" lon="2.38584">
        <ele>145</ele>
        <time>2021-08-21T12:45:30Z</time>
      </trkpt>
      <trkpt lat="47.06171" lon="2.3858">
        <ele>144</ele>
        <time>2021-08-21T12:45:30Z</time>
      </trkpt>
      <trkpt lat="47.06148" lon="2.38582">
        <ele>144</ele>
        <time>2021-08-21T12:45:30Z</time>
      </trkpt>
      <trkpt lat="47.06119" lon="2.38581">
        <ele>144</ele>
        <time>2021-08-21T12:45:30Z</time>
      </trkpt>
      <trkpt lat="47.06088" lon="2.38585">
        <ele>142</ele>
        <time>2021-08-21T12:45:30Z</time>
      </trkpt>
      <trkpt lat="47.06057" lon="2.3859">
        <ele>143</ele>
        <time>2021-08-21T12:45:30Z</time>
      </trkpt>
      <trkpt lat="47.06032" lon="2.38594">
        <ele>145</ele>
        <time>2021-08-21T12:45:30Z</time>
      </trkpt>
      <trkpt lat="47.06026" lon="2.38596">
        <ele>145</ele>
        <time>2021-08-21T12:45:30Z</time>
      </trkpt>
      <trkpt lat="47.06019" lon="2.38599">
        <ele>145</ele>
        <time>2021-08-21T12:45:30Z</time>
      </trkpt>
      <trkpt lat="47.06013" lon="2.386">
        <ele>146</ele>
        <time>2021-08-21T12:45:30Z</time>
      </trkpt>
      <trkpt lat="47.06007" lon="2.38601">
        <ele>146</ele>
        <time>2021-08-21T12:45:30Z</time>
      </trkpt>
      <trkpt lat="47.06001" lon="2.38602">
        <ele>146</ele>
        <time>2021-08-21T12:45:30Z</time>
      </trkpt>
      <trkpt lat="47.05994" lon="2.38603">
        <ele>147</ele>
        <time>2021-08-21T12:45:30Z</time>
      </trkpt>
      <trkpt lat="47.05988" lon="2.38604">
        <ele>147</ele>
        <time>2021-08-21T12:45:30Z</time>
      </trkpt>
      <trkpt lat="47.0596" lon="2.38609">
        <ele>148</ele>
        <time>2021-08-21T12:45:30Z</time>
      </trkpt>
      <trkpt lat="47.05954" lon="2.3864">
        <ele>149</ele>
        <time>2021-08-21T12:45:30Z</time>
      </trkpt>
      <trkpt lat="47.05963" lon="2.38677">
        <ele>148</ele>
        <time>2021-08-21T12:45:30Z</time>
      </trkpt>
      <trkpt lat="47.05972" lon="2.38713">
        <ele>147</ele>
        <time>2021-08-21T12:45:30Z</time>
      </trkpt>
      <trkpt lat="47.0598" lon="2.38751">
        <ele>145</ele>
        <time>2021-08-21T12:45:30Z</time>
      </trkpt>
      <trkpt lat="47.05987" lon="2.38782">
        <ele>145</ele>
        <time>2021-08-21T12:45:30Z</time>
      </trkpt>
      <trkpt lat="47.05989" lon="2.38791">
        <ele>145</ele>
        <time>2021-08-21T12:45:30Z</time>
      </trkpt>
      <trkpt lat="47.05998" lon="2.38833">
        <ele>146</ele>
        <time>2021-08-21T12:45:30Z</time>
      </trkpt>
      <trkpt lat="47.06007" lon="2.38865">
        <ele>145</ele>
        <time>2021-08-21T12:45:30Z</time>
      </trkpt>
      <trkpt lat="47.06009" lon="2.38873">
        <ele>145</ele>
        <time>2021-08-21T12:45:30Z</time>
      </trkpt>
      <trkpt lat="47.06011" lon="2.38881">
        <ele>145</ele>
        <time>2021-08-21T12:45:30Z</time>
      </trkpt>
      <trkpt lat="47.06013" lon="2.38889">
        <ele>145</ele>
        <time>2021-08-21T12:45:30Z</time>
      </trkpt>
      <trkpt lat="47.06015" lon="2.38897">
        <ele>145</ele>
        <time>2021-08-21T12:45:30Z</time>
      </trkpt>
      <trkpt lat="47.06017" lon="2.38905">
        <ele>144</ele>
        <time>2021-08-21T12:45:30Z</time>
      </trkpt>
      <trkpt lat="47.06018" lon="2.38913">
        <ele>144</ele>
        <time>2021-08-21T12:45:30Z</time>
      </trkpt>
      <trkpt lat="47.0602" lon="2.38922">
        <ele>144</ele>
        <time>2021-08-21T12:45:30Z</time>
      </trkpt>
      <trkpt lat="47.0603" lon="2.38966">
        <ele>144</ele>
        <time>2021-08-21T12:45:30Z</time>
      </trkpt>
      <trkpt lat="47.0604" lon="2.39009">
        <ele>144</ele>
        <time>2021-08-21T12:45:30Z</time>
      </trkpt>
      <trkpt lat="47.06049" lon="2.39045">
        <ele>142</ele>
        <time>2021-08-21T12:45:30Z</time>
      </trkpt>
      <trkpt lat="47.0605" lon="2.39053">
        <ele>142</ele>
        <time>2021-08-21T12:45:30Z</time>
      </trkpt>
      <trkpt lat="47.0605" lon="2.39054">
        <ele>142</ele>
        <time>2021-08-21T12:45:30Z</time>
      </trkpt>
      <trkpt lat="47.06052" lon="2.39057">
        <ele>142</ele>
        <time>2021-08-21T12:45:30Z</time>
      </trkpt>
      <trkpt lat="47.06035" lon="2.3936">
        <ele>132</ele>
        <time>2021-08-21T12:45:30Z</time>
      </trkpt>
      <trkpt lat="47.06028" lon="2.39363">
        <ele>131</ele>
        <time>2021-08-21T12:45:30Z</time>
      </trkpt>
      <trkpt lat="47.06022" lon="2.39366">
        <ele>131</ele>
        <time>2021-08-21T12:45:30Z</time>
      </trkpt>
      <trkpt lat="47.05994" lon="2.39377">
        <ele>128</ele>
        <time>2021-08-21T12:45:30Z</time>
      </trkpt>
      <trkpt lat="47.05968" lon="2.39392">
        <ele>127</ele>
        <time>2021-08-21T12:45:30Z</time>
      </trkpt>
      <trkpt lat="47.05941" lon="2.39403">
        <ele>128</ele>
        <time>2021-08-21T12:45:30Z</time>
      </trkpt>
      <trkpt lat="47.05915" lon="2.39416">
        <ele>131</ele>
        <time>2021-08-21T12:45:30Z</time>
      </trkpt>
      <trkpt lat="47.05894" lon="2.39428">
        <ele>130</ele>
        <time>2021-08-21T12:45:30Z</time>
      </trkpt>
      <trkpt lat="47.0588" lon="2.39435">
        <ele>131</ele>
        <time>2021-08-21T12:45:30Z</time>
      </trkpt>
      <trkpt lat="47.05877" lon="2.39437">
        <ele>131</ele>
        <time>2021-08-21T12:45:30Z</time>
      </trkpt>
      <trkpt lat="47.05875" lon="2.39438">
        <ele>131</ele>
        <time>2021-08-21T12:45:30Z</time>
      </trkpt>
      <trkpt lat="47.05872" lon="2.3944">
        <ele>131</ele>
        <time>2021-08-21T12:45:30Z</time>
      </trkpt>
      <trkpt lat="47.0587" lon="2.39441">
        <ele>131</ele>
        <time>2021-08-21T12:45:30Z</time>
      </trkpt>
      <trkpt lat="47.05868" lon="2.39443">
        <ele>131</ele>
        <time>2021-08-21T12:45:30Z</time>
      </trkpt>
      <trkpt lat="47.05866" lon="2.39446">
        <ele>131</ele>
        <time>2021-08-21T12:45:30Z</time>
      </trkpt>
      <trkpt lat="47.05863" lon="2.39449">
        <ele>131</ele>
        <time>2021-08-21T12:45:30Z</time>
      </trkpt>
      <trkpt lat="47.05861" lon="2.39452">
        <ele>131</ele>
        <time>2021-08-21T12:45:30Z</time>
      </trkpt>
      <trkpt lat="47.05859" lon="2.39457">
        <ele>131</ele>
        <time>2021-08-21T12:45:30Z</time>
      </trkpt>
      <trkpt lat="47.05856" lon="2.39461">
        <ele>131</ele>
        <time>2021-08-21T12:45:30Z</time>
      </trkpt>
      <trkpt lat="47.05854" lon="2.39466">
        <ele>130</ele>
        <time>2021-08-21T12:45:30Z</time>
      </trkpt>
      <trkpt lat="47.05852" lon="2.3947">
        <ele>130</ele>
        <time>2021-08-21T12:45:30Z</time>
      </trkpt>
      <trkpt lat="47.0585" lon="2.39475">
        <ele>130</ele>
        <time>2021-08-21T12:45:30Z</time>
      </trkpt>
      <trkpt lat="47.05847" lon="2.39479">
        <ele>130</ele>
        <time>2021-08-21T12:45:30Z</time>
      </trkpt>
      <trkpt lat="47.05845" lon="2.39482">
        <ele>130</ele>
        <time>2021-08-21T12:45:30Z</time>
      </trkpt>
      <trkpt lat="47.05842" lon="2.39486">
        <ele>130</ele>
        <time>2021-08-21T12:45:30Z</time>
      </trkpt>
      <trkpt lat="47.0584" lon="2.39489">
        <ele>130</ele>
        <time>2021-08-21T12:45:30Z</time>
      </trkpt>
      <trkpt lat="47.05837" lon="2.39492">
        <ele>130</ele>
        <time>2021-08-21T12:45:30Z</time>
      </trkpt>
      <trkpt lat="47.05834" lon="2.39494">
        <ele>130</ele>
        <time>2021-08-21T12:45:30Z</time>
      </trkpt>
      <trkpt lat="47.0583" lon="2.39495">
        <ele>129</ele>
        <time>2021-08-21T12:45:30Z</time>
      </trkpt>
      <trkpt lat="47.05827" lon="2.39497">
        <ele>129</ele>
        <time>2021-08-21T12:45:30Z</time>
      </trkpt>
      <trkpt lat="47.05824" lon="2.395">
        <ele>129</ele>
        <time>2021-08-21T12:45:30Z</time>
      </trkpt>
      <trkpt lat="47.0582" lon="2.39502">
        <ele>130</ele>
        <time>2021-08-21T12:45:30Z</time>
      </trkpt>
      <trkpt lat="47.05816" lon="2.39505">
        <ele>130</ele>
        <time>2021-08-21T12:45:30Z</time>
      </trkpt>
      <trkpt lat="47.05812" lon="2.39507">
        <ele>130</ele>
        <time>2021-08-21T12:45:30Z</time>
      </trkpt>
      <trkpt lat="47.05808" lon="2.39509">
        <ele>130</ele>
        <time>2021-08-21T12:45:30Z</time>
      </trkpt>
      <trkpt lat="47.05804" lon="2.39512">
        <ele>130</ele>
        <time>2021-08-21T12:45:30Z</time>
      </trkpt>
      <trkpt lat="47.05799" lon="2.39514">
        <ele>130</ele>
        <time>2021-08-21T12:45:30Z</time>
      </trkpt>
      <trkpt lat="47.05795" lon="2.39516">
        <ele>130</ele>
        <time>2021-08-21T12:45:30Z</time>
      </trkpt>
      <trkpt lat="47.05792" lon="2.39518">
        <ele>130</ele>
        <time>2021-08-21T12:45:30Z</time>
      </trkpt>
      <trkpt lat="47.05789" lon="2.39522">
        <ele>130</ele>
        <time>2021-08-21T12:45:30Z</time>
      </trkpt>
      <trkpt lat="47.05787" lon="2.39527">
        <ele>130</ele>
        <time>2021-08-21T12:45:30Z</time>
      </trkpt>
      <trkpt lat="47.05786" lon="2.39533">
        <ele>130</ele>
        <time>2021-08-21T12:45:30Z</time>
      </trkpt>
      <trkpt lat="47.05785" lon="2.39538">
        <ele>130</ele>
        <time>2021-08-21T12:45:30Z</time>
      </trkpt>
      <trkpt lat="47.05784" lon="2.39544">
        <ele>130</ele>
        <time>2021-08-21T12:45:30Z</time>
      </trkpt>
      <trkpt lat="47.05784" lon="2.39549">
        <ele>130</ele>
        <time>2021-08-21T12:45:30Z</time>
      </trkpt>
      <trkpt lat="47.05785" lon="2.39555">
        <ele>130</ele>
        <time>2021-08-21T12:45:30Z</time>
      </trkpt>
      <trkpt lat="47.05787" lon="2.39559">
        <ele>131</ele>
        <time>2021-08-21T12:45:30Z</time>
      </trkpt>
      <trkpt lat="47.0579" lon="2.39563">
        <ele>131</ele>
        <time>2021-08-21T12:45:30Z</time>
      </trkpt>
      <trkpt lat="47.05794" lon="2.39565">
        <ele>131</ele>
        <time>2021-08-21T12:45:30Z</time>
      </trkpt>
      <trkpt lat="47.05807" lon="2.39556">
        <ele>130</ele>
        <time>2021-08-21T12:45:30Z</time>
      </trkpt>
      <trkpt lat="47.05811" lon="2.39555">
        <ele>130</ele>
        <time>2021-08-21T12:45:30Z</time>
      </trkpt>
      <trkpt lat="47.05816" lon="2.39555">
        <ele>130</ele>
        <time>2021-08-21T12:45:30Z</time>
      </trkpt>
      <trkpt lat="47.05821" lon="2.39556">
        <ele>129</ele>
        <time>2021-08-21T12:45:30Z</time>
      </trkpt>
      <trkpt lat="47.05826" lon="2.39557">
        <ele>129</ele>
        <time>2021-08-21T12:45:30Z</time>
      </trkpt>
      <trkpt lat="47.05833" lon="2.39558">
        <ele>128</ele>
        <time>2021-08-21T12:45:30Z</time>
      </trkpt>
      <trkpt lat="47.05839" lon="2.3956">
        <ele>128</ele>
        <time>2021-08-21T12:45:30Z</time>
      </trkpt>
      <trkpt lat="47.05842" lon="2.3956">
        <ele>127</ele>
        <time>2021-08-21T12:45:30Z</time>
      </trkpt>
      <trkpt lat="47.05849" lon="2.39562">
        <ele>126</ele>
        <time>2021-08-21T12:45:30Z</time>
      </trkpt>
      <trkpt lat="47.05855" lon="2.39564">
        <ele>125</ele>
        <time>2021-08-21T12:45:30Z</time>
      </trkpt>
      <trkpt lat="47.05867" lon="2.39569">
        <ele>124</ele>
        <time>2021-08-21T12:45:30Z</time>
      </trkpt>
      <trkpt lat="47.05873" lon="2.39573">
        <ele>124</ele>
        <time>2021-08-21T12:45:30Z</time>
      </trkpt>
      <trkpt lat="47.05879" lon="2.39577">
        <ele>124</ele>
        <time>2021-08-21T12:45:30Z</time>
      </trkpt>
      <trkpt lat="47.05885" lon="2.39581">
        <ele>124</ele>
        <time>2021-08-21T12:45:30Z</time>
      </trkpt>
      <trkpt lat="47.05896" lon="2.3959">
        <ele>125</ele>
        <time>2021-08-21T12:45:30Z</time>
      </trkpt>
      <trkpt lat="47.05901" lon="2.39595">
        <ele>125</ele>
        <time>2021-08-21T12:45:30Z</time>
      </trkpt>
      <trkpt lat="47.05905" lon="2.39601">
        <ele>126</ele>
        <time>2021-08-21T12:45:30Z</time>
      </trkpt>
      <trkpt lat="47.05909" lon="2.39607">
        <ele>126</ele>
        <time>2021-08-21T12:45:30Z</time>
      </trkpt>
      <trkpt lat="47.05913" lon="2.39614">
        <ele>127</ele>
        <time>2021-08-21T12:45:30Z</time>
      </trkpt>
      <trkpt lat="47.05917" lon="2.39622">
        <ele>127</ele>
        <time>2021-08-21T12:45:30Z</time>
      </trkpt>
      <trkpt lat="47.0592" lon="2.39628">
        <ele>127</ele>
        <time>2021-08-21T12:45:30Z</time>
      </trkpt>
      <trkpt lat="47.05946" lon="2.39661">
        <ele>126</ele>
        <time>2021-08-21T12:45:30Z</time>
      </trkpt>
      <trkpt lat="47.05986" lon="2.39692">
        <ele>126</ele>
        <time>2021-08-21T12:45:30Z</time>
      </trkpt>
      <trkpt lat="47.0602" lon="2.39712">
        <ele>126</ele>
        <time>2021-08-21T12:45:30Z</time>
      </trkpt>
      <trkpt lat="47.06055" lon="2.39703">
        <ele>126</ele>
        <time>2021-08-21T12:45:30Z</time>
      </trkpt>
      <trkpt lat="47.06091" lon="2.39689">
        <ele>129</ele>
        <time>2021-08-21T12:45:30Z</time>
      </trkpt>
      <trkpt lat="47.06114" lon="2.39679">
        <ele>129</ele>
        <time>2021-08-21T12:45:30Z</time>
      </trkpt>
      <trkpt lat="47.06127" lon="2.39673">
        <ele>127</ele>
        <time>2021-08-21T12:45:30Z</time>
      </trkpt>
      <trkpt lat="47.06164" lon="2.39659">
        <ele>126</ele>
        <time>2021-08-21T12:45:30Z</time>
      </trkpt>
      <trkpt lat="47.06193" lon="2.39648">
        <ele>127</ele>
        <time>2021-08-21T12:45:30Z</time>
      </trkpt>
      <trkpt lat="47.06215" lon="2.39657">
        <ele>126</ele>
        <time>2021-08-21T12:45:30Z</time>
      </trkpt>
      <trkpt lat="47.06222" lon="2.39688">
        <ele>125</ele>
        <time>2021-08-21T12:45:30Z</time>
      </trkpt>
      <trkpt lat="47.06228" lon="2.39721">
        <ele>125</ele>
        <time>2021-08-21T12:45:30Z</time>
      </trkpt>
      <trkpt lat="47.06236" lon="2.39749">
        <ele>126</ele>
        <time>2021-08-21T12:45:30Z</time>
      </trkpt>
      <trkpt lat="47.06239" lon="2.39757">
        <ele>127</ele>
        <time>2021-08-21T12:45:30Z</time>
      </trkpt>
      <trkpt lat="47.06255" lon="2.3979">
        <ele>130</ele>
        <time>2021-08-21T12:45:30Z</time>
      </trkpt>
      <trkpt lat="47.06273" lon="2.39818">
        <ele>131</ele>
        <time>2021-08-21T12:45:30Z</time>
      </trkpt>
      <trkpt lat="47.06285" lon="2.39843">
        <ele>131</ele>
        <time>2021-08-21T12:45:30Z</time>
      </trkpt>
      <trkpt lat="47.0629" lon="2.39875">
        <ele>130</ele>
        <time>2021-08-21T12:45:30Z</time>
      </trkpt>
      <trkpt lat="47.06298" lon="2.39913">
        <ele>129</ele>
        <time>2021-08-21T12:45:30Z</time>
      </trkpt>
      <trkpt lat="47.06305" lon="2.39946">
        <ele>129</ele>
        <time>2021-08-21T12:45:30Z</time>
      </trkpt>
      <trkpt lat="47.06307" lon="2.39954">
        <ele>129</ele>
        <time>2021-08-21T12:45:30Z</time>
      </trkpt>
      <trkpt lat="47.06308" lon="2.39963">
        <ele>129</ele>
        <time>2021-08-21T12:45:30Z</time>
      </trkpt>
      <trkpt lat="47.0631" lon="2.39971">
        <ele>129</ele>
        <time>2021-08-21T12:45:30Z</time>
      </trkpt>
      <trkpt lat="47.06311" lon="2.39978">
        <ele>130</ele>
        <time>2021-08-21T12:45:30Z</time>
      </trkpt>
      <trkpt lat="47.06313" lon="2.39986">
        <ele>130</ele>
        <time>2021-08-21T12:45:30Z</time>
      </trkpt>
      <trkpt lat="47.06316" lon="2.39991">
        <ele>130</ele>
        <time>2021-08-21T12:45:30Z</time>
      </trkpt>
      <trkpt lat="47.06319" lon="2.39996">
        <ele>130</ele>
        <time>2021-08-21T12:45:30Z</time>
      </trkpt>
      <trkpt lat="47.06321" lon="2.40002">
        <ele>131</ele>
        <time>2021-08-21T12:45:30Z</time>
      </trkpt>
      <trkpt lat="47.06322" lon="2.40007">
        <ele>131</ele>
        <time>2021-08-21T12:45:30Z</time>
      </trkpt>
      <trkpt lat="47.06326" lon="2.4001">
        <ele>131</ele>
        <time>2021-08-21T12:45:30Z</time>
      </trkpt>
      <trkpt lat="47.0633" lon="2.40011">
        <ele>131</ele>
        <time>2021-08-21T12:45:30Z</time>
      </trkpt>
      <trkpt lat="47.06333" lon="2.40013">
        <ele>131</ele>
        <time>2021-08-21T12:45:30Z</time>
      </trkpt>
      <trkpt lat="47.06337" lon="2.40014">
        <ele>131</ele>
        <time>2021-08-21T12:45:30Z</time>
      </trkpt>
      <trkpt lat="47.06341" lon="2.40014">
        <ele>131</ele>
        <time>2021-08-21T12:45:30Z</time>
      </trkpt>
      <trkpt lat="47.06346" lon="2.40009">
        <ele>131</ele>
        <time>2021-08-21T12:45:30Z</time>
      </trkpt>
      <trkpt lat="47.06351" lon="2.40007">
        <ele>131</ele>
        <time>2021-08-21T12:45:30Z</time>
      </trkpt>
      <trkpt lat="47.06356" lon="2.40005">
        <ele>131</ele>
        <time>2021-08-21T12:45:30Z</time>
      </trkpt>
      <trkpt lat="47.06361" lon="2.40003">
        <ele>131</ele>
        <time>2021-08-21T12:45:30Z</time>
      </trkpt>
      <trkpt lat="47.06366" lon="2.4">
        <ele>131</ele>
        <time>2021-08-21T12:45:30Z</time>
      </trkpt>
      <trkpt lat="47.06371" lon="2.39998">
        <ele>131</ele>
        <time>2021-08-21T12:45:30Z</time>
      </trkpt>
      <trkpt lat="47.06376" lon="2.39996">
        <ele>131</ele>
        <time>2021-08-21T12:45:30Z</time>
      </trkpt>
      <trkpt lat="47.06381" lon="2.39993">
        <ele>131</ele>
        <time>2021-08-21T12:45:30Z</time>
      </trkpt>
      <trkpt lat="47.06386" lon="2.3999">
        <ele>131</ele>
        <time>2021-08-21T12:45:30Z</time>
      </trkpt>
      <trkpt lat="47.06391" lon="2.39988">
        <ele>131</ele>
        <time>2021-08-21T12:45:30Z</time>
      </trkpt>
      <trkpt lat="47.06396" lon="2.39986">
        <ele>131</ele>
        <time>2021-08-21T12:45:30Z</time>
      </trkpt>
      <trkpt lat="47.06401" lon="2.39984">
        <ele>131</ele>
        <time>2021-08-21T12:45:30Z</time>
      </trkpt>
      <trkpt lat="47.06406" lon="2.39982">
        <ele>131</ele>
        <time>2021-08-21T12:45:30Z</time>
      </trkpt>
      <trkpt lat="47.0641" lon="2.3998">
        <ele>131</ele>
        <time>2021-08-21T12:45:30Z</time>
      </trkpt>
      <trkpt lat="47.06415" lon="2.39978">
        <ele>131</ele>
        <time>2021-08-21T12:45:30Z</time>
      </trkpt>
      <trkpt lat="47.06419" lon="2.39976">
        <ele>131</ele>
        <time>2021-08-21T12:45:30Z</time>
      </trkpt>
      <trkpt lat="47.06423" lon="2.39974">
        <ele>131</ele>
        <time>2021-08-21T12:45:30Z</time>
      </trkpt>
      <trkpt lat="47.06427" lon="2.39973">
        <ele>131</ele>
        <time>2021-08-21T12:45:30Z</time>
      </trkpt>
      <trkpt lat="47.06431" lon="2.39971">
        <ele>131</ele>
        <time>2021-08-21T12:45:30Z</time>
      </trkpt>
      <trkpt lat="47.06435" lon="2.39968">
        <ele>132</ele>
        <time>2021-08-21T12:45:30Z</time>
      </trkpt>
      <trkpt lat="47.06439" lon="2.39967">
        <ele>132</ele>
        <time>2021-08-21T12:45:30Z</time>
      </trkpt>
      <trkpt lat="47.06443" lon="2.39964">
        <ele>132</ele>
        <time>2021-08-21T12:45:30Z</time>
      </trkpt>
      <trkpt lat="47.06448" lon="2.39963">
        <ele>132</ele>
        <time>2021-08-21T12:45:30Z</time>
      </trkpt>
      <trkpt lat="47.06453" lon="2.39961">
        <ele>133</ele>
        <time>2021-08-21T12:45:30Z</time>
      </trkpt>
      <trkpt lat="47.06457" lon="2.39959">
        <ele>133</ele>
        <time>2021-08-21T12:45:30Z</time>
      </trkpt>
      <trkpt lat="47.06462" lon="2.39958">
        <ele>133</ele>
        <time>2021-08-21T12:45:30Z</time>
      </trkpt>
      <trkpt lat="47.06466" lon="2.39957">
        <ele>134</ele>
        <time>2021-08-21T12:45:30Z</time>
      </trkpt>
      <trkpt lat="47.06471" lon="2.39955">
        <ele>134</ele>
        <time>2021-08-21T12:45:30Z</time>
      </trkpt>
      <trkpt lat="47.06476" lon="2.39955">
        <ele>134</ele>
        <time>2021-08-21T12:45:30Z</time>
      </trkpt>
      <trkpt lat="47.0648" lon="2.39953">
        <ele>134</ele>
        <time>2021-08-21T12:45:30Z</time>
      </trkpt>
      <trkpt lat="47.06485" lon="2.39953">
        <ele>134</ele>
        <time>2021-08-21T12:45:30Z</time>
      </trkpt>
      <trkpt lat="47.0649" lon="2.39952">
        <ele>135</ele>
        <time>2021-08-21T12:45:30Z</time>
      </trkpt>
      <trkpt lat="47.06494" lon="2.39952">
        <ele>135</ele>
        <time>2021-08-21T12:45:30Z</time>
      </trkpt>
      <trkpt lat="47.06499" lon="2.39951">
        <ele>135</ele>
        <time>2021-08-21T12:45:30Z</time>
      </trkpt>
      <trkpt lat="47.06504" lon="2.3995">
        <ele>135</ele>
        <time>2021-08-21T12:45:30Z</time>
      </trkpt>
      <trkpt lat="47.06509" lon="2.3995">
        <ele>134</ele>
        <time>2021-08-21T12:45:30Z</time>
      </trkpt>
      <trkpt lat="47.06514" lon="2.3995">
        <ele>134</ele>
        <time>2021-08-21T12:45:30Z</time>
      </trkpt>
      <trkpt lat="47.06519" lon="2.39949">
        <ele>134</ele>
        <time>2021-08-21T12:45:30Z</time>
      </trkpt>
      <trkpt lat="47.06524" lon="2.39949">
        <ele>134</ele>
        <time>2021-08-21T12:45:30Z</time>
      </trkpt>
      <trkpt lat="47.06529" lon="2.39948">
        <ele>134</ele>
        <time>2021-08-21T12:45:30Z</time>
      </trkpt>
      <trkpt lat="47.06534" lon="2.39947">
        <ele>134</ele>
        <time>2021-08-21T12:45:30Z</time>
      </trkpt>
      <trkpt lat="47.06539" lon="2.39947">
        <ele>134</ele>
        <time>2021-08-21T12:45:30Z</time>
      </trkpt>
      <trkpt lat="47.06545" lon="2.39946">
        <ele>134</ele>
        <time>2021-08-21T12:45:30Z</time>
      </trkpt>
      <trkpt lat="47.06551" lon="2.39945">
        <ele>134</ele>
        <time>2021-08-21T12:45:30Z</time>
      </trkpt>
      <trkpt lat="47.06556" lon="2.39945">
        <ele>133</ele>
        <time>2021-08-21T12:45:30Z</time>
      </trkpt>
      <trkpt lat="47.06562" lon="2.39944">
        <ele>133</ele>
        <time>2021-08-21T12:45:30Z</time>
      </trkpt>
      <trkpt lat="47.06568" lon="2.39943">
        <ele>133</ele>
        <time>2021-08-21T12:45:30Z</time>
      </trkpt>
      <trkpt lat="47.06574" lon="2.39943">
        <ele>133</ele>
        <time>2021-08-21T12:45:30Z</time>
      </trkpt>
      <trkpt lat="47.06604" lon="2.39937">
        <ele>132</ele>
        <time>2021-08-21T12:45:30Z</time>
      </trkpt>
      <trkpt lat="47.06634" lon="2.39927">
        <ele>130</ele>
        <time>2021-08-21T12:45:30Z</time>
      </trkpt>
      <trkpt lat="47.06663" lon="2.39916">
        <ele>130</ele>
        <time>2021-08-21T12:45:30Z</time>
      </trkpt>
      <trkpt lat="47.06692" lon="2.39903">
        <ele>131</ele>
        <time>2021-08-21T12:45:30Z</time>
      </trkpt>
      <trkpt lat="47.06723" lon="2.39899">
        <ele>130</ele>
        <time>2021-08-21T12:45:30Z</time>
      </trkpt>
      <trkpt lat="47.06746" lon="2.399">
        <ele>129</ele>
        <time>2021-08-21T12:45:30Z</time>
      </trkpt>
      <trkpt lat="47.06753" lon="2.39902">
        <ele>130</ele>
        <time>2021-08-21T12:45:30Z</time>
      </trkpt>
      <trkpt lat="47.06785" lon="2.39904">
        <ele>130</ele>
        <time>2021-08-21T12:45:30Z</time>
      </trkpt>
      <trkpt lat="47.06815" lon="2.399">
        <ele>130</ele>
        <time>2021-08-21T12:45:30Z</time>
      </trkpt>
      <trkpt lat="47.06844" lon="2.39895">
        <ele>130</ele>
        <time>2021-08-21T12:45:30Z</time>
      </trkpt>
      <trkpt lat="47.06871" lon="2.3989">
        <ele>132</ele>
        <time>2021-08-21T12:45:30Z</time>
      </trkpt>
      <trkpt lat="47.06897" lon="2.39887">
        <ele>133</ele>
        <time>2021-08-21T12:45:30Z</time>
      </trkpt>
      <trkpt lat="47.06918" lon="2.39887">
        <ele>133</ele>
        <time>2021-08-21T12:45:30Z</time>
      </trkpt>
      <trkpt lat="47.06924" lon="2.39887">
        <ele>133</ele>
        <time>2021-08-21T12:45:30Z</time>
      </trkpt>
      <trkpt lat="47.06951" lon="2.39888">
        <ele>134</ele>
        <time>2021-08-21T12:45:30Z</time>
      </trkpt>
      <trkpt lat="47.06976" lon="2.39889">
        <ele>136</ele>
        <time>2021-08-21T12:45:30Z</time>
      </trkpt>
      <trkpt lat="47.07002" lon="2.39892">
        <ele>136</ele>
        <time>2021-08-21T12:45:30Z</time>
      </trkpt>
      <trkpt lat="47.07027" lon="2.39896">
        <ele>136</ele>
        <time>2021-08-21T12:45:30Z</time>
      </trkpt>
      <trkpt lat="47.0705" lon="2.39899">
        <ele>135</ele>
        <time>2021-08-21T12:45:30Z</time>
      </trkpt>
      <trkpt lat="47.07066" lon="2.39906">
        <ele>135</ele>
        <time>2021-08-21T12:45:30Z</time>
      </trkpt>
      <trkpt lat="47.07068" lon="2.3991">
        <ele>135</ele>
        <time>2021-08-21T12:45:30Z</time>
      </trkpt>
      <trkpt lat="47.07058" lon="2.39941">
        <ele>135</ele>
        <time>2021-08-21T12:45:30Z</time>
      </trkpt>
      <trkpt lat="47.0705" lon="2.39975">
        <ele>135</ele>
        <time>2021-08-21T12:45:30Z</time>
      </trkpt>
      <trkpt lat="47.07043" lon="2.40009">
        <ele>137</ele>
        <time>2021-08-21T12:45:30Z</time>
      </trkpt>
      <trkpt lat="47.07045" lon="2.40045">
        <ele>139</ele>
        <time>2021-08-21T12:45:30Z</time>
      </trkpt>
      <trkpt lat="47.07053" lon="2.40079">
        <ele>141</ele>
        <time>2021-08-21T12:45:30Z</time>
      </trkpt>
      <trkpt lat="47.07058" lon="2.40106">
        <ele>143</ele>
        <time>2021-08-21T12:45:30Z</time>
      </trkpt>
      <trkpt lat="47.07059" lon="2.40112">
        <ele>144</ele>
        <time>2021-08-21T12:45:30Z</time>
      </trkpt>
      <trkpt lat="47.0706" lon="2.40118">
        <ele>144</ele>
        <time>2021-08-21T12:45:30Z</time>
      </trkpt>
      <trkpt lat="47.07062" lon="2.40125">
        <ele>145</ele>
        <time>2021-08-21T12:45:30Z</time>
      </trkpt>
      <trkpt lat="47.07063" lon="2.40131">
        <ele>145</ele>
        <time>2021-08-21T12:45:30Z</time>
      </trkpt>
      <trkpt lat="47.07065" lon="2.40137">
        <ele>145</ele>
        <time>2021-08-21T12:45:30Z</time>
      </trkpt>
      <trkpt lat="47.07066" lon="2.40144">
        <ele>146</ele>
        <time>2021-08-21T12:45:30Z</time>
      </trkpt>
      <trkpt lat="47.07068" lon="2.4015">
        <ele>146</ele>
        <time>2021-08-21T12:45:30Z</time>
      </trkpt>
      <trkpt lat="47.07069" lon="2.40157">
        <ele>146</ele>
        <time>2021-08-21T12:45:30Z</time>
      </trkpt>
      <trkpt lat="47.07071" lon="2.40163">
        <ele>147</ele>
        <time>2021-08-21T12:45:30Z</time>
      </trkpt>
      <trkpt lat="47.07072" lon="2.40169">
        <ele>147</ele>
        <time>2021-08-21T12:45:30Z</time>
      </trkpt>
      <trkpt lat="47.07074" lon="2.40175">
        <ele>147</ele>
        <time>2021-08-21T12:45:30Z</time>
      </trkpt>
      <trkpt lat="47.07074" lon="2.40182">
        <ele>147</ele>
        <time>2021-08-21T12:45:30Z</time>
      </trkpt>
      <trkpt lat="47.07077" lon="2.40188">
        <ele>147</ele>
        <time>2021-08-21T12:45:30Z</time>
      </trkpt>
      <trkpt lat="47.07079" lon="2.40194">
        <ele>147</ele>
        <time>2021-08-21T12:45:30Z</time>
      </trkpt>
      <trkpt lat="47.07082" lon="2.40199">
        <ele>148</ele>
        <time>2021-08-21T12:45:30Z</time>
      </trkpt>
      <trkpt lat="47.07084" lon="2.40205">
        <ele>148</ele>
        <time>2021-08-21T12:45:30Z</time>
      </trkpt>
      <trkpt lat="47.07084" lon="2.4021">
        <ele>148</ele>
        <time>2021-08-21T12:45:30Z</time>
      </trkpt>
      <trkpt lat="47.07081" lon="2.40213">
        <ele>148</ele>
        <time>2021-08-21T12:45:30Z</time>
      </trkpt>
      <trkpt lat="47.07079" lon="2.40216">
        <ele>148</ele>
        <time>2021-08-21T12:45:30Z</time>
      </trkpt>
      <trkpt lat="47.07074" lon="2.40219">
        <ele>148</ele>
        <time>2021-08-21T12:45:30Z</time>
      </trkpt>
      <trkpt lat="47.07071" lon="2.40221">
        <ele>148</ele>
        <time>2021-08-21T12:45:30Z</time>
      </trkpt>
      <trkpt lat="47.07067" lon="2.40225">
        <ele>148</ele>
        <time>2021-08-21T12:45:30Z</time>
      </trkpt>
      <trkpt lat="47.07063" lon="2.40228">
        <ele>148</ele>
        <time>2021-08-21T12:45:30Z</time>
      </trkpt>
      <trkpt lat="47.07058" lon="2.40231">
        <ele>147</ele>
        <time>2021-08-21T12:45:30Z</time>
      </trkpt>
      <trkpt lat="47.07053" lon="2.40234">
        <ele>147</ele>
        <time>2021-08-21T12:45:30Z</time>
      </trkpt>
      <trkpt lat="47.07048" lon="2.40236">
        <ele>146</ele>
        <time>2021-08-21T12:45:30Z</time>
      </trkpt>
      <trkpt lat="47.07043" lon="2.4024">
        <ele>146</ele>
        <time>2021-08-21T12:45:30Z</time>
      </trkpt>
      <trkpt lat="47.07038" lon="2.40242">
        <ele>145</ele>
        <time>2021-08-21T12:45:30Z</time>
      </trkpt>
      <trkpt lat="47.07033" lon="2.40246">
        <ele>145</ele>
        <time>2021-08-21T12:45:30Z</time>
      </trkpt>
      <trkpt lat="47.07026" lon="2.40249">
        <ele>144</ele>
        <time>2021-08-21T12:45:30Z</time>
      </trkpt>
      <trkpt lat="47.07021" lon="2.40252">
        <ele>144</ele>
        <time>2021-08-21T12:45:30Z</time>
      </trkpt>
      <trkpt lat="47.07015" lon="2.40255">
        <ele>144</ele>
        <time>2021-08-21T12:45:30Z</time>
      </trkpt>
      <trkpt lat="47.07009" lon="2.40258">
        <ele>144</ele>
        <time>2021-08-21T12:45:30Z</time>
      </trkpt>
      <trkpt lat="47.07003" lon="2.40262">
        <ele>144</ele>
        <time>2021-08-21T12:45:30Z</time>
      </trkpt>
      <trkpt lat="47.06997" lon="2.40267">
        <ele>143</ele>
        <time>2021-08-21T12:45:30Z</time>
      </trkpt>
      <trkpt lat="47.0699" lon="2.4027">
        <ele>143</ele>
        <time>2021-08-21T12:45:30Z</time>
      </trkpt>
      <trkpt lat="47.06984" lon="2.40274">
        <ele>143</ele>
        <time>2021-08-21T12:45:30Z</time>
      </trkpt>
      <trkpt lat="47.06977" lon="2.40278">
        <ele>143</ele>
        <time>2021-08-21T12:45:30Z</time>
      </trkpt>
      <trkpt lat="47.06971" lon="2.40282">
        <ele>142</ele>
        <time>2021-08-21T12:45:30Z</time>
      </trkpt>
      <trkpt lat="47.06964" lon="2.40286">
        <ele>142</ele>
        <time>2021-08-21T12:45:30Z</time>
      </trkpt>
      <trkpt lat="47.06957" lon="2.40289">
        <ele>141</ele>
        <time>2021-08-21T12:45:30Z</time>
      </trkpt>
      <trkpt lat="47.0695" lon="2.40292">
        <ele>140</ele>
        <time>2021-08-21T12:45:30Z</time>
      </trkpt>
      <trkpt lat="47.06943" lon="2.40296">
        <ele>140</ele>
        <time>2021-08-21T12:45:30Z</time>
      </trkpt>
      <trkpt lat="47.06936" lon="2.403">
        <ele>139</ele>
        <time>2021-08-21T12:45:30Z</time>
      </trkpt>
      <trkpt lat="47.0693" lon="2.40305">
        <ele>138</ele>
        <time>2021-08-21T12:45:30Z</time>
      </trkpt>
      <trkpt lat="47.06923" lon="2.40311">
        <ele>138</ele>
        <time>2021-08-21T12:45:30Z</time>
      </trkpt>
      <trkpt lat="47.06915" lon="2.40316">
        <ele>138</ele>
        <time>2021-08-21T12:45:30Z</time>
      </trkpt>
      <trkpt lat="47.06909" lon="2.4032">
        <ele>138</ele>
        <time>2021-08-21T12:45:30Z</time>
      </trkpt>
      <trkpt lat="47.06901" lon="2.40319">
        <ele>138</ele>
        <time>2021-08-21T12:45:30Z</time>
      </trkpt>
      <trkpt lat="47.06894" lon="2.40316">
        <ele>138</ele>
        <time>2021-08-21T12:45:30Z</time>
      </trkpt>
      <trkpt lat="47.06887" lon="2.40313">
        <ele>138</ele>
        <time>2021-08-21T12:45:30Z</time>
      </trkpt>
      <trkpt lat="47.0688" lon="2.40312">
        <ele>138</ele>
        <time>2021-08-21T12:45:30Z</time>
      </trkpt>
      <trkpt lat="47.06852" lon="2.40316">
        <ele>139</ele>
        <time>2021-08-21T12:45:30Z</time>
      </trkpt>
      <trkpt lat="47.06829" lon="2.40329">
        <ele>141</ele>
        <time>2021-08-21T12:45:30Z</time>
      </trkpt>
      <trkpt lat="47.06832" lon="2.40365">
        <ele>140</ele>
        <time>2021-08-21T12:45:30Z</time>
      </trkpt>
      <trkpt lat="47.06838" lon="2.40404">
        <ele>140</ele>
        <time>2021-08-21T12:45:30Z</time>
      </trkpt>
      <trkpt lat="47.06844" lon="2.40444">
        <ele>141</ele>
        <time>2021-08-21T12:45:30Z</time>
      </trkpt>
      <trkpt lat="47.06849" lon="2.40477">
        <ele>142</ele>
        <time>2021-08-21T12:45:30Z</time>
      </trkpt>
      <trkpt lat="47.06851" lon="2.40485">
        <ele>142</ele>
        <time>2021-08-21T12:45:30Z</time>
      </trkpt>
      <trkpt lat="47.06856" lon="2.40526">
        <ele>144</ele>
        <time>2021-08-21T12:45:30Z</time>
      </trkpt>
      <trkpt lat="47.06862" lon="2.40565">
        <ele>146</ele>
        <time>2021-08-21T12:45:30Z</time>
      </trkpt>
      <trkpt lat="47.06869" lon="2.40601">
        <ele>146</ele>
        <time>2021-08-21T12:45:30Z</time>
      </trkpt>
      <trkpt lat="47.06855" lon="2.40621">
        <ele>146</ele>
        <time>2021-08-21T12:45:30Z</time>
      </trkpt>
      <trkpt lat="47.06833" lon="2.40631">
        <ele>146</ele>
        <time>2021-08-21T12:45:30Z</time>
      </trkpt>
      <trkpt lat="47.06815" lon="2.4064">
        <ele>148</ele>
        <time>2021-08-21T12:45:30Z</time>
      </trkpt>
      <trkpt lat="47.0681" lon="2.40642">
        <ele>148</ele>
        <time>2021-08-21T12:45:30Z</time>
      </trkpt>
      <trkpt lat="47.06787" lon="2.40654">
        <ele>149</ele>
        <time>2021-08-21T12:45:30Z</time>
      </trkpt>
      <trkpt lat="47.06766" lon="2.40665">
        <ele>149</ele>
        <time>2021-08-21T12:45:30Z</time>
      </trkpt>
      <trkpt lat="47.06747" lon="2.40676">
        <ele>149</ele>
        <time>2021-08-21T12:45:30Z</time>
      </trkpt>
      <trkpt lat="47.06735" lon="2.40688">
        <ele>149</ele>
        <time>2021-08-21T12:45:30Z</time>
      </trkpt>
      <trkpt lat="47.06732" lon="2.4069">
        <ele>149</ele>
        <time>2021-08-21T12:45:30Z</time>
      </trkpt>
      <trkpt lat="47.06732" lon="2.40689">
        <ele>149</ele>
        <time>2021-08-21T12:45:30Z</time>
      </trkpt>
    </trkseg>
  </trk>
</gpx>